[[{"header":{"parameterUnit":"m.s-1","parameterCategory":1,"la1":31.0,"la2":29.5877,"lo1":-88.7671,"lo2":-86.6584,"dy":0.0162,"dx":0.0185,"nx":115,"ny":88,"refTime":"2023-05-29T18:00:00:Z","depth":0,"parameterNumber":2,"parameterNumberName":"U-component_of_WINDS"},"data":[0.0,0.0,0.0,0.0,0.0,0.0,0.0,0.0,0.0,0.0,0.0,0.0,0.0,0.0,0.0,0.0,0.0,0.0,0.0,0.0,0.0,0.0,0.0,0.0,0.0,0.0,0.0,0.0,0.0,0.0,0.0,0.0,0.0,0.0,0.0,0.0,0.0,0.0,0.0,0.0,0.0,0.0,0.0,0.0,0.0,0.0,0.0,0.0,0.0,0.0,0.0,0.0,0.0,0.0,0.0,0.0,0.0,0.0,0.0,0.0,0.0,0.0,0.0,0.0,0.0,0.0,0.0,0.0,0.0,0.0,0.0,0.0,0.0,0.0,0.0,0.0,0.0,0.0,0.0,0.0,0.0,0.0,0.0,0.0,0.0,0.0,0.0,0.0,0.0,0.0,0.0,0.0,0.0,0.0,0.0,0.0,0.0,0.0,0.0,0.0,0.0,0.0,0.0,0.0,0.0,0.0,0.0,0.0,0.0,0.0,0.0,0.0,0.0,0.0,0.0,0.0,0.0,0.0,0.0,0.0,0.0,0.0,0.0,0.0,0.0,0.0,0.0,0.0,0.0,0.0,0.0,0.0,0.0,0.0,0.0,0.0,0.0,0.0,0.0,0.0,0.0,0.0,0.0,0.0,0.0,0.0,0.0,0.0,0.0,0.0,0.0,0.0,0.0,0.0,0.0,0.0,0.0,0.0,0.0,0.0,0.0,0.0,0.0,0.0,0.0,0.0,0.0,0.0,0.0,0.0,0.0,0.0,0.0,0.0,0.0,0.0,0.0,0.0,0.0,0.0,0.0,0.0,0.0,0.0,0.0,0.0,0.0,0.0,0.0,0.0,0.0,0.0,0.0,0.0,0.0,0.0,0.0,0.0,0.0,0.0,0.0,0.0,0.0,0.0,0.0,0.0,0.0,0.0,0.0,0.0,0.0,0.0,0.0,0.0,0.0,0.0,0.0,0.0,0.0,0.0,0.0,0.0,0.0,0.0,0.0,0.0,0.0,0.0,0.0,0.0,0.0,0.0,0.0,0.0,0.0,0.0,0.0,0.0,0.0,0.0,0.0,0.0,0.0,0.0,0.0,0.0,0.0,0.0,0.0,0.0,0.0,0.0,0.0,0.0,0.0,0.0,0.0,0.0,0.0,0.0,0.0,0.0,0.0,0.0,0.0,0.0,0.0,0.0,0.0,0.0,0.0,0.0,0.0,0.0,0.0,0.0,0.0,0.0,0.0,0.0,0.0,0.0,0.0,0.0,0.0,0.0,0.0,0.0,0.0,0.0,0.0,0.0,0.0,0.0,0.0,0.0,0.0,0.0,0.0,0.0,0.0,0.0,0.0,0.0,0.0,0.0,0.0,0.0,0.0,0.0,0.0,0.0,0.0,0.0,0.0,0.0,0.0,0.0,0.0,0.0,0.0,0.0,0.0,0.0,0.0,0.0,0.0,0.0,0.0,0.0,0.0,0.0,0.0,0.0,0.0,0.0,0.0,0.0,0.0,0.0,0.0,0.0,0.0,0.0,0.0,0.0,0.0,0.0,0.0,0.0,0.0,0.0,0.0,0.0,0.0,0.0,0.0,0.0,0.0,0.0,0.0,0.0,0.0,0.0,0.0,0.0,0.0,0.0,0.0,0.0,0.0,0.0,0.0,0.0,0.0,0.0,0.0,0.0,0.0,0.0,0.0,0.0,0.0,0.0,0.0,0.0,0.0,0.0,0.0,0.0,0.0,0.0,0.0,0.0,0.0,0.0,0.0,0.0,0.0,0.0,0.0,0.0,0.0,0.0,0.0,0.0,0.0,0.0,0.0,0.0,0.0,0.0,0.0,0.0,0.0,0.0,0.0,0.0,0.0,0.0,0.0,0.0,0.0,0.0,0.0,0.0,0.0,0.0,0.0,0.0,0.0,0.0,0.0,0.0,0.0,0.0,0.0,0.0,0.0,0.0,0.0,0.0,0.0,0.0,0.0,0.0,0.0,0.0,0.0,0.0,0.0,0.0,0.0,0.0,0.0,0.0,0.0,0.0,0.0,0.0,0.0,0.0,0.0,0.0,0.0,0.0,0.0,0.0,0.0,0.0,0.0,0.0,0.0,0.0,0.0,0.0,0.0,0.0,0.0,0.0,0.0,0.0,0.0,0.0,0.0,0.0,0.0,0.0,0.0,0.0,0.0,0.0,0.0,0.0,0.0,0.0,0.0,0.0,0.0,0.0,0.0,0.0,0.0,0.0,0.0,0.0,0.0,0.0,0.0,0.0,0.0,0.0,0.0,0.0,0.0,0.0,0.0,0.0,0.0,0.0,0.0,0.0,0.0,0.0,0.0,0.0,0.0,0.0,0.0,0.0,0.0,0.0,0.0,0.0,0.0,0.0,0.0,0.0,0.0,0.0,0.0,0.0,0.0,0.0,0.0,0.0,0.0,0.0,0.0,0.0,0.0,0.0,0.0,0.0,0.0,0.0,0.0,0.0,0.0,0.0,0.0,0.0,0.0,0.0,0.0,0.0,0.0,0.0,0.0,0.0,0.0,0.0,0.0,0.0,0.0,0.0,0.0,0.0,0.0,0.0,0.0,0.0,0.0,0.0,0.0,0.0,0.0,0.0,0.0,0.0,0.0,0.0,0.0,0.0,0.0,0.0,0.0,0.0,0.0,0.0,0.0,0.0,0.0,0.0,0.0,0.0,0.0,0.0,0.0,0.0,0.0,0.0,0.0,0.0,0.0,0.0,0.0,0.0,0.0,0.0,0.0,0.0,0.0,0.0,0.0,0.0,0.0,0.0,0.0,0.0,0.0,0.0,0.0,0.0,0.0,0.0,0.0,0.0,0.0,0.0,0.0,0.0,0.0,0.0,0.0,0.0,0.0,0.0,0.0,0.0,0.0,0.0,0.0,0.0,0.0,0.0,0.0,0.0,0.0,0.0,0.0,0.0,0.0,0.0,0.0,0.0,0.0,0.0,0.0,0.0,0.0,0.0,0.0,0.0,0.0,0.0,0.0,0.0,0.0,0.0,0.0,0.0,0.0,0.0,0.0,0.0,0.0,0.0,0.0,0.0,0.0,0.0,0.0,0.0,0.0,0.0,0.0,0.0,0.0,0.0,0.0,0.0,0.0,0.0,0.0,0.0,0.0,0.0,0.0,0.0,0.0,0.0,0.0,0.0,0.0,0.0,0.0,0.0,0.0,0.0,0.0,0.0,0.0,0.0,0.0,0.0,0.0,0.0,0.0,0.0,0.0,0.0,0.0,0.0,0.0,0.0,0.0,0.0,0.0,0.0,0.0,0.0,0.0,0.0,0.0,0.0,0.0,0.0,0.0,0.0,0.0,0.0,0.0,0.0,0.0,0.0,0.0,0.0,0.0,0.0,0.0,0.0,0.0,0.0,0.0,0.0,0.0,0.0,0.0,0.0,0.0,0.0,0.0,0.0,0.0,0.0,0.0,0.0,0.0,0.0,0.0,0.0,0.0,0.0,0.0,0.0,0.0,0.0,0.0,0.0,0.0,0.0,0.0,0.0,0.0,0.0,0.0,0.0,0.0,0.0,0.0,0.0,0.0,0.0,0.0,0.0,0.0,0.0,0.0,0.0,0.0,0.0,0.0,0.0,0.0,0.0,0.0,0.0,0.0,0.0,0.0,0.0,0.0,0.0,0.0,0.0,0.0,0.0,0.0,0.0,0.0,0.0,0.0,0.0,0.0,0.0,0.0,0.0,0.0,0.0,0.0,0.0,0.0,0.0,0.0,0.0,0.0,0.0,0.0,0.0,0.0,0.0,0.0,0.0,0.0,0.0,0.0,0.0,0.0,0.0,0.0,0.0,0.0,0.0,0.0,0.0,0.0,0.0,0.0,0.0,0.0,0.0,0.0,0.0,0.0,0.0,0.0,0.0,0.0,0.0,0.0,0.0,0.0,0.0,0.0,0.0,0.0,0.0,0.0,0.0,0.0,0.0,0.0,0.0,0.0,0.0,0.0,0.0,0.0,0.0,0.0,0.0,0.0,0.0,0.0,0.0,0.0,0.0,0.0,0.0,0.0,0.0,0.0,0.0,0.0,0.0,0.0,0.0,0.0,0.0,0.0,0.0,0.0,0.0,0.0,0.0,0.0,0.0,0.0,0.0,0.0,0.0,0.0,0.0,0.0,0.0,0.0,0.0,0.0,0.0,0.0,0.0,0.0,0.0,0.0,0.0,0.0,0.0,0.0,0.0,0.0,0.0,0.0,0.0,0.0,0.0,0.0,0.0,0.0,0.0,0.0,0.0,0.0,0.0,0.0,0.0,2.0513,0.0,0.0,0.0,0.0,0.0,0.0,0.0,0.0,0.0,0.0,0.0,0.0,0.0,0.0,0.0,0.0,0.0,0.0,0.0,0.0,0.0,0.0,0.0,0.0,0.0,0.0,0.0,0.0,0.0,0.0,0.0,0.0,0.0,0.0,0.0,0.0,0.0,0.0,0.0,0.0,0.0,0.0,0.0,0.0,0.0,0.0,0.0,0.0,0.0,0.0,0.0,0.0,0.0,0.0,0.0,0.0,0.0,0.0,0.0,0.0,0.0,0.0,0.0,0.0,0.0,0.0,0.0,0.0,0.0,0.0,0.0,0.0,0.0,0.0,0.0,0.0,0.0,0.0,0.0,0.0,0.0,0.0,0.0,0.0,0.0,0.0,0.0,0.0,0.0,0.0,0.0,0.0,0.0,0.0,0.0,0.0,0.0,0.0,0.0,0.0,0.0,0.0,0.0,0.0,0.0,0.0,0.0,0.0,0.0,0.0,2.0605,2.0597,2.0568,2.0538,2.05,0.0,0.0,0.0,0.0,0.0,0.0,0.0,0.0,0.0,0.0,0.0,0.0,0.0,0.0,0.0,0.0,0.0,0.0,0.0,0.0,0.0,0.0,0.0,0.0,0.0,0.0,0.0,0.0,0.0,0.0,0.0,0.0,0.0,0.0,0.0,0.0,0.0,0.0,0.0,0.0,0.0,0.0,0.0,0.0,0.0,0.0,0.0,0.0,0.0,0.0,0.0,0.0,0.0,0.0,0.0,0.0,0.0,0.0,0.0,0.0,0.0,0.0,0.0,0.0,0.0,0.0,0.0,0.0,0.0,0.0,0.0,0.0,0.0,0.0,0.0,0.0,0.0,0.0,0.0,0.0,0.0,0.0,0.0,0.0,0.0,0.0,0.0,0.0,0.0,0.0,0.0,0.0,0.0,0.0,0.0,0.0,0.0,0.0,0.0,0.0,0.0,0.0,0.0,0.0,0.0,0.0,0.0,0.0,0.0,0.0,0.0,0.0,2.0598,2.0566,2.05,0.0,0.0,0.0,0.0,0.0,0.0,0.0,0.0,0.0,0.0,0.0,0.0,0.0,0.0,0.0,0.0,0.0,0.0,0.0,0.0,0.0,0.0,0.0,0.0,0.0,0.0,0.0,0.0,0.0,0.0,0.0,0.0,0.0,0.0,0.0,0.0,0.0,0.0,0.0,0.0,0.0,0.0,0.0,0.0,0.0,0.0,0.0,0.0,0.0,0.0,0.0,0.0,0.0,0.0,0.0,0.0,0.0,0.0,0.0,0.0,0.0,0.0,0.0,0.0,0.0,0.0,0.0,0.0,0.0,0.0,0.0,0.0,0.0,0.0,0.0,0.0,0.0,0.0,0.0,0.0,0.0,0.0,0.0,0.0,0.0,0.0,0.0,0.0,0.0,0.0,0.0,0.0,0.0,0.0,0.0,0.0,0.0,0.0,0.0,0.0,0.0,0.0,0.0,0.0,0.0,0.0,0.0,0.0,0.0,0.0,2.054,2.0603,2.0604,0.0,2.05,0.0,0.0,0.0,0.0,0.0,0.0,0.0,0.0,0.0,0.0,0.0,0.0,0.0,0.0,0.0,0.0,0.0,0.0,0.0,0.0,0.0,0.0,0.0,0.0,0.0,0.0,0.0,0.0,0.0,0.0,0.0,0.0,0.0,0.0,0.0,0.0,0.0,0.0,0.0,0.0,0.0,0.0,0.0,0.0,0.0,0.0,0.0,0.0,0.0,0.0,0.0,0.0,0.0,0.0,0.0,0.0,0.0,0.0,0.0,0.0,0.0,0.0,0.0,0.0,0.0,0.0,0.0,0.0,0.0,0.0,0.0,0.0,0.0,0.0,0.0,0.0,0.0,0.0,0.0,0.0,0.0,0.0,0.0,0.0,0.0,0.0,0.0,0.0,0.0,0.0,0.0,0.0,0.0,0.0,0.0,0.0,0.0,0.0,0.0,0.0,0.0,0.0,0.0,0.0,0.0,0.0,0.0,0.0,0.0,0.0,2.0506,2.0539,2.0566,2.0576,0.0,0.0,0.0,0.0,0.0,0.0,0.0,0.0,0.0,0.0,0.0,0.0,0.0,0.0,0.0,0.0,0.0,0.0,0.0,0.0,0.0,0.0,0.0,0.0,0.0,0.0,0.0,0.0,0.0,0.0,0.0,0.0,0.0,0.0,0.0,0.0,0.0,0.0,0.0,0.0,0.0,0.0,0.0,0.0,0.0,0.0,0.0,0.0,0.0,0.0,0.0,0.0,0.0,0.0,0.0,0.0,0.0,0.0,0.0,0.0,0.0,0.0,0.0,0.0,0.0,0.0,0.0,0.0,0.0,0.0,0.0,0.0,0.0,0.0,0.0,0.0,0.0,0.0,0.0,0.0,0.0,0.0,0.0,0.0,0.0,0.0,0.0,0.0,0.0,0.0,0.0,0.0,0.0,0.0,0.0,0.0,0.0,0.0,0.0,0.0,0.0,0.0,0.0,0.0,0.0,0.0,0.0,0.0,0.0,0.0,2.0488,2.0506,2.0515,2.0566,2.0563,2.0537,0.0,0.0,0.0,0.0,0.0,0.0,0.0,0.0,0.0,0.0,0.0,0.0,0.0,0.0,0.0,0.0,0.0,0.0,0.0,0.0,0.0,0.0,0.0,0.0,0.0,0.0,0.0,0.0,0.0,0.0,0.0,0.0,0.0,0.0,0.0,0.0,0.0,0.0,0.0,0.0,0.0,0.0,0.0,0.0,0.0,0.0,0.0,0.0,0.0,0.0,0.0,0.0,0.0,0.0,0.0,0.0,0.0,0.0,0.0,0.0,0.0,0.0,0.0,0.0,0.0,0.0,0.0,0.0,0.0,0.0,0.0,0.0,0.0,0.0,0.0,0.0,0.0,0.0,0.0,0.0,0.0,0.0,0.0,0.0,0.0,0.0,0.0,0.0,0.0,0.0,0.0,0.0,0.0,0.0,0.0,0.0,0.0,0.0,0.0,0.0,0.0,0.0,0.0,0.0,0.0,0.0,0.0,0.0,2.0435,2.0502,2.0526,2.0552,2.0581,2.0605,0.0,0.0,0.0,0.0,0.0,0.0,0.0,0.0,0.0,0.0,0.0,0.0,0.0,0.0,0.0,0.0,0.0,0.0,0.0,0.0,0.0,0.0,0.0,0.0,0.0,0.0,0.0,0.0,0.0,0.0,0.0,0.0,0.0,0.0,0.0,0.0,0.0,0.0,0.0,0.0,0.0,0.0,0.0,0.0,0.0,0.0,0.0,0.0,0.0,0.0,0.0,0.0,0.0,0.0,0.0,0.0,0.0,0.0,0.0,0.0,0.0,0.0,0.0,0.0,0.0,0.0,0.0,0.0,0.0,0.0,0.0,0.0,0.0,0.0,0.0,0.0,0.0,0.0,0.0,0.0,0.0,0.0,0.0,0.0,0.0,0.0,0.0,0.0,0.0,0.0,0.0,0.0,0.0,0.0,0.0,0.0,0.0,0.0,0.0,0.0,0.0,0.0,0.0,0.0,0.0,0.0,0.0,0.0,0.0,2.1972,2.2064,2.2122,2.2168,2.2188,2.2201,0.0,0.0,0.0,0.0,0.0,0.0,0.0,0.0,0.0,0.0,0.0,0.0,0.0,0.0,0.0,0.0,0.0,0.0,0.0,0.0,0.0,0.0,0.0,0.0,0.0,0.0,0.0,0.0,0.0,0.0,0.0,0.0,0.0,0.0,0.0,0.0,0.0,0.0,0.0,0.0,0.0,0.0,0.0,0.0,0.0,0.0,0.0,0.0,0.0,0.0,0.0,0.0,0.0,0.0,0.0,0.0,0.0,0.0,0.0,0.0,0.0,0.0,0.0,0.0,0.0,0.0,0.0,0.0,0.0,0.0,0.0,0.0,0.0,0.0,0.0,0.0,0.0,0.0,0.0,0.0,0.0,0.0,0.0,0.0,0.0,0.0,0.0,0.0,0.0,0.0,0.0,0.0,0.0,0.0,0.0,0.0,0.0,0.0,0.0,0.0,0.0,0.0,0.0,0.0,0.0,0.0,0.0,0.0,0.0,2.2866,0.0,2.3018,0.0,2.3107,2.3107,0.0,0.0,0.0,0.0,0.0,0.0,0.0,0.0,0.0,0.0,0.0,0.0,0.0,0.0,0.0,0.0,0.0,0.0,0.0,0.0,0.0,0.0,0.0,0.0,0.0,0.0,0.0,0.0,0.0,0.0,0.0,0.0,0.0,0.0,0.0,0.0,0.0,0.0,0.0,0.0,0.0,0.0,0.0,0.0,0.0,0.0,0.0,0.0,0.0,0.0,0.0,0.0,0.0,0.0,0.0,0.0,0.0,0.0,0.0,0.0,0.0,0.0,0.0,0.0,0.0,0.0,0.0,0.0,0.0,0.0,0.0,0.0,0.0,0.0,0.0,0.0,0.0,0.0,0.0,0.0,0.0,0.0,0.0,0.0,0.0,0.0,0.0,0.0,0.0,0.0,0.0,0.0,0.0,0.0,0.0,0.0,0.0,0.0,0.0,0.0,0.0,0.0,0.0,0.0,0.0,0.0,0.0,0.0,2.2885,2.2944,2.305,2.3134,2.3047,2.3166,2.3154,0.0,0.0,0.0,0.0,0.0,0.0,0.0,0.0,0.0,0.0,0.0,0.0,0.0,0.0,0.0,0.0,0.0,0.0,0.0,0.0,0.0,0.0,0.0,0.0,0.0,0.0,0.0,0.0,0.0,0.0,0.0,0.0,0.0,0.0,0.0,0.0,0.0,0.0,0.0,0.0,0.0,0.0,0.0,0.0,0.0,0.0,0.0,0.0,0.0,0.0,0.0,0.0,0.0,0.0,0.0,0.0,0.0,0.0,0.0,0.0,0.0,0.0,0.0,0.0,0.0,0.0,0.0,0.0,0.0,0.0,0.0,0.0,0.0,0.0,0.0,0.0,0.0,0.0,0.0,0.0,0.0,0.0,0.0,0.0,0.0,0.0,0.0,0.0,0.0,0.0,0.0,0.0,0.0,0.0,0.0,0.0,0.0,0.0,0.0,0.0,0.0,0.0,0.0,0.0,0.0,0.0,0.0,0.0,0.0,2.4629,2.4701,2.4749,2.4788,2.4806,2.484,0.0,0.0,0.0,0.0,0.0,0.0,0.0,0.0,0.0,0.0,0.0,0.0,0.0,0.0,0.0,0.0,0.0,0.0,0.0,0.0,0.0,0.0,0.0,0.0,0.0,0.0,0.0,0.0,0.0,0.0,0.0,0.0,0.0,0.0,0.0,0.0,0.0,0.0,0.0,0.0,0.0,0.0,0.0,0.0,0.0,0.0,0.0,0.0,0.0,0.0,0.0,0.0,0.0,0.0,0.0,0.0,0.0,0.0,0.0,0.0,0.0,0.0,0.0,0.0,0.0,0.0,0.0,0.0,0.0,0.0,0.0,0.0,0.0,0.0,0.0,0.0,0.0,0.0,0.0,0.0,0.0,0.0,0.0,0.0,0.0,0.0,0.0,0.0,0.0,0.0,0.0,0.0,0.0,0.0,0.0,0.0,0.0,0.0,0.0,0.0,0.0,0.0,0.0,0.0,0.0,0.0,0.0,0.0,0.0,2.5858,2.592,2.5982,2.6055,2.6072,2.5976,2.5729,0.0,0.0,0.0,0.0,0.0,0.0,0.0,0.0,0.0,0.0,0.0,0.0,0.0,0.0,0.0,0.0,0.0,0.0,0.0,0.0,0.0,0.0,0.0,0.0,0.0,0.0,0.0,0.0,0.0,0.0,0.0,0.0,0.0,0.0,0.0,0.0,0.0,0.0,0.0,0.0,0.0,0.0,0.0,0.0,0.0,0.0,0.0,0.0,0.0,0.0,0.0,0.0,0.0,0.0,0.0,0.0,0.0,0.0,0.0,0.0,0.0,0.0,0.0,0.0,0.0,0.0,0.0,0.0,0.0,0.0,0.0,0.0,0.0,0.0,0.0,0.0,0.0,0.0,0.0,0.0,0.0,0.0,0.0,0.0,0.0,0.0,0.0,0.0,0.0,0.0,0.0,0.0,0.0,0.0,0.0,0.0,0.0,0.0,0.0,0.0,0.0,0.0,0.0,0.0,0.0,0.0,0.0,0.0,2.6747,2.6813,2.6854,2.6854,2.687,2.6524,0.0,0.0,0.0,0.0,0.0,0.0,0.0,0.0,0.0,0.0,0.0,0.0,0.0,0.0,0.0,0.0,0.0,0.0,0.0,0.0,0.0,0.0,0.0,0.0,0.0,0.0,0.0,0.0,0.0,0.0,0.0,0.0,0.0,0.0,0.0,0.0,0.0,0.0,0.0,0.0,0.0,0.0,0.0,0.0,0.0,0.0,0.0,0.0,0.0,0.0,0.0,0.0,0.0,0.0,0.0,0.0,0.0,0.0,0.0,0.0,0.0,0.0,0.0,0.0,0.0,0.0,0.0,0.0,0.0,0.0,0.0,0.0,0.0,0.0,0.0,0.0,0.0,0.0,0.0,0.0,0.0,0.0,0.0,0.0,0.0,0.0,0.0,0.0,0.0,0.0,0.0,0.0,0.0,0.0,0.0,0.0,0.0,0.0,0.0,0.0,0.0,0.0,0.0,0.0,0.0,0.0,0.0,0.0,0.0,2.8387,2.851,2.828,2.7705,2.7122,2.6753,0.0,0.0,0.0,0.0,0.0,0.0,0.0,0.0,0.0,0.0,0.0,0.0,0.0,0.0,0.0,0.0,0.0,0.0,0.0,0.0,0.0,0.0,0.0,0.0,0.0,0.0,0.0,0.0,0.0,0.0,0.0,0.0,0.0,0.0,0.0,0.0,0.0,0.0,0.0,0.0,0.0,0.0,0.0,0.0,0.0,0.0,0.0,0.0,0.0,0.0,0.0,0.0,0.0,0.0,0.0,0.0,0.0,0.0,0.0,0.0,0.0,0.0,0.0,0.0,0.0,0.0,0.0,0.0,0.0,0.0,0.0,0.0,0.0,0.0,0.0,0.0,0.0,0.0,0.0,0.0,0.0,0.0,0.0,0.0,0.0,0.0,0.0,0.0,0.0,0.0,0.0,0.0,0.0,0.0,0.0,0.0,0.0,0.0,0.0,0.0,0.0,0.0,0.0,0.0,0.0,0.0,0.0,0.0,2.7727,2.9075,2.9506,2.9492,2.9013,2.7923,2.7181,0.0,0.0,0.0,0.0,0.0,0.0,0.0,0.0,0.0,0.0,0.0,0.0,0.0,0.0,0.0,0.0,0.0,0.0,0.0,0.0,0.0,0.0,0.0,0.0,0.0,0.0,0.0,0.0,0.0,0.0,0.0,0.0,0.0,0.0,0.0,0.0,0.0,0.0,0.0,0.0,0.0,0.0,0.0,0.0,0.0,0.0,0.0,0.0,0.0,0.0,0.0,0.0,0.0,0.0,0.0,0.0,0.0,0.0,0.0,0.0,0.0,0.0,0.0,0.0,0.0,0.0,0.0,0.0,0.0,0.0,0.0,0.0,0.0,0.0,0.0,0.0,0.0,0.0,0.0,0.0,0.0,0.0,0.0,0.0,0.0,0.0,0.0,0.0,0.0,0.0,0.0,0.0,0.0,0.0,0.0,0.0,0.0,0.0,0.0,0.0,0.0,0.0,0.0,0.0,0.0,0.0,0.0,0.0,2.8255,2.9186,2.9982,3.0398,3.0352,2.8974,2.7806,0.0,0.0,0.0,0.0,0.0,0.0,0.0,0.0,0.0,0.0,0.0,0.0,0.0,0.0,0.0,0.0,0.0,0.0,0.0,0.0,0.0,0.0,0.0,0.0,0.0,0.0,0.0,0.0,0.0,0.0,0.0,0.0,0.0,0.0,0.0,0.0,0.0,0.0,0.0,0.0,0.0,0.0,0.0,0.0,0.0,0.0,0.0,0.0,0.0,0.0,0.0,0.0,0.0,0.0,0.0,0.0,0.0,0.0,0.0,0.0,0.0,0.0,0.0,0.0,0.0,0.0,0.0,0.0,0.0,0.0,0.0,0.0,0.0,0.0,0.0,0.0,0.0,0.0,0.0,0.0,0.0,0.0,0.0,0.0,0.0,0.0,0.0,0.0,0.0,0.0,0.0,0.0,0.0,0.0,0.0,0.0,0.0,0.0,0.0,0.0,0.0,0.0,0.0,0.0,0.0,0.0,0.0,0.0,2.9052,2.9865,3.0222,3.0398,3.0398,2.9486,2.8565,0.0,0.0,0.0,0.0,0.0,0.0,0.0,0.0,0.0,0.0,0.0,0.0,0.0,0.0,0.0,0.0,0.0,0.0,0.0,0.0,0.0,0.0,0.0,0.0,0.0,0.0,0.0,0.0,0.0,0.0,0.0,0.0,0.0,0.0,0.0,0.0,0.0,0.0,0.0,0.0,0.0,0.0,0.0,0.0,0.0,0.0,0.0,0.0,2.3674,0.0,0.0,0.0,0.0,0.0,0.0,0.0,0.0,0.0,0.0,0.0,0.0,0.0,0.0,0.0,0.0,0.0,0.0,0.0,0.0,0.0,0.0,0.0,0.0,0.0,0.0,0.0,0.0,0.0,0.0,0.0,0.0,0.0,0.0,0.0,0.0,0.0,0.0,0.0,0.0,0.0,0.0,0.0,0.0,0.0,0.0,0.0,0.0,0.0,0.0,0.0,0.0,0.0,0.0,0.0,0.0,0.0,0.0,0.0,2.9265,3.009,3.0286,3.0398,3.039,2.9985,2.9207,0.0,0.0,0.0,0.0,0.0,0.0,0.0,0.0,0.0,0.0,0.0,0.0,0.0,0.0,0.0,0.0,0.0,0.0,0.0,0.0,0.0,0.0,0.0,0.0,0.0,0.0,0.0,0.0,0.0,0.0,0.0,0.0,0.0,0.0,0.0,0.0,0.0,0.0,0.0,0.0,0.0,0.0,0.0,0.0,0.0,0.0,0.0,0.0,0.0,0.0,0.0,0.0,0.0,0.0,0.0,0.0,0.0,0.0,0.0,0.0,0.0,0.0,0.0,0.0,0.0,0.0,0.0,0.0,0.0,0.0,0.0,0.0,0.0,0.0,0.0,0.0,0.0,0.0,0.0,0.0,0.0,0.0,0.0,0.0,0.0,0.0,0.0,0.0,0.0,0.0,0.0,0.0,0.0,0.0,0.0,0.0,0.0,0.0,0.0,0.0,0.0,0.0,0.0,0.0,0.0,0.0,0.0,2.832,2.9296,3.0026,3.0247,3.0367,3.0398,3.0394,2.9631,2.8053,0.0,0.0,0.0,0.0,0.0,0.0,0.0,0.0,0.0,0.0,0.0,0.0,0.0,0.0,0.0,0.0,0.0,0.0,0.0,0.0,0.0,0.0,0.0,0.0,0.0,0.0,0.0,0.0,0.0,0.0,0.0,0.0,0.0,0.0,0.0,0.0,0.0,0.0,2.45,2.4321,0.0,0.0,0.0,0.0,0.0,0.0,0.0,0.0,2.3923,0.0,0.0,0.0,0.0,0.0,0.0,0.0,0.0,0.0,0.0,0.0,0.0,0.0,0.0,0.0,0.0,0.0,0.0,0.0,0.0,0.0,0.0,0.0,0.0,0.0,0.0,0.0,0.0,0.0,0.0,0.0,0.0,0.0,0.0,0.0,0.0,0.0,0.0,0.0,0.0,0.0,0.0,0.0,0.0,0.0,0.0,0.0,0.0,0.0,0.0,0.0,0.0,0.0,0.0,0.0,0.0,2.6897,2.8577,2.9602,2.9851,3.0052,3.0222,3.0379,3.0394,2.964,2.8094,0.0,0.0,0.0,0.0,0.0,0.0,0.0,0.0,0.0,0.0,0.0,0.0,0.0,0.0,0.0,0.0,0.0,0.0,0.0,0.0,0.0,0.0,0.0,0.0,0.0,0.0,0.0,0.0,0.0,0.0,0.0,0.0,0.0,0.0,0.0,0.0,0.0,0.0,0.0,2.4339,2.4266,0.0,0.0,0.0,0.0,0.0,0.0,0.0,0.0,2.486,0.0,0.0,0.0,0.0,0.0,0.0,0.0,0.0,0.0,0.0,0.0,0.0,0.0,0.0,0.0,0.0,0.0,0.0,0.0,0.0,0.0,0.0,0.0,0.0,0.0,0.0,0.0,0.0,0.0,0.0,0.0,0.0,0.0,0.0,0.0,0.0,0.0,0.0,0.0,0.0,0.0,0.0,0.0,0.0,0.0,0.0,0.0,0.0,0.0,0.0,0.0,0.0,0.0,0.0,0.0,2.7465,2.88,2.9533,2.9607,2.9877,3.0095,3.0196,3.0285,2.9608,0.0,0.0,0.0,0.0,0.0,0.0,0.0,0.0,0.0,0.0,0.0,0.0,0.0,0.0,0.0,0.0,0.0,0.0,0.0,0.0,0.0,0.0,0.0,0.0,0.0,0.0,0.0,0.0,0.0,0.0,0.0,0.0,0.0,0.0,0.0,0.0,0.0,0.0,0.0,0.0,2.487,2.5113,2.5041,0.0,0.0,0.0,0.0,0.0,0.0,2.5448,2.515,0.0,0.0,0.0,0.0,0.0,0.0,0.0,0.0,0.0,0.0,0.0,0.0,0.0,0.0,0.0,0.0,0.0,0.0,0.0,0.0,0.0,0.0,0.0,0.0,0.0,0.0,0.0,0.0,0.0,0.0,0.0,0.0,0.0,0.0,0.0,0.0,0.0,0.0,0.0,0.0,0.0,0.0,0.0,0.0,0.0,0.0,0.0,0.0,0.0,0.0,0.0,0.0,0.0,0.0,0.0,2.7954,2.8864,2.9358,2.9418,2.9765,2.9958,3.0018,3.0209,2.9563,0.0,0.0,0.0,0.0,0.0,0.0,0.0,0.0,0.0,0.0,0.0,0.0,0.0,0.0,0.0,0.0,0.0,0.0,0.0,0.0,0.0,0.0,0.0,0.0,0.0,0.0,0.0,0.0,0.0,0.0,0.0,0.0,0.0,0.0,0.0,0.0,0.0,0.0,0.0,0.0,0.0,2.5914,2.5862,2.6591,0.0,0.0,0.0,0.0,2.671,2.6136,0.0,0.0,0.0,0.0,0.0,0.0,0.0,0.0,0.0,0.0,0.0,0.0,0.0,0.0,0.0,0.0,0.0,0.0,0.0,0.0,0.0,0.0,0.0,0.0,0.0,0.0,0.0,0.0,0.0,0.0,0.0,0.0,0.0,0.0,0.0,0.0,0.0,0.0,0.0,0.0,0.0,0.0,0.0,0.0,0.0,0.0,0.0,0.0,0.0,0.0,0.0,0.0,0.0,0.0,0.0,0.0,2.7809,2.8688,2.9243,2.9394,2.9626,2.9815,2.9992,3.0177,2.9552,0.0,0.0,0.0,0.0,0.0,0.0,0.0,0.0,0.0,0.0,0.0,0.0,0.0,0.0,0.0,0.0,0.0,0.0,0.0,0.0,0.0,0.0,0.0,0.0,0.0,0.0,0.0,0.0,0.0,0.0,0.0,0.0,0.0,0.0,0.0,0.0,0.0,0.0,0.0,0.0,0.0,2.5997,2.5988,2.6666,2.718,0.0,0.0,0.0,2.7724,2.7545,0.0,0.0,0.0,0.0,0.0,0.0,0.0,0.0,0.0,0.0,0.0,0.0,0.0,0.0,0.0,0.0,0.0,0.0,0.0,0.0,0.0,0.0,0.0,0.0,0.0,0.0,0.0,0.0,0.0,0.0,0.0,0.0,0.0,0.0,0.0,0.0,0.0,0.0,0.0,0.0,0.0,0.0,0.0,0.0,0.0,0.0,0.0,0.0,0.0,0.0,0.0,0.0,0.0,0.0,0.0,2.7175,2.8448,2.8856,2.9067,2.916,2.9375,2.9533,2.9644,2.9899,2.9265,0.0,0.0,0.0,0.0,0.0,0.0,0.0,0.0,0.0,0.0,0.0,0.0,0.0,0.0,0.0,0.0,0.0,0.0,0.0,0.0,0.0,0.0,0.0,0.0,0.0,0.0,0.0,0.0,0.0,0.0,0.0,0.0,0.0,0.0,0.0,0.0,0.0,0.0,0.0,0.0,0.0,0.0,2.7576,2.8324,0.0,0.0,0.0,2.881,2.8661,0.0,0.0,0.0,0.0,0.0,0.0,0.0,0.0,0.0,0.0,0.0,0.0,0.0,0.0,0.0,0.0,0.0,0.0,0.0,0.0,0.0,0.0,0.0,0.0,0.0,0.0,0.0,0.0,0.0,0.0,0.0,0.0,0.0,0.0,0.0,0.0,0.0,0.0,0.0,0.0,0.0,0.0,0.0,0.0,0.0,0.0,0.0,0.0,0.0,0.0,0.0,0.0,0.0,0.0,0.0,0.0,0.0,2.8915,2.897,2.8994,2.8998,2.9185,2.9332,2.9373,2.9607,0.0,0.0,0.0,0.0,0.0,0.0,0.0,0.0,0.0,0.0,0.0,0.0,0.0,0.0,0.0,0.0,0.0,0.0,0.0,0.0,0.0,0.0,0.0,0.0,0.0,0.0,0.0,2.5609,0.0,0.0,0.0,0.0,0.0,0.0,0.0,0.0,0.0,0.0,0.0,0.0,0.0,0.0,2.7937,2.8823,2.9594,3.0019,0.0,0.0,2.9433,2.9262,2.8701,2.8015,0.0,0.0,0.0,0.0,0.0,0.0,0.0,0.0,0.0,0.0,0.0,0.0,0.0,0.0,0.0,0.0,0.0,0.0,0.0,0.0,0.0,0.0,0.0,0.0,0.0,0.0,0.0,0.0,0.0,0.0,0.0,0.0,0.0,0.0,0.0,0.0,0.0,0.0,0.0,0.0,0.0,0.0,0.0,0.0,0.0,0.0,0.0,0.0,0.0,0.0,0.0,0.0,0.0,0.0,0.0,2.8832,2.8887,2.8929,2.9017,2.9185,2.9293,2.9314,2.9513,2.9265,0.0,0.0,0.0,0.0,0.0,0.0,0.0,0.0,0.0,0.0,0.0,0.0,0.0,0.0,0.0,0.0,0.0,0.0,0.0,0.0,0.0,0.0,0.0,0.0,0.0,0.0,0.0,0.0,0.0,0.0,0.0,0.0,0.0,0.0,0.0,0.0,0.0,0.0,0.0,0.0,0.0,2.7999,2.8874,2.9612,3.0045,0.0,0.0,2.9433,2.9304,2.9185,2.8849,2.8033,0.0,0.0,0.0,0.0,0.0,0.0,0.0,0.0,0.0,0.0,0.0,0.0,0.0,0.0,0.0,0.0,0.0,0.0,0.0,0.0,0.0,0.0,0.0,0.0,0.0,0.0,0.0,0.0,0.0,0.0,0.0,0.0,0.0,0.0,0.0,0.0,0.0,0.0,0.0,0.0,0.0,0.0,0.0,0.0,0.0,0.0,0.0,0.0,0.0,0.0,0.0,0.0,0.0,2.7232,2.8868,2.8929,2.8952,2.8994,2.9071,2.9115,2.9134,2.9289,2.9042,0.0,0.0,0.0,0.0,0.0,0.0,0.0,0.0,0.0,0.0,0.0,0.0,0.0,0.0,0.0,0.0,0.0,0.0,0.0,0.0,0.0,0.0,0.0,0.0,0.0,0.0,0.0,0.0,2.6081,2.5679,2.5963,0.0,0.0,0.0,0.0,0.0,0.0,0.0,0.0,0.0,0.0,2.8845,2.9589,2.9985,0.0,0.0,2.9699,2.9608,2.939,2.9349,2.907,2.8292,2.7902,0.0,0.0,0.0,0.0,0.0,0.0,0.0,0.0,0.0,0.0,0.0,0.0,0.0,0.0,0.0,0.0,0.0,0.0,0.0,0.0,0.0,0.0,0.0,0.0,0.0,0.0,0.0,0.0,0.0,0.0,0.0,0.0,0.0,0.0,0.0,0.0,0.0,0.0,0.0,0.0,0.0,0.0,0.0,0.0,0.0,0.0,0.0,0.0,0.0,0.0,0.0,0.0,2.7378,2.8791,2.8881,2.8905,2.8929,2.8947,2.8947,2.8929,2.9044,2.8904,0.0,0.0,0.0,0.0,0.0,0.0,0.0,0.0,0.0,0.0,0.0,0.0,0.0,0.0,0.0,0.0,0.0,0.0,0.0,0.0,0.0,0.0,0.0,0.0,0.0,0.0,0.0,0.0,2.6353,2.5868,2.5524,0.0,0.0,0.0,0.0,0.0,0.0,0.0,0.0,0.0,0.0,2.9379,3.0094,3.0254,3.0122,2.9732,2.9735,2.97,2.9472,2.9433,2.9266,2.8726,0.0,0.0,0.0,0.0,0.0,0.0,0.0,0.0,0.0,0.0,0.0,0.0,0.0,0.0,0.0,0.0,0.0,0.0,0.0,0.0,0.0,0.0,0.0,0.0,0.0,0.0,0.0,0.0,0.0,0.0,2.4729,0.0,0.0,0.0,0.0,0.0,0.0,0.0,0.0,0.0,0.0,0.0,0.0,0.0,0.0,0.0,0.0,0.0,0.0,0.0,0.0,0.0,0.0,0.0,2.8594,2.8705,2.8755,2.8864,2.8828,2.8864,2.8864,2.89,2.8962,2.9089,0.0,0.0,0.0,0.0,0.0,0.0,0.0,0.0,0.0,0.0,0.0,0.0,0.0,0.0,0.0,0.0,0.0,0.0,0.0,0.0,0.0,0.0,0.0,0.0,0.0,0.0,2.6999,2.6919,2.649,0.0,0.0,0.0,0.0,0.0,0.0,0.0,0.0,0.0,0.0,2.9175,2.9492,3.0263,3.0286,3.0128,2.9921,2.9787,2.9663,2.9512,2.9492,2.9492,0.0,0.0,0.0,0.0,0.0,0.0,0.0,0.0,0.0,0.0,0.0,0.0,0.0,0.0,0.0,0.0,0.0,0.0,0.0,0.0,0.0,0.0,0.0,0.0,0.0,0.0,0.0,2.6098,2.6098,0.0,0.0,0.0,0.0,0.0,0.0,0.0,0.0,0.0,0.0,0.0,2.5011,2.5011,0.0,0.0,0.0,0.0,0.0,0.0,0.0,0.0,0.0,0.0,0.0,0.0,2.7787,2.9258,2.9276,2.9608,3.0352,3.0396,3.0396,3.0414,3.0472,3.0344,2.9961,0.0,0.0,0.0,0.0,0.0,0.0,0.0,0.0,0.0,0.0,0.0,0.0,0.0,0.0,0.0,0.0,0.0,0.0,0.0,0.0,0.0,0.0,0.0,0.0,0.0,2.7011,0.0,0.0,0.0,0.0,0.0,0.0,0.0,0.0,0.0,0.0,0.0,2.854,2.9119,2.9697,3.0098,3.0203,3.0254,3.0142,0.0,0.0,0.0,0.0,0.0,0.0,0.0,0.0,0.0,0.0,0.0,0.0,0.0,0.0,2.9643,2.7438,2.7401,2.7716,2.7696,0.0,0.0,0.0,0.0,0.0,0.0,0.0,0.0,0.0,0.0,0.0,0.0,0.0,0.0,0.0,0.0,2.6753,0.0,0.0,0.0,0.0,0.0,0.0,0.0,0.0,2.6817,2.6871,2.6735,2.6735,2.6753,0.0,2.6824,2.6912,0.0,0.0,0.0,0.0,0.0,0.0,0.0,0.0,2.8263,2.9539,2.9753,3.026,3.1101,3.1119,3.1119,3.1119,3.1198,3.1078,3.0771,3.0474,2.9908,0.0,0.0,0.0,0.0,0.0,0.0,0.0,0.0,0.0,0.0,0.0,0.0,0.0,0.0,0.0,0.0,0.0,0.0,0.0,0.0,0.0,0.0,0.0,2.7576,0.0,0.0,0.0,0.0,0.0,0.0,0.0,0.0,0.0,2.7621,2.8559,2.9342,2.9612,3.0102,3.0364,3.0215,0.0,0.0,0.0,0.0,0.0,0.0,0.0,3.0697,3.128,3.1337,3.1485,3.2011,3.2105,3.2105,3.2105,0.0,0.0,2.9233,2.9232,2.9528,2.9488,2.9855,3.0349,3.0783,3.1048,3.142,0.0,0.0,0.0,0.0,0.0,0.0,0.0,0.0,2.6695,2.675,0.0,2.6835,0.0,0.0,0.0,0.0,0.0,0.0,0.0,0.0,2.9478,3.0127,3.0119,3.0101,3.0154,3.0172,3.0163,3.0088,2.9712,2.6777,0.0,0.0,0.0,0.0,0.0,0.0,2.9089,2.9494,3.0178,3.0718,3.1093,3.1075,3.1121,3.1093,3.1175,3.1316,3.1525,3.1513,3.0984,2.9829,2.9799,0.0,0.0,0.0,0.0,0.0,0.0,0.0,0.0,0.0,0.0,0.0,0.0,0.0,0.0,0.0,0.0,0.0,0.0,0.0,0.0,2.8353,0.0,0.0,0.0,0.0,0.0,0.0,0.0,0.0,0.0,0.0,2.9392,2.9395,2.9668,3.0482,0.0,0.0,0.0,0.0,3.1328,3.1267,3.1897,3.2353,3.2298,3.2223,3.2185,3.2241,0.0,0.0,3.2219,3.22,3.2256,3.2219,3.2331,3.2237,3.2237,3.2064,3.2079,3.2117,3.2088,3.202,3.2046,3.2706,3.3302,2.8308,0.0,0.0,0.0,0.0,2.9831,2.9831,2.978,2.9799,2.9762,2.9799,2.9856,0.0,0.0,0.0,0.0,0.0,0.0,3.0014,2.9862,3.01,3.019,3.0113,3.0113,3.0113,3.0113,3.0145,3.0131,3.0015,2.9141,2.839,2.7852,0.0,0.0,0.0,0.0,2.9341,3.0738,3.0946,3.1573,3.2705,3.2705,3.2752,3.2791,3.2819,3.2602,3.2153,3.2261,3.1935,3.1017,3.0765,0.0,0.0,0.0,0.0,0.0,0.0,0.0,0.0,0.0,0.0,0.0,0.0,0.0,0.0,0.0,0.0,0.0,0.0,0.0,2.9142,2.9212,2.9335,0.0,0.0,0.0,0.0,0.0,0.0,0.0,0.0,0.0,3.108,3.1108,3.139,0.0,0.0,3.2122,3.2025,3.2176,3.2267,3.2153,0.0,0.0,0.0,3.2352,3.2561,3.3166,3.3714,3.4112,3.4093,3.4093,3.4112,3.4112,3.4604,3.502,3.4944,3.3917,3.3323,3.3711,3.4267,3.4839,3.5333,3.5578,3.569,2.9955,3.0575,3.0339,3.0552,3.1003,3.1084,3.1111,3.1057,3.1057,3.1057,3.1057,3.1093,3.1164,3.1217,3.1269,0.0,0.0,0.0,3.1315,3.1182,3.1416,3.1487,3.1426,3.1426,3.1395,3.1377,3.1426,3.1315,3.1172,3.1253,3.0783,2.9898,0.0,0.0,2.944,2.96,3.0293,3.1524,3.1785,3.2317,3.3393,3.3393,3.3422,3.3452,3.3452,3.3245,3.2801,3.2921,3.2669,3.1961,3.1867,3.1374,0.0,0.0,0.0,0.0,0.0,0.0,0.0,0.0,0.0,0.0,0.0,2.69,0.0,0.0,0.0,0.0,2.9351,3.0035,3.0545,3.0593,0.0,0.0,0.0,0.0,0.0,0.0,0.0,3.086,3.1423,3.2023,3.2823,3.2889,3.287,3.2976,3.2897,3.279,3.2707,0.0,3.3108,3.3023,3.3308,3.3517,3.3482,3.3446,3.36,3.4093,3.487,3.5401,3.5439,3.5647,3.5875,3.5951,3.633,3.6671,3.6671,3.5718,3.5105,3.5528,3.595,3.6405,3.6868,3.7131,3.728,3.0845,3.1333,3.0557,3.0521,3.1062,3.1128,3.1184,3.1184,3.1184,3.1166,3.1184,3.1184,3.1211,3.1284,3.1284,0.0,3.1302,3.1972,3.2288,3.2325,3.3049,3.3393,3.3393,3.3375,3.3393,3.3375,3.3393,3.3208,3.2858,3.3037,3.2616,3.1649,3.0924,3.0533,3.0516,3.1093,3.1596,3.1966,3.2519,3.2988,3.3393,3.3393,3.3393,3.3393,3.3393,3.3393,3.3393,3.3452,3.324,3.2706,3.292,3.2447,3.1167,0.0,0.0,0.0,0.0,0.0,0.0,0.0,0.0,0.0,0.0,0.0,0.0,0.0,0.0,0.0,3.118,0.0,3.2196,3.2204,0.0,0.0,0.0,3.1326,3.2118,3.2136,3.2421,3.3193,0.0,0.0,3.4395,0.0,3.4197,3.3319,3.305,3.2913,3.2902,3.3508,3.3895,3.3913,3.4617,3.5186,3.5129,3.517,3.521,3.5268,3.5797,3.6309,3.635,3.6862,3.7356,3.7318,3.7489,3.7527,3.7527,3.7526,3.758,3.7513,3.7322,3.7164,3.7328,3.7804,3.8196,3.0845,3.1363,3.1153,3.1567,3.2371,3.2353,3.2541,3.2832,3.2832,3.2832,3.2832,3.2832,3.2832,3.2861,3.2861,3.2861,3.2861,3.3031,3.3121,3.314,3.3321,3.3393,3.3393,3.3393,3.3393,3.3393,3.3393,3.3364,3.3256,3.3286,3.3214,3.2937,3.2739,3.2194,3.128,3.1377,3.1813,3.2559,3.2706,3.297,3.3393,3.3393,3.3393,3.3393,3.3393,3.3393,3.3393,3.3411,3.339,3.3285,3.2936,3.2407,3.1722,3.108,0.0,0.0,0.0,0.0,0.0,0.0,0.0,0.0,0.0,2.8636,2.8888,0.0,3.0955,0.0,3.2396,3.3087,3.3071,3.3102,0.0,0.0,3.2787,3.2851,3.3074,3.3025,3.3073,3.3278,3.3852,3.4284,3.4478,3.502,3.5271,3.4958,3.4809,3.4736,3.4639,3.474,3.4874,3.4952,3.5618,3.6169,3.6188,3.668,3.7005,3.7029,3.72,3.7333,3.7354,3.7487,3.7621,3.7678,3.8212,3.8555,3.8613,3.9051,3.941,3.9369,3.8745,3.8319,3.8869,3.9071,3.9151,3.074,3.1106,3.1261,3.177,3.2468,3.2699,3.2957,3.3129,3.3316,3.3393,3.3393,3.3393,3.3393,3.3393,3.3393,3.3393,3.3393,3.3393,3.3393,3.3393,3.3393,3.3393,3.3393,3.3393,3.3393,3.3393,3.3393,3.3393,3.3393,3.3393,3.3393,3.3393,3.3393,3.3039,3.2378,3.2312,3.2576,3.305,3.3068,3.3178,3.3393,3.3393,3.3393,3.3393,3.3393,3.3393,3.3393,3.3393,3.3422,3.3433,3.3302,3.2922,3.2325,3.1787,3.1016,0.0,0.0,0.0,0.0,0.0,0.0,0.0,0.0,0.0,0.0,0.0,3.2044,3.2923,3.3593,3.3977,3.3977,3.3968,3.3819,3.3431,3.338,3.3552,3.3937,3.3902,3.4031,3.4419,3.4819,3.5061,3.51,3.5803,3.6251,3.6095,3.6389,3.6397,3.5933,3.6052,3.6301,3.6341,3.6721,3.7024,3.7024,3.7405,3.7689,3.7712,3.8019,3.8286,3.8285,3.861,3.8858,3.8897,3.926,3.9565,3.9603,3.9872,4.0176,4.0039,3.9634,3.9372,3.9566,3.9583,3.9546,3.0717,3.0883,3.1292,3.1734,3.2263,3.2818,3.2991,3.2876,3.3226,3.3393,3.3393,3.3393,3.3393,3.3393,3.3393,3.3447,3.3556,3.3556,3.361,3.3701,3.3701,3.3719,3.3719,3.3701,3.3701,3.3719,3.3719,3.3701,3.3701,3.3701,3.3701,3.3701,3.3719,3.3719,3.3701,3.361,3.352,3.3393,3.3393,3.3393,3.3393,3.3393,3.3393,3.3393,3.3393,3.3393,3.3393,3.3393,3.3393,3.3393,3.3742,3.3588,3.2822,3.2465,3.1951,0.0,2.9975,0.0,0.0,0.0,0.0,0.0,0.0,0.0,0.0,3.184,3.2663,3.439,3.4718,3.4828,3.4842,3.4837,3.4558,3.3832,3.3734,3.4022,3.4765,3.4798,3.5103,3.5953,3.6008,3.5993,3.6168,3.6809,3.7201,3.7063,3.7662,3.7844,3.7094,3.7292,3.7559,3.7693,3.7808,3.7922,3.8074,3.8113,3.8132,3.8169,3.8704,3.9165,3.9182,3.9755,4.0272,4.0272,4.0215,4.0272,4.0291,4.031,4.0253,4.0157,4.0059,3.9958,3.9762,3.9661,3.9602,3.1464,3.165,3.2093,3.2696,3.3424,3.4216,3.4008,3.3214,3.3292,3.3352,3.3393,3.3393,3.3393,3.3393,3.3393,3.3755,3.4371,3.4389,3.4733,3.5349,3.5367,3.5349,3.5367,3.5367,3.5349,3.5367,3.5349,3.5349,3.5349,3.5349,3.5349,3.5349,3.5349,3.5349,3.5331,0.0,0.0,0.0,3.3393,3.3393,3.3393,3.3393,3.3393,3.3393,3.3393,0.0,3.3393,3.3393,3.3393,3.3411,3.3535,0.0,0.0,0.0,0.0,0.0,0.0,0.0,0.0,0.0,0.0,0.0,3.2095,3.2178,3.2541,3.3262,3.4141,3.5164,3.5368,3.5474,3.5573,3.56,3.5572,3.5533,3.5502,3.5558,3.5662,3.5661,3.5968,3.6771,3.6883,3.712,3.775,3.808,3.8073,3.7918,3.856,3.8907,3.8569,3.8093,3.7731,3.7731,3.8343,3.901,3.9715,3.9734,3.9656,3.9902,3.9976,4.0091,4.0093,4.0208,4.0344,4.0326,4.0308,4.0309,4.031,4.0329,4.0291,4.0253,4.0176,4.0057,3.9889,3.9758,3.967,3.2193,0.0,3.2731,3.3124,0.0,3.4396,3.4482,3.4056,3.4335,3.4478,3.4588,3.4588,3.4588,3.4588,3.4588,3.4806,3.5204,3.5186,3.5421,3.5802,3.5802,3.5802,3.5802,3.5802,3.5802,3.5802,3.5802,3.5802,3.5802,3.5802,3.5802,3.5802,3.5802,3.5802,3.5802,3.5403,3.4606,3.3411,3.3393,3.3393,3.3393,3.3393,3.3393,3.3393,0.0,0.0,0.0,0.0,0.0,0.0,0.0,0.0,0.0,0.0,0.0,3.2627,3.2291,3.2146,3.2386,3.2492,3.2784,3.3303,3.3719,3.3792,3.3417,3.426,3.4982,3.5406,3.5531,3.564,3.5749,3.5764,3.5827,3.5929,3.5958,3.6068,3.6467,3.6543,3.6866,3.7608,3.7773,3.7946,3.8396,3.8821,3.8965,3.8903,3.9521,3.9907,3.9746,3.9308,3.899,3.9044,3.935,3.9809,4.0229,4.0342,4.0379,4.0379,4.0396,4.0413,4.0415,4.0398,4.0398,4.0362,4.0342,4.0344,4.0327,4.0309,4.031,4.031,4.0234,4.0195,4.0117,3.9933,3.9781,3.2895,3.2923,3.3345,3.3567,3.377,3.4545,3.5021,3.5243,0.0,0.0,0.0,3.5788,3.5788,3.577,3.5788,3.5892,3.6001,3.6019,3.6091,3.6218,3.6236,3.6236,3.6218,3.6236,3.6236,3.6236,3.6236,3.6236,3.6236,3.6236,3.6236,3.6236,3.6236,3.6164,3.6019,3.6019,3.5294,3.39,3.3828,3.3828,3.3821,3.381,3.3828,3.3846,3.3828,3.3828,3.3828,3.3828,3.3828,3.3828,3.3912,3.3996,3.4071,3.3464,3.3155,3.3258,3.2723,3.2456,3.2713,3.2824,3.327,3.4178,3.4808,3.4923,3.4254,3.4913,3.5364,3.535,3.5457,3.5557,3.5678,3.5851,3.5959,3.6114,3.6275,3.667,3.7327,3.7416,3.7752,3.8532,3.8677,3.8747,3.9006,3.9546,3.9906,3.9904,4.0275,4.0636,4.0516,4.0274,4.0172,4.0245,4.0245,4.036,4.0415,4.0415,4.0432,4.0413,4.043,4.0413,4.0413,4.0413,4.0413,4.0415,4.0415,4.0379,4.0325,4.0307,4.0308,4.031,4.031,4.0348,4.0444,4.0346,4.0201,3.3624,3.3686,3.4145,3.4692,3.5294,3.5796,3.6307,3.6726,3.6085,3.572,3.562,3.577,3.5738,3.562,3.577,3.6182,3.6798,3.6816,3.7196,0.0,3.7848,3.7848,3.7866,3.7848,3.7866,3.7866,3.7866,3.7848,3.7848,3.7848,3.7866,3.783,3.7866,3.7504,3.687,3.6816,3.6381,3.5512,3.5476,3.5471,3.546,3.5471,3.5476,3.5476,3.5439,3.5476,3.5476,3.5439,3.5476,3.5476,3.5538,3.5272,3.467,3.4779,3.4711,3.4285,3.437,3.4566,3.478,3.4797,3.4871,3.5018,3.5152,3.5152,3.5057,3.5149,3.5223,3.5242,3.5312,3.5369,3.5596,3.6317,3.6803,3.704,3.7668,3.8174,3.8307,3.8309,3.8652,3.951,3.9611,3.9883,4.0415,4.0676,4.0714,4.0699,4.0674,4.0662,4.0534,4.043,4.0398,4.0398,4.0398,4.0432,4.0466,4.0485,4.0482,4.0492,4.0473,4.0476,4.0476,4.0476,4.0476,4.0482,4.0466,4.0449,4.0415,4.0325,4.0345,4.0366,4.0405,4.0559,4.117,4.1303,4.1283,3.4386,3.4432,3.4618,3.4894,3.5224,3.5732,3.6232,3.6671,3.6335,3.6453,3.6818,3.6952,3.6952,3.6901,3.7054,3.7286,3.7649,3.7631,3.783,3.8174,3.8192,3.8192,3.8192,3.8192,3.8192,3.8192,3.8192,3.8192,3.8192,3.8192,3.8192,3.8192,3.8192,3.7993,3.7667,3.7649,3.7468,3.7087,3.6254,3.5806,3.5782,3.5792,3.5802,3.5802,3.5802,3.5802,3.5802,3.5802,3.5802,3.5802,3.5833,3.5745,3.5513,3.5553,3.5588,3.5645,3.568,3.5907,3.6312,3.6478,3.6566,3.6547,3.6566,3.6547,3.6566,3.6165,3.5897,3.5935,3.6298,3.6626,3.6826,3.7262,3.7607,3.7782,3.8222,3.8694,3.9101,3.9198,3.9549,4.0332,4.0506,4.0638,4.1003,4.1067,4.1061,4.0986,4.0863,4.0696,4.0621,4.0543,4.0444,4.0463,4.0463,4.046,4.0495,4.0495,4.0492,4.0489,4.0489,4.0489,4.0489,4.0489,4.0508,4.0492,4.0495,4.0479,4.0468,4.0432,4.0551,4.0958,4.1016,4.1342,4.1992,4.2507,4.2792,3.4899,3.4899,3.4899,3.4899,3.4947,3.5464,3.5873,3.6215,3.6364,3.6825,3.7485,3.7756,3.7862,3.7967,3.8122,3.8174,3.8174,3.8192,3.8192,3.8192,3.8192,3.8192,3.8192,3.8192,3.8192,3.8192,3.8192,3.8192,3.8192,3.8192,3.8192,3.8192,3.8192,3.8192,3.8192,3.8192,3.8192,3.8119,3.6979,3.6338,3.635,3.6338,3.6345,3.6345,3.6363,3.6345,3.6345,3.6345,3.6345,3.6363,3.6345,3.6381,3.6376,3.6255,3.6289,3.6586,3.653,3.6733,3.7251,3.7509,3.764,3.7693,3.7693,3.7693,3.7655,3.733,3.6967,3.6891,3.7273,3.7704,3.7843,3.8189,3.8457,3.8597,3.8902,3.9415,3.9967,4.0102,4.0324,4.0992,4.1105,4.1081,4.1104,4.1113,4.1085,4.1037,4.0928,4.0781,4.0699,4.0593,4.0504,4.0489,4.0489,4.0489,4.0489,4.0489,4.0489,4.0489,4.0489,4.0489,4.0489,4.0489,4.0489,4.0489,4.0489,4.0627,4.071,4.079,4.1102,4.1701,4.1895,4.2126,4.2889,4.3692,4.4206,3.4899,3.4899,3.4899,3.4899,3.4947,3.5391,3.5616,3.5705,3.6062,3.6256,3.6464,3.7079,3.7487,3.7757,3.802,3.8088,3.8036,3.814,3.8192,3.8192,3.8192,3.8192,3.8192,3.8192,3.8192,3.8192,3.8192,3.8192,3.8192,3.8192,3.8192,3.8192,3.8192,3.8192,3.8192,3.8192,3.8192,3.8192,3.8047,3.7975,3.7959,3.7975,3.7975,3.7975,3.7957,3.7957,3.7884,3.7975,3.7957,3.7957,3.792,3.7678,3.7103,3.7156,3.6967,3.6427,3.6645,3.6925,3.7272,3.7334,3.7528,3.7656,3.7789,3.7789,3.7808,3.8381,3.8419,3.7865,3.7693,3.7895,3.7939,3.873,3.9309,3.9481,4.0178,4.0896,4.0902,4.0979,4.101,4.1086,4.1113,4.1105,4.1114,4.1104,4.1074,4.1022,4.0906,4.0781,4.0692,4.0588,4.0489,4.0489,4.0489,4.0489,4.0489,4.0489,4.0489,4.0489,4.0489,4.0489,4.0489,4.0489,4.0508,4.0739,4.0604,4.0854,4.1415,4.1668,4.1884,4.2618,4.287,4.2986,4.3769,4.4513,4.497,3.4611,3.4899,3.4899,3.4899,3.4947,3.5102,3.5195,3.5178,3.5362,3.5571,3.5847,3.6197,3.6568,3.696,3.7451,3.7632,3.7614,3.8002,3.8192,3.8192,3.8192,3.8192,3.8192,3.8192,3.8192,3.8192,3.8192,3.8192,3.8192,3.8192,3.8192,3.8192,3.8192,3.8192,3.8192,3.8192,3.8192,3.8192,3.8192,3.8192,3.8192,3.8192,3.8192,3.8192,3.8192,3.8192,3.8192,3.8192,3.8192,3.8192,3.8192,3.808,3.7787,3.7812,3.782,3.7724,3.8066,3.8437,3.8828,3.8831,3.8952,3.9203,3.924,3.924,3.924,3.9584,3.9603,3.9317,3.9221,3.9276,3.9327,3.9758,4.0088,4.0289,4.0713,4.1023,4.1104,4.1111,4.1104,4.1105,4.1113,4.1108,4.1114,4.1108,4.1081,4.1037,4.0928,4.0791,4.0759,4.061,4.0504,4.0489,4.0489,4.0489,4.0489,4.0489,4.0489,4.0489,4.0489,4.0489,4.0527,4.0489,4.0623,4.1162,4.1258,4.1585,4.2431,4.2569,4.2763,4.3497,4.4192,4.444,4.4704,4.5029,4.5258,3.4497,3.4899,3.4899,3.4899,3.4899,3.4899,3.4899,3.4899,3.4899,3.5118,3.5407,3.5481,3.5671,3.6088,3.6907,3.7285,3.7323,3.7933,3.8174,3.814,3.8192,3.8192,3.8192,3.8192,3.8192,3.8192,3.8192,3.8192,3.8192,3.8192,3.8192,3.8192,3.8192,3.8192,3.8192,3.8192,3.8192,3.8192,3.8192,3.8192,3.8192,3.8192,3.8192,3.8192,3.8192,3.8192,3.8192,3.8192,3.8192,3.8192,3.8192,3.8192,3.8192,3.8192,3.8322,3.8566,3.8857,3.9197,3.9585,3.9632,3.9743,4.0057,4.0137,4.0176,4.0196,4.0253,4.031,4.0272,4.0329,4.0253,4.0329,4.043,4.0549,4.0642,4.0776,4.0954,4.1038,4.107,4.1109,4.1099,4.1111,4.1111,4.1116,4.1108,4.1108,4.1081,4.0955,4.0829,4.0791,4.0667,4.053,4.0504,4.0489,4.0489,4.0489,4.0489,4.0489,4.0489,4.0508,4.0585,4.0739,4.0854,4.1162,4.1931,4.2066,4.247,4.3201,4.347,4.3645,4.44,4.4978,4.5283,4.5223,4.5317,4.5297,3.4739,3.4899,3.4899,3.4899,3.4899,3.4899,3.4899,3.4899,3.4899,3.4947,3.4994,3.4977,3.4994,3.5148,3.6533,3.7228,3.7206,3.7828,3.8088,3.8036,3.814,3.8192,3.8192,3.8192,3.8192,3.8192,3.8192,3.8192,3.8192,3.8192,3.8192,3.8192,3.8192,3.8192,3.8192,3.8192,3.8192,3.8192,3.8192,3.8192,3.8192,3.8192,3.8192,3.8192,3.8192,3.8192,3.8192,3.8192,3.8192,3.8192,3.8192,3.8192,3.8192,3.8192,3.8241,3.8322,3.8354,3.8554,3.8943,3.9008,3.9163,3.9508,3.9785,3.9914,3.9935,4.0137,4.0253,4.0291,4.0291,4.031,4.031,4.0396,4.0489,4.0534,4.0742,4.0888,4.0917,4.1018,4.1089,4.1113,4.1101,4.1113,4.1114,4.1108,4.1108,4.1101,4.1028,4.094,4.0848,4.0757,4.0655,4.0564,4.0519,4.0504,4.0489,4.0489,4.0489,4.0681,4.0854,4.0873,4.1354,4.1835,4.2297,4.2701,4.2931,4.3335,4.397,4.4393,4.4626,4.4995,4.5189,4.54,4.5379,4.5338,4.5317,3.4102,3.4899,3.4899,3.4899,3.4899,3.4899,3.4899,3.4899,3.4899,3.4899,3.4899,3.4899,3.4899,3.4947,3.5856,3.6429,3.6746,3.7303,3.7756,3.8088,3.8088,3.8122,3.8192,3.8192,3.8192,3.8192,3.8192,3.8192,3.8192,3.8192,3.8192,3.8192,3.8192,3.8192,3.8192,3.8192,3.8192,3.8192,3.8192,3.8192,3.8192,3.8192,3.8192,3.8192,3.8192,3.8192,3.8192,3.8192,3.8192,3.8192,3.8192,3.8192,3.8192,3.8192,3.8207,3.8307,3.8307,3.8478,3.881,3.8915,3.9082,3.9458,3.9599,3.9628,3.9675,3.9892,4.0038,4.0077,4.0215,4.0291,4.031,4.0345,4.0413,4.0504,4.0655,4.0807,4.0907,4.1023,4.1109,4.1113,4.1105,4.1112,4.1099,4.1108,4.1108,4.1085,4.1033,4.0987,4.0933,4.0839,4.0726,4.0649,4.0615,4.0588,4.0504,4.0489,4.0604,4.1123,4.145,4.1854,4.2297,4.2566,4.297,4.3605,4.3855,4.4124,4.472,4.497,4.5241,4.5263,4.5438,4.5419,4.5418,4.5359,4.5317,3.3951,3.4851,3.4899,3.4899,3.4899,3.4899,3.4899,3.4899,3.4899,3.4899,3.4899,3.4899,3.4899,3.4977,3.5299,3.5742,3.6347,3.6925,3.7487,3.7933,3.802,3.8104,3.8192,3.8192,3.8192,3.8192,3.8192,3.8192,3.8192,3.8192,3.8192,3.8192,3.8192,3.8192,3.8192,3.8192,3.8192,3.8192,3.8192,3.8192,3.8192,3.8192,3.8192,3.8192,3.8192,3.8192,3.8192,3.8192,3.8192,3.8192,3.8192,3.8192,3.8192,3.8192,3.8207,3.8292,3.8274,3.8368,3.8658,3.8711,3.8857,3.9154,3.9324,3.9357,3.9383,3.9604,3.9785,3.9914,4.0038,4.0196,4.0291,4.0329,4.0346,4.0427,4.0545,4.0681,4.0809,4.0943,4.1046,4.109,4.1105,4.1112,4.1103,4.1114,4.1111,4.1108,4.1061,4.1042,4.0987,4.0914,4.0801,4.073,4.0713,4.0808,4.0958,4.1104,4.1123,4.1566,4.22,4.2662,4.3143,4.3393,4.3739,4.4393,4.4797,4.5047,4.5278,4.5509,4.5568,4.5531,4.5495,4.5438,4.5419,4.536,4.5319,3.4399,3.4899,3.4899,3.4899,3.4899,3.4899,3.4899,3.4899,3.4899,3.4899,3.4899,3.4899,3.4899,3.4883,3.4977,3.527,3.5933,3.6729,3.721,3.745,3.7863,3.8054,3.8072,3.8106,3.8192,3.8192,3.8192,3.8192,3.8192,3.8192,3.8192,3.8192,3.8192,3.8192,3.8192,3.8192,3.8192,3.8192,3.8192,3.8192,3.8192,3.8192,3.8192,3.8192,3.8192,3.8192,3.8192,3.8192,3.8192,3.8192,3.8192,3.8192,3.8192,3.8192,3.8192,3.8225,3.8192,3.8241,3.8322,3.8433,3.8491,3.8646,3.8902,3.9101,3.9129,3.935,3.9599,3.9826,3.9914,4.0017,4.0273,4.0329,4.031,4.0329,4.0444,4.0559,4.0694,4.0809,4.0957,4.1061,4.1119,4.1111,4.1112,4.1103,4.1116,4.1111,4.1104,4.107,4.1037,4.098,4.089,4.0798,4.0924,4.1177,4.1499,4.1835,4.1873,4.2047,4.2758,4.3355,4.397,4.4335,4.4547,4.5066,4.5182,4.5393,4.5393,4.5586,4.5586,4.5549,4.5513,4.5476,4.5438,4.54,4.5359,3.4739,3.4899,3.4899,3.4899,3.4899,3.4899,3.4899,3.4899,3.4899,3.4899,3.4899,3.4899,3.4899,3.4899,3.4899,3.5071,3.5379,3.5959,3.6487,3.6978,3.7094,3.7226,3.7376,3.7596,3.788,3.8158,3.8192,3.8192,3.8192,3.8192,3.8192,3.8192,3.8192,3.8192,3.8192,3.8192,3.8192,3.8192,3.8192,3.8192,3.8192,3.8192,3.8192,3.8192,3.8192,3.8192,3.8192,3.8192,3.8192,3.8192,3.8192,3.8192,3.8192,3.8192,3.8192,3.8192,3.8192,3.8223,3.8336,3.8401,3.8465,3.8609,3.8762,3.8792,3.8851,3.9073,3.935,3.9604,3.9785,4.0017,4.0234,4.0329,4.0329,4.0329,4.0411,4.0549,4.0694,4.0907,4.1046,4.11,4.1101,4.1103,4.1113,4.111,4.1105,4.1111,4.1108,4.1081,4.1074,4.1066,4.1028,4.0945,4.1266,4.1745,4.2209,4.2802,4.3196,4.3243,4.3692,4.4066,4.4662,4.5009,4.5259,4.5413,4.5528,4.5586,4.5586,4.5586,4.5586,4.5586,4.555,4.5514,4.5476,4.5438,4.538,3.4036,3.4251,3.4529,3.448,3.4366,3.4691,3.4787,3.4643,3.4851,3.4899,3.4899,3.4899,3.4899,3.4899,3.4899,3.4994,3.5182,3.5362,3.5776,3.6374,3.6661,3.6741,3.69,3.7132,3.7505,3.788,3.7933,3.8072,3.8192,3.8192,3.8192,3.8192,3.8192,3.8192,3.8192,3.8192,3.8192,3.8192,3.8192,3.8192,3.8192,3.8192,3.8192,3.8192,3.8192,3.8192,3.8192,3.8192,3.8192,3.8192,3.8192,3.8192,3.8192,3.8192,3.8192,3.8192,3.8207,3.8274,3.8336,3.8433,3.8496,3.8609,3.8658,3.8707,3.8719,3.8881,3.9073,3.9324,3.958,3.987,4.0098,4.0253,4.0291,4.0329,4.0344,4.0523,4.0668,4.0878,4.1025,4.1081,4.1105,4.1116,4.1111,4.1111,4.1108,4.1114,4.1108,4.1108,4.1108,4.1108,4.1163,4.1362,4.1777,4.2335,4.2997,4.3712,4.4457,4.4611,4.4778,4.4963,4.5297,4.5355,4.5509,4.5509,4.5586,4.5586,4.5586,4.5586,4.5586,4.5568,4.5568,4.555,4.5514,4.5438,4.54,3.261,3.3251,3.3815,3.3748,3.3459,3.4301,3.448,3.425,3.4611,3.4868,3.4899,3.4899,3.4899,3.4899,3.4947,3.5041,3.5245,3.5088,3.5258,3.5766,3.6207,3.6563,3.6781,3.6878,3.7094,3.7432,3.7469,3.7685,3.7951,3.7985,3.8124,3.802,3.8003,3.8106,3.7985,3.8106,3.8038,3.7985,3.8072,3.8106,3.8072,3.8192,3.8158,3.814,3.8192,3.8192,3.8192,3.8192,3.8192,3.8192,3.8192,3.8192,3.8192,3.8192,3.8225,3.8225,3.8274,3.8289,3.8354,3.8433,3.8491,3.8559,3.8658,3.8707,3.8707,3.8719,3.8881,3.9129,3.9331,3.958,3.9892,4.0098,4.0253,4.031,4.0346,4.0463,4.0675,4.0818,4.0952,4.1059,4.1086,4.1101,4.1105,4.1112,4.1103,4.1114,4.1111,4.1108,4.1108,4.1202,4.1519,4.1886,4.2286,4.3016,4.3695,4.4408,4.5098,4.5235,4.5374,4.5476,4.5596,4.5601,4.5586,4.5586,4.5586,4.5586,4.5586,4.5586,4.5586,4.5586,4.5568,4.5568,4.5532,4.5457,4.5419,3.3039,3.3251,3.3355,3.3355,3.3251,3.3563,3.385,3.4101,3.4248,3.4562,3.482,3.4899,3.4899,3.4899,3.4994,3.5105,3.5152,3.5105,3.5182,3.5475,3.5577,3.5985,3.635,3.6451,3.6661,3.6999,3.7055,3.7132,3.7208,3.7301,3.7301,3.7246,3.7301,3.7246,3.7264,3.7301,3.7264,3.7301,3.7559,3.7523,3.7413,3.7916,3.8002,3.7721,3.8002,3.8192,3.8192,3.8192,3.8192,3.8192,3.8192,3.8192,3.8225,3.8259,3.8274,3.8256,3.8354,3.8382,3.8446,3.8478,3.8541,3.864,3.8658,3.8707,3.8707,3.8707,3.884,3.9064,3.921,3.9401,3.9785,3.9975,4.0098,4.0272,4.0363,4.046,4.0559,4.0754,4.0917,4.0952,4.1032,4.1091,4.1108,4.1105,4.1113,4.1108,4.1099,4.1111,4.1111,4.1303,4.1624,4.228,4.2822,4.3669,4.4437,4.5143,4.5608,4.5703,4.5766,4.5699,4.5713,4.5648,4.5618,4.5586,4.5586,4.5586,4.5586,4.5586,4.5586,4.5586,4.5586,4.5586,4.5568,4.5532,4.5457,3.2407,3.2516,3.2788,3.2734,3.2571,3.2986,3.3423,3.3713,3.3998,3.4415,3.4804,3.4899,3.4899,3.4947,3.5041,3.5135,3.5198,3.5198,3.5321,3.552,3.5503,3.565,3.5958,3.6002,3.6241,3.6597,3.6638,3.6759,3.69,3.69,3.69,3.6939,3.69,3.69,3.6939,3.69,3.69,3.6939,3.7132,3.7114,3.6978,3.7376,3.745,3.7358,3.7685,3.7967,3.814,3.802,3.7985,3.8158,3.8192,3.8225,3.8241,3.8274,3.8289,3.8354,3.8401,3.8446,3.851,3.8559,3.8609,3.8707,3.8707,3.8707,3.8707,3.8707,3.881,3.891,3.9042,3.923,3.9521,3.9762,4.0017,4.0253,4.0381,4.0447,4.0489,4.0681,4.0809,4.0917,4.1023,4.1109,4.1105,4.1101,4.1103,4.1113,4.1108,4.1101,4.1133,4.1423,4.1908,4.2659,4.3533,4.4412,4.5045,4.5696,4.5889,4.601,4.5985,4.5949,4.5835,4.5723,4.5668,4.5637,4.562,4.5603,4.562,4.562,4.5586,4.5586,4.5586,4.5586,4.5586,4.555,4.5495,3.1409,3.1524,3.2064,3.2023,3.1739,3.2571,3.2986,3.3198,3.3594,3.4217,3.4773,3.4837,3.482,3.4899,3.5088,3.5198,3.5291,3.5308,3.5412,3.5549,3.5577,3.5667,3.5667,3.5711,3.5888,3.6174,3.6216,3.6409,3.6557,3.6661,3.6701,3.662,3.6661,3.6741,3.662,3.6661,3.6741,3.6701,3.6781,3.6741,3.6701,3.6843,3.6978,3.6939,3.7246,3.7613,3.7774,3.7685,3.7613,3.802,3.814,3.8241,3.8307,3.8307,3.8354,3.8401,3.8478,3.851,3.8559,3.8658,3.8707,3.8707,3.8707,3.8707,3.8707,3.8707,3.8689,3.875,3.8921,3.9058,3.921,3.9561,3.9958,4.0177,4.0253,4.0363,4.0476,4.0607,4.073,4.0859,4.1007,4.1078,4.1106,4.1111,4.1115,4.1108,4.1113,4.111,4.1316,4.1699,4.2399,4.3313,4.4227,4.5184,4.5711,4.6214,4.623,4.6221,4.6153,4.6079,4.5908,4.5815,4.5742,4.5684,4.5635,4.5635,4.5651,4.5654,4.562,4.5586,4.5586,4.5586,4.5586,4.5531,4.5495,3.1467,3.1524,3.164,3.164,3.1524,3.1796,3.216,3.2586,3.271,3.3623,3.4543,3.4462,3.453,3.4851,3.5041,3.5291,3.5291,3.5354,3.5492,3.552,3.5577,3.5577,3.5639,3.5639,3.5667,3.58,3.5739,3.5827,3.5898,3.5985,3.5915,3.5941,3.6028,3.5915,3.5941,3.6028,3.5898,3.5958,3.6241,3.6241,3.6139,3.6539,3.6719,3.6533,3.6838,3.7055,3.715,3.7094,3.7094,3.7321,3.7792,3.8189,3.8256,3.8368,3.8446,3.8496,3.8578,3.8658,3.8658,3.8658,3.8707,3.8707,3.8707,3.8707,3.8707,3.8707,3.8707,3.8707,3.8744,3.8907,3.9109,3.9585,3.9878,4.0024,4.0196,4.0329,4.0364,4.046,4.0602,4.0718,4.0859,4.0988,4.1078,4.1103,4.1106,4.1111,4.1108,4.1113,4.146,4.1919,4.2776,4.3671,4.4689,4.5545,4.5929,4.63,4.63,4.63,4.6261,4.6167,4.6024,4.5906,4.5829,4.5737,4.5668,4.5684,4.5712,4.5671,4.5637,4.562,4.5586,4.5586,4.5586,4.5531,4.5475,3.1467,3.1467,3.1467,3.1467,3.1467,3.1524,3.1853,3.2342,3.2391,3.3011,3.3854,3.379,3.3864,3.4152,3.461,3.4866,3.5008,3.535,3.5566,3.5566,3.5594,3.5622,3.5639,3.5639,3.5639,3.5639,3.5622,3.5639,3.5639,3.5639,3.5667,3.5639,3.5639,3.5667,3.5639,3.5639,3.5622,3.5667,3.5827,3.5827,3.5739,3.6011,3.6392,3.6241,3.6367,3.6433,3.686,3.6719,3.6759,3.6978,3.7395,3.7827,3.8086,3.8318,3.8478,3.8609,3.8658,3.8707,3.8707,3.8707,3.8707,3.8707,3.8707,3.8707,3.8707,3.8707,3.8707,3.8707,3.8719,3.8803,3.9082,3.9421,3.969,3.9924,4.0139,4.0291,4.0329,4.043,4.0519,4.0629,4.0796,4.0907,4.0988,4.1057,4.1114,4.1117,4.1108,4.1146,4.1562,4.2086,4.296,4.3915,4.4989,4.5768,4.6088,4.63,4.63,4.63,4.628,4.6201,4.6072,4.5998,4.5928,4.5847,4.5775,4.5752,4.578,4.5712,4.5671,4.562,4.5603,4.5603,4.5568,4.5513,4.5457,3.1467,3.1467,3.1467,3.1467,3.1467,3.1524,3.1739,3.2176,3.2287,3.2446,3.2924,3.3045,3.3082,3.3144,3.3953,3.4333,3.4673,3.5224,3.5594,3.5594,3.5594,3.5639,3.5639,3.5639,3.5639,3.5639,3.5639,3.5639,3.5639,3.5639,3.5639,3.5639,3.5639,3.5639,3.5639,3.5639,3.5639,3.5622,3.5667,3.5667,3.5622,3.5694,3.5871,3.6002,3.5915,3.5985,3.6392,3.635,3.6308,3.6684,3.6825,3.7135,3.7542,3.8083,3.8465,3.8627,3.8658,3.8707,3.8707,3.8707,3.8707,3.8707,3.8707,3.8707,3.8707,3.8707,3.8707,3.8707,3.8719,3.878,3.9017,3.9272,3.9556,3.9791,4.0059,4.0234,4.031,4.0415,4.0479,4.0534,4.0655,4.0784,4.0907,4.0988,4.1052,4.1115,4.1105,4.128,4.1732,4.2383,4.3281,4.4196,4.529,4.5868,4.6209,4.63,4.63,4.63,4.63,4.6245,4.615,4.6131,4.6068,4.5959,4.5908,4.5863,4.5835,4.5789,4.5723,4.5632,4.5603,4.5586,4.555,4.5495,4.5457,3.1467,3.1467,3.1467,3.1467,3.1467,3.1467,3.1582,3.164,3.1682,3.1728,3.1888,3.2392,3.2353,3.2332,3.3387,3.4202,3.4738,3.527,3.5577,3.5577,3.5639,3.5639,3.5639,3.5639,3.5639,3.5639,3.5639,3.5639,3.5639,3.5639,3.5639,3.5639,3.5639,3.5639,3.5639,3.5639,3.5639,3.5639,3.5639,3.5639,3.5639,3.5622,3.5622,3.58,3.5667,3.5739,3.5783,3.5783,3.5739,3.5854,3.6199,3.6474,3.6843,3.7506,3.8032,3.8382,3.8496,3.8515,3.8627,3.8658,3.8707,3.8707,3.8707,3.8707,3.8707,3.8707,3.8707,3.8707,3.8707,3.8719,3.8762,3.9045,3.9275,3.9534,3.9816,4.0077,4.0234,4.0328,4.0398,4.0476,4.0564,4.0642,4.0784,4.0907,4.1003,4.1058,4.1086,4.1495,4.2067,4.2841,4.3745,4.4667,4.5605,4.5991,4.6287,4.6303,4.63,4.63,4.63,4.63,4.6245,4.6273,4.6211,4.6098,4.6013,4.5969,4.5919,4.5883,4.5829,4.5766,4.568,4.5603,4.5549,4.5512,4.5458,3.1467,3.1467,3.1467,3.1467,3.1467,3.1467,3.1467,3.1467,3.1524,3.1492,3.1573,3.186,3.1942,3.205,3.2776,3.3834,3.469,3.5021,3.5333,3.5532,3.5639,3.5639,3.5639,3.5639,3.5639,3.5639,3.5639,3.5639,3.5639,3.5639,3.5639,3.5639,3.5639,3.5639,3.5639,3.5639,3.5639,3.5639,3.5639,3.5639,3.5639,3.5639,3.5639,3.5639,3.5639,3.5639,3.5639,3.5639,3.5622,3.5667,3.5827,3.6071,3.6433,3.6803,3.7342,3.7773,3.7964,3.8135,3.8336,3.8401,3.8483,3.8658,3.8707,3.8707,3.8707,3.8707,3.8707,3.8707,3.8707,3.8707,3.8719,3.895,3.9127,3.9327,3.9614,3.9895,4.0058,4.0215,4.0309,4.0396,4.0492,4.0579,4.0662,4.0784,4.0907,4.1003,4.1052,4.1652,4.2353,4.3123,4.3957,4.4931,4.5739,4.6055,4.628,4.6306,4.6306,4.6306,4.63,4.63,4.63,4.63,4.6277,4.6236,4.6144,4.6072,4.6041,4.5998,4.5938,4.5879,4.5794,4.5712,4.5613,4.5528,4.5476,3.1467,3.1467,3.1467,3.1467,3.1467,3.1467,3.1539,3.1539,3.1539,3.1495,3.1537,3.1625,3.1772,3.1989,3.2594,3.3407,3.4464,3.4512,3.4927,3.5333,3.5379,3.5424,3.5577,3.5639,3.5639,3.5639,3.5639,3.5639,3.5639,3.5639,3.5639,3.5639,3.5639,3.5639,3.5639,3.5639,3.5639,3.5639,3.5639,3.5639,3.5639,3.5639,3.5639,3.5639,3.5639,3.5639,3.5639,3.5639,3.5639,3.5639,3.5667,3.5783,3.6071,3.6224,3.6481,3.6925,3.7155,3.7542,3.7826,3.8,3.8135,3.8483,3.8546,3.8596,3.8707,3.8707,3.8707,3.8707,3.8707,3.8707,3.8719,3.8881,3.9017,3.9192,3.9464,3.9785,3.9935,4.0077,4.0196,4.029,4.0394,4.0473,4.0564,4.0629,4.0773,4.0945,4.1003,4.189,4.2571,4.3117,4.3958,4.5012,4.5751,4.607,4.6269,4.6293,4.6293,4.6295,4.6287,4.63,4.63,4.63,4.6277,4.6273,4.6273,4.6211,4.6176,4.6105,4.6024,4.5959,4.5891,4.5789,4.5673,4.5577,4.5493,3.1467,3.1467,3.1467,3.1467,3.1467,3.1467,3.1597,3.1727,3.1597,3.1477,3.1543,3.1792,3.1796,3.1879,3.2437,3.2986,3.3511,3.3919,3.4431,3.4927,3.4975,3.5207,3.5515,3.5622,3.5639,3.5639,3.5639,3.5639,3.5639,3.5639,3.5639,3.5639,3.5639,3.5639,3.5639,3.5639,3.5639,3.5639,3.5639,3.5639,3.5639,3.5639,3.5639,3.5639,3.5639,3.5639,3.5639,3.5639,3.5639,3.5639,3.5639,3.5622,3.5667,3.5694,3.5739,3.6182,3.6706,3.7396,3.7506,3.756,3.7756,3.8101,3.8219,3.8368,3.8596,3.8707,3.8707,3.8707,3.8707,3.8707,3.8707,3.8719,3.8881,3.9017,3.9192,3.9508,3.9739,3.9954,4.0098,4.0196,4.029,4.0394,4.0473,4.0549,4.0615,4.0796,4.114,4.2027,4.2948,4.363,4.4267,4.5358,4.5843,4.6131,4.6221,4.6269,4.6284,4.6285,4.6297,4.6306,4.63,4.63,4.63,4.63,4.63,4.63,4.6245,4.6181,4.6105,4.6049,4.5988,4.5871,4.5713,4.5607,4.5543,3.1409,3.1467,3.1467,3.1467,3.1467,3.1467,3.1612,3.1727,3.1597,3.1477,3.1528,3.1751,3.1853,3.1977,3.2312,3.2749,3.3145,3.3459,3.402,3.4625,3.4816,3.5085,3.5487,3.5639,3.5639,3.5639,3.5639,3.5639,3.5639,3.5639,3.5639,3.5639,3.5639,3.5639,3.5639,3.5639,3.5639,3.5639,3.5639,3.5639,3.5639,3.5639,3.5639,3.5639,3.5639,3.5639,3.5639,3.5639,3.5639,3.5639,3.5639,3.5639,3.5639,3.5622,3.5711,3.5932,3.6266,3.6689,3.6932,3.7023,3.7377,3.7844,3.8016,3.8183,3.8546,3.8707,3.8707,3.8707,3.8707,3.8707,3.8707,3.8707,3.875,3.8851,3.9007,3.9183,3.9477,3.9804,3.9975,4.0098,4.0196,4.029,4.0377,4.0457,4.0554,4.0706,4.1291,4.2267,4.3447,4.4589,4.5214,4.5891,4.6103,4.6192,4.6214,4.6219,4.6269,4.6289,4.6306,4.63,4.6303,4.63,4.6303,4.6303,4.63,4.63,4.63,4.6269,4.6211,4.615,4.6105,4.5969,4.584,4.5699,4.561,3.1029,3.1292,3.1409,3.1467,3.1467,3.1467,3.1655,3.1841,3.1612,3.1534,3.1671,3.1849,3.2038,3.2191,3.2231,3.2492,3.2949,3.2986,3.3547,3.4153,3.4609,3.4864,3.527,3.5424,3.5639,3.5622,3.5639,3.5639,3.5639,3.5639,3.5639,3.5639,3.5639,3.5639,3.5639,3.5639,3.5639,3.5639,3.5639,3.5639,3.5639,3.5639,3.5639,3.5639,3.5639,3.5639,3.5639,3.5639,3.5639,3.5639,3.5639,3.5639,3.5639,3.5667,3.5711,3.5888,3.6045,3.6172,3.6394,3.6574,3.7017,3.7504,3.805,3.8281,3.8578,3.8707,3.8707,3.8707,3.8707,3.8707,3.8707,3.8707,3.8738,3.878,3.8881,3.8979,3.9129,3.9452,3.9781,3.9975,4.0098,4.0196,4.029,4.0377,4.0499,4.0635,4.139,4.2466,4.3802,4.5187,4.5714,4.6183,4.6196,4.6203,4.6201,4.621,4.6254,4.6265,4.6269,4.6287,4.628,4.6293,4.6293,4.629,4.6287,4.63,4.63,4.63,4.63,4.6245,4.6176,4.6091,4.5959,4.5815,4.5654,3.0011,3.0644,3.1204,3.1467,3.1467,3.1467,3.1712,3.194,3.1655,3.1736,3.1967,3.2099,3.2216,3.2287,3.2287,3.2342,3.2508,3.2453,3.2949,3.3391,3.3818,3.4317,3.4816,3.5224,3.5532,3.5532,3.5577,3.5639,3.5639,3.5639,3.5639,3.5639,3.5639,3.5639,3.5639,3.5639,3.5639,3.5639,3.5639,3.5639,3.5639,3.5639,3.5639,3.5639,3.5639,3.5639,3.5639,3.5639,3.5639,3.5639,3.5639,3.5639,3.5622,3.5667,3.5711,3.58,3.5932,3.602,3.6096,3.6232,3.6613,3.7249,3.79,3.8364,3.8546,3.8658,3.8707,3.8707,3.8707,3.8707,3.8707,3.8707,3.8707,3.8738,3.878,3.8851,3.8979,3.9129,3.9452,3.9804,3.9954,4.0017,4.0138,4.0215,4.0362,4.0504,4.1651,4.2731,4.4198,4.5483,4.5846,4.6189,4.6196,4.6203,4.6209,4.622,4.623,4.6228,4.6239,4.6249,4.6268,4.6286,4.6285,4.6278,4.6278,4.629,4.63,4.6303,4.6303,4.63,4.6245,4.617,4.6033,4.5875,4.5722,2.958,2.995,3.0584,3.1102,3.1467,3.1467,3.1697,3.194,3.1784,3.1853,3.217,3.2256,3.2327,3.2398,3.2342,3.2342,3.2398,3.2398,3.2749,3.3093,3.3511,3.3818,3.4317,3.4785,3.5085,3.5178,3.5379,3.5639,3.5639,3.5577,3.5577,3.5639,3.5577,3.5639,3.5639,3.5577,3.556,3.5577,3.5577,3.5577,3.5639,3.5639,3.5639,3.5639,3.5639,3.5639,3.5639,3.5639,3.5639,3.5639,3.5639,3.5639,3.5622,3.5667,3.5728,3.58,3.5932,3.5985,3.6011,3.6045,3.6225,3.6869,3.765,3.8267,3.8336,3.8515,3.8658,3.8707,3.8658,3.8627,3.8676,3.8707,3.8707,3.8707,3.8719,3.878,3.8851,3.8979,3.9129,3.9502,3.9647,3.9781,3.9892,4.0038,4.0196,4.0441,4.1731,4.3069,4.4544,4.5578,4.591,4.613,4.6146,4.6189,4.6196,4.6203,4.6201,4.6201,4.6199,4.6217,4.6247,4.6229,4.623,4.6249,4.6265,4.6282,4.6297,4.629,4.6303,4.63,4.6277,4.6221,4.6084,4.5949,4.5783,2.8917,2.9268,2.9704,3.0404,3.1161,3.1219,3.1452,3.1697,3.1582,3.1811,3.2191,3.2342,3.2398,3.2398,3.2398,3.2398,3.2398,3.2453,3.2656,3.2895,3.3145,3.3407,3.3818,3.4235,3.4577,3.4673,3.5068,3.5316,3.5333,3.5362,3.5333,3.5333,3.5379,3.5424,3.5577,3.5424,3.5374,3.5335,3.5191,3.5115,3.5085,3.5085,3.5224,3.5224,3.5131,3.5333,3.5379,3.5424,3.5424,3.5532,3.5639,3.5639,3.5622,3.5667,3.5756,3.5844,3.5975,3.6036,3.601,3.6114,3.6147,3.6741,3.7303,3.7756,3.8,3.8186,3.8219,3.8285,3.8368,3.8515,3.8515,3.8578,3.8658,3.8707,3.8707,3.875,3.878,3.8851,3.8989,3.9192,3.9324,3.9521,3.9924,4.0214,4.0993,4.1399,4.2597,4.3792,4.4866,4.5641,4.5847,4.6017,4.6075,4.6119,4.6176,4.619,4.6203,4.6209,4.6211,4.621,4.6206,4.6212,4.6202,4.6229,4.625,4.6289,4.6307,4.6301,4.6293,4.6303,4.6277,4.6249,4.6201,4.606,4.5908,2.796,2.8481,2.8597,2.9345,3.0389,3.0524,3.0822,3.1219,3.1087,3.1422,3.2206,3.2358,3.2398,3.2398,3.2398,3.2398,3.2398,3.2398,3.2453,3.2602,3.2895,3.3145,3.3407,3.3716,3.4052,3.4136,3.4431,3.4719,3.4833,3.4833,3.4833,3.4816,3.4816,3.5038,3.5487,3.5068,3.4838,3.4743,3.4349,3.4252,3.4249,3.4267,3.448,3.4625,3.448,3.4673,3.5021,3.4975,3.5021,3.5379,3.5424,3.547,3.5577,3.5667,3.5711,3.5667,3.5888,3.5932,3.5844,3.617,3.6377,3.6586,3.702,3.734,3.7451,3.7596,3.7685,3.7861,3.7949,3.8119,3.8252,3.8433,3.8546,3.8707,3.8707,3.8707,3.8719,3.875,3.8862,3.8931,3.9045,3.9293,3.984,4.0476,4.1613,4.2526,4.3597,4.453,4.5293,4.5619,4.5769,4.5879,4.5956,4.6056,4.6119,4.6189,4.6203,4.6203,4.6196,4.6201,4.6216,4.6206,4.6202,4.6198,4.6223,4.6245,4.6269,4.6287,4.6301,4.6293,4.6303,4.6273,4.6236,4.6164,4.6026,2.759,2.7842,2.8287,2.8725,2.9219,2.9642,3.0147,3.0703,3.119,3.1724,3.2231,3.2398,3.2398,3.2398,3.2398,3.2398,3.2398,3.2398,3.2398,3.2453,3.2641,3.2641,3.2857,3.3261,3.3575,3.3582,3.3806,3.4121,3.4284,3.4268,3.4268,3.4268,3.4268,3.4577,3.4785,3.4577,3.4284,3.4219,3.407,3.4011,3.398,3.3989,3.4036,3.4219,3.402,3.4169,3.4577,3.4382,3.4577,3.5021,3.5115,3.527,3.5532,3.5684,3.5684,3.5728,3.5861,3.5905,3.5888,3.6037,3.6079,3.6333,3.6603,3.6921,3.7076,3.7381,3.7453,3.7505,3.7576,3.7775,3.8104,3.8186,3.8336,3.8627,3.8707,3.8707,3.8707,3.8707,3.875,3.8762,3.8851,3.9396,3.9954,4.0979,4.2115,4.2908,4.3864,4.4518,4.5247,4.5453,4.5607,4.5713,4.5815,4.5956,4.6047,4.6111,4.6189,4.6203,4.6203,4.6209,4.6203,4.6215,4.6201,4.6197,4.6214,4.6206,4.6241,4.6268,4.6288,4.6301,4.6293,4.628,4.6245,4.6215,4.6127,2.7469,2.7536,2.7973,2.817,2.8287,2.8903,2.9456,3.0086,3.1014,3.1724,3.212,3.2287,3.2398,3.2398,3.2398,3.2398,3.2398,3.2398,3.2398,3.2398,3.2398,3.2453,3.2633,3.2866,3.2942,3.3008,3.326,3.3553,3.37,3.3716,3.37,3.3649,3.3563,3.3716,3.3903,3.3853,3.3721,3.3673,3.3518,3.3319,3.3347,3.3398,3.3511,3.3614,3.3563,3.363,3.3834,3.3986,3.4086,3.4512,3.4816,3.5021,3.5424,3.5622,3.5639,3.5728,3.5773,3.5817,3.5844,3.58,3.5871,3.6045,3.6308,3.6498,3.6661,3.6872,3.6988,3.7055,3.7214,3.7403,3.7648,3.7757,3.8068,3.8368,3.8483,3.8483,3.8676,3.8676,3.8658,3.8689,3.8848,3.9453,4.0306,4.1492,4.2655,4.3326,4.403,4.4595,4.5123,4.5304,4.5455,4.5577,4.5688,4.5815,4.5956,4.6066,4.613,4.6189,4.6196,4.6189,4.6203,4.6216,4.6203,4.6196,4.6209,4.6197,4.6199,4.6217,4.6249,4.6267,4.6256,4.6245,4.6253,4.6215,4.6154,2.7497,2.751,2.7523,2.7536,2.7656,2.8287,2.8853,2.9421,3.0464,3.1263,3.1682,3.2104,3.2231,3.2342,3.2342,3.2398,3.2398,3.2398,3.2398,3.2398,3.2398,3.2398,3.2398,3.2508,3.2563,3.2656,3.2826,3.3098,3.3198,3.3198,3.3198,3.3093,3.2857,3.3002,3.313,3.3219,3.3176,3.3077,3.2908,3.2773,3.2741,3.2624,3.2841,3.2949,3.2949,3.3108,3.3319,3.3459,3.3802,3.4202,3.4657,3.5021,3.5316,3.556,3.5577,3.5622,3.5622,3.5711,3.5773,3.5684,3.5817,3.5975,3.6079,3.6148,3.6326,3.6481,3.6563,3.662,3.6748,3.6864,3.6992,3.7329,3.7667,3.7879,3.8068,3.8271,3.8533,3.8627,3.8627,3.8713,3.8872,3.9473,4.067,4.1874,4.2931,4.3563,4.4128,4.4573,4.503,4.5239,4.54,4.5456,4.5577,4.5669,4.5815,4.5914,4.6037,4.6102,4.6146,4.6146,4.6162,4.6196,4.6196,4.6196,4.6196,4.6203,4.6211,4.6206,4.6207,4.6211,4.6225,4.6218,4.6236,4.6203,4.6127,2.6922,2.6961,2.7353,2.7469,2.759,2.8249,2.8894,2.9373,3.0176,3.0792,3.1204,3.1306,3.1652,3.1894,3.191,3.212,3.2287,3.2398,3.2398,3.2398,3.2398,3.2398,3.2398,3.2398,3.2398,3.2453,3.2602,3.2695,3.2641,3.2641,3.2695,3.2602,3.2492,3.2532,3.2586,3.2656,3.2656,3.2625,3.2501,3.2422,3.2398,3.2398,3.2532,3.2547,3.2547,3.2765,3.2803,3.2857,3.3145,3.3547,3.37,3.4053,3.4975,3.5021,3.5131,3.5577,3.5622,3.5639,3.5667,3.5711,3.58,3.5993,3.6079,3.6208,3.6259,3.6284,3.6284,3.6367,3.6451,3.6589,3.6765,3.7027,3.7321,3.7505,3.7739,3.8,3.8252,3.8483,3.8551,3.897,3.9129,4.0115,4.1261,4.2112,4.3096,4.3726,4.4242,4.4587,4.4887,4.5087,4.5298,4.5381,4.5456,4.556,4.5623,4.5708,4.5859,4.5988,4.6018,4.6074,4.6146,4.6181,4.6196,4.6196,4.6196,4.6203,4.6216,4.6201,4.6212,4.6207,4.6211,4.6209,4.6195,4.6157,4.6119,2.6347,2.6412,2.6961,2.7314,2.7643,2.8444,2.8894,2.9198,2.9946,3.0507,3.0836,3.097,3.1102,3.1275,3.1564,3.1838,3.212,3.2342,3.2398,3.2398,3.2398,3.2398,3.2398,3.2398,3.2398,3.2398,3.2398,3.2508,3.2398,3.2398,3.2453,3.2453,3.2398,3.2398,3.2453,3.2453,3.2453,3.2437,3.2398,3.2398,3.2398,3.2398,3.2398,3.2398,3.2398,3.2398,3.2398,3.2398,3.2695,3.3093,3.3198,3.3614,3.4366,3.4529,3.4545,3.4927,3.5131,3.5178,3.527,3.556,3.5756,3.5888,3.6079,3.6165,3.6233,3.6259,3.6284,3.6326,3.6343,3.6402,3.6533,3.6719,3.6978,3.7208,3.7469,3.7685,3.7948,3.8252,3.8688,3.9195,3.9974,4.0946,4.1816,4.2567,4.3187,4.3762,4.4098,4.4308,4.4617,4.4887,4.5109,4.53,4.5361,4.5457,4.5509,4.5555,4.5694,4.5822,4.584,4.5917,4.6065,4.6138,4.6138,4.6174,4.6196,4.6203,4.6203,4.6203,4.6197,4.6209,4.6209,4.6202,4.6177,4.6142,4.6102,2.5759,2.5811,2.6489,2.7053,2.7564,2.8597,2.8894,2.878,2.9761,3.0294,3.0444,3.0702,3.063,3.0587,3.1042,3.148,3.1724,3.2064,3.2231,3.2342,3.2382,3.2398,3.2398,3.2398,3.2398,3.2398,3.2398,3.2398,3.2398,3.2398,3.2398,3.2398,3.2398,3.2398,3.2398,3.2398,3.2398,3.2398,3.2398,3.2398,3.2398,3.2398,3.2398,3.2398,3.2398,3.2398,3.2398,3.2492,3.2641,3.2949,3.3198,3.3355,3.3716,3.4084,3.4084,3.4284,3.4673,3.488,3.5068,3.5424,3.5667,3.58,3.5932,3.6079,3.6191,3.6259,3.6284,3.6284,3.6301,3.6343,3.6451,3.6492,3.6638,3.6838,3.7017,3.7283,3.7578,3.8217,3.9181,3.9786,4.0726,4.1662,4.2411,4.3096,4.3291,4.3786,4.3955,4.4072,4.4289,4.4591,4.4862,4.5109,4.5178,4.5262,4.54,4.5473,4.5558,4.5634,4.5694,4.5777,4.5906,4.5988,4.6066,4.613,4.6196,4.6196,4.6203,4.6196,4.6201,4.6199,4.6205,4.619,4.616,4.6131,4.6074,2.5171,2.5336,2.6559,2.701,2.713,2.8461,2.8908,2.8651,2.9415,2.9803,2.9865,2.9898,2.9954,2.9992,3.0466,3.0911,3.1248,3.161,3.1838,3.2007,3.216,3.2327,3.2398,3.2398,3.2398,3.2398,3.2398,3.2398,3.2398,3.2398,3.2398,3.2398,3.2398,3.2398,3.2398,3.2398,3.2398,3.2398,3.2398,3.2398,3.2398,3.2398,3.2398,3.2398,3.2398,3.2398,3.2398,3.2453,3.2492,3.2586,3.2586,3.2895,3.3339,3.3722,3.3928,3.4068,3.4366,3.4625,3.4911,3.527,3.5667,3.5861,3.5949,3.6096,3.6208,3.6276,3.6301,3.6284,3.6284,3.6284,3.6284,3.6284,3.6343,3.6451,3.6655,3.6956,3.7281,3.8402,3.9553,4.0525,4.1464,4.2194,4.291,4.3311,4.3493,4.3582,4.3615,4.3697,4.3955,4.4192,4.4457,4.4714,4.4868,4.5007,4.5201,4.5381,4.5456,4.5509,4.5541,4.565,4.575,4.5902,4.6027,4.6138,4.6196,4.6196,4.6196,4.6203,4.6215,4.621,4.6192,4.619,4.6186,4.6147,4.6084,2.4596,2.476,2.6075,2.677,2.711,2.8359,2.885,2.8944,2.9352,2.9602,2.9602,2.9602,2.958,2.97,3.0086,3.0372,3.0732,3.1204,3.1495,3.1781,3.1951,3.2216,3.2287,3.2398,3.2398,3.2398,3.2398,3.2398,3.2398,3.2398,3.2398,3.2398,3.2398,3.2398,3.2398,3.2398,3.2398,3.2398,3.2398,3.2398,3.2398,3.2398,3.2398,3.2398,3.2398,3.2398,3.2398,3.2398,3.2398,3.2398,3.2453,3.2492,3.2819,3.3058,3.3219,3.3455,3.3869,3.4431,3.4673,3.5115,3.5667,3.5817,3.5949,3.6079,3.6122,3.6174,3.6284,3.6284,3.6284,3.6284,3.6284,3.6284,3.6284,3.6367,3.6748,3.7101,3.7767,3.8744,3.9911,4.1086,4.1862,4.2451,4.3057,4.3369,4.3513,4.3513,4.3513,4.3513,4.3716,4.3846,4.4102,4.4346,4.4546,4.4751,4.4962,4.5178,4.5341,4.5381,4.5419,4.5509,4.5638,4.5854,4.6027,4.6084,4.6146,4.6196,4.6196,4.6196,4.6196,4.6211,4.6199,4.6195,4.6191,4.618,4.6119,2.4138,2.4249,2.5437,2.629,2.7082,2.8146,2.8739,2.8983,2.9387,2.954,2.9602,2.9602,2.9602,2.9789,2.996,3.0144,3.0372,3.0732,3.1146,3.1379,3.1625,3.1894,3.2176,3.2358,3.2398,3.2398,3.2398,3.2398,3.2398,3.2398,3.2398,3.2398,3.2398,3.2398,3.2398,3.2398,3.2398,3.2398,3.2398,3.2398,3.2398,3.2398,3.2398,3.2398,3.2398,3.2398,3.2398,3.2398,3.2398,3.2398,3.2398,3.2453,3.2508,3.2648,3.2578,3.2857,3.363,3.3986,3.4284,3.5068,3.5424,3.5667,3.5888,3.6019,3.6062,3.6131,3.6241,3.6284,3.6284,3.6284,3.6284,3.6284,3.6284,3.6429,3.683,3.7286,3.8138,3.9048,4.0273,4.1486,4.2105,4.2715,4.3112,4.3424,4.3479,4.3479,4.3479,4.3479,4.3513,4.3615,4.3795,4.4042,4.426,4.4493,4.477,4.4957,4.5154,4.5319,4.5361,4.54,4.5491,4.5684,4.5835,4.5956,4.6027,4.6102,4.6181,4.6181,4.619,4.6201,4.6197,4.6199,4.6219,4.6211,4.618,2.4125,2.4223,2.541,2.5873,2.6029,2.7563,2.8332,2.8436,2.8955,2.9352,2.9456,2.9574,2.9602,2.9588,2.9665,2.9789,2.9898,3.0251,3.0372,3.0553,3.1204,3.161,3.1894,3.2135,3.2342,3.2398,3.2398,3.2398,3.2398,3.2398,3.2398,3.2398,3.2398,3.2398,3.2398,3.2398,3.2398,3.2398,3.2398,3.2398,3.2398,3.2398,3.2398,3.2398,3.2398,3.2398,3.2398,3.2398,3.2398,3.2398,3.2398,3.2398,3.2398,3.2398,3.2398,3.2602,3.3371,3.3716,3.4169,3.4958,3.5379,3.5577,3.5739,3.6019,3.6105,3.6174,3.6259,3.6284,3.6284,3.6284,3.6284,3.6284,3.6301,3.6594,3.696,3.7568,3.8315,3.9403,4.0557,4.1486,4.2229,4.2777,4.3245,4.3428,4.3463,4.3463,4.3479,4.3479,4.3479,4.3532,4.3532,4.3763,4.398,4.4374,4.472,4.4751,4.4934,4.5109,4.5298,4.5361,4.5419,4.549,4.5619,4.5769,4.5902,4.6017,4.6075,4.6138,4.6183,4.6209,4.6201,4.6201,4.6228,4.6223,4.6211]},{"header":{"parameterUnit":"m.s-1","parameterCategory":1,"la1":31.0,"la2":29.5877,"lo1":-88.7671,"lo2":-86.6584,"dy":0.0162,"dx":0.0185,"nx":115,"ny":88,"refTime":"2023-05-29T18:00:00:Z","depth":0,"parameterNumber":3,"parameterNumberName":"V-component_of_WINDS"},"data":[0.0,0.0,0.0,0.0,0.0,0.0,0.0,0.0,0.0,0.0,0.0,0.0,0.0,0.0,0.0,0.0,0.0,0.0,0.0,0.0,0.0,0.0,0.0,0.0,0.0,0.0,0.0,0.0,0.0,0.0,0.0,0.0,0.0,0.0,0.0,0.0,0.0,0.0,0.0,0.0,0.0,0.0,0.0,0.0,0.0,0.0,0.0,0.0,0.0,0.0,0.0,0.0,0.0,0.0,0.0,0.0,0.0,0.0,0.0,0.0,0.0,0.0,0.0,0.0,0.0,0.0,0.0,0.0,0.0,0.0,0.0,0.0,0.0,0.0,0.0,0.0,0.0,0.0,0.0,0.0,0.0,0.0,0.0,0.0,0.0,0.0,0.0,0.0,0.0,0.0,0.0,0.0,0.0,0.0,0.0,0.0,0.0,0.0,0.0,0.0,0.0,0.0,0.0,0.0,0.0,0.0,0.0,0.0,0.0,0.0,0.0,0.0,0.0,0.0,0.0,0.0,0.0,0.0,0.0,0.0,0.0,0.0,0.0,0.0,0.0,0.0,0.0,0.0,0.0,0.0,0.0,0.0,0.0,0.0,0.0,0.0,0.0,0.0,0.0,0.0,0.0,0.0,0.0,0.0,0.0,0.0,0.0,0.0,0.0,0.0,0.0,0.0,0.0,0.0,0.0,0.0,0.0,0.0,0.0,0.0,0.0,0.0,0.0,0.0,0.0,0.0,0.0,0.0,0.0,0.0,0.0,0.0,0.0,0.0,0.0,0.0,0.0,0.0,0.0,0.0,0.0,0.0,0.0,0.0,0.0,0.0,0.0,0.0,0.0,0.0,0.0,0.0,0.0,0.0,0.0,0.0,0.0,0.0,0.0,0.0,0.0,0.0,0.0,0.0,0.0,0.0,0.0,0.0,0.0,0.0,0.0,0.0,0.0,0.0,0.0,0.0,0.0,0.0,0.0,0.0,0.0,0.0,0.0,0.0,0.0,0.0,0.0,0.0,0.0,0.0,0.0,0.0,0.0,0.0,0.0,0.0,0.0,0.0,0.0,0.0,0.0,0.0,0.0,0.0,0.0,0.0,0.0,0.0,0.0,0.0,0.0,0.0,0.0,0.0,0.0,0.0,0.0,0.0,0.0,0.0,0.0,0.0,0.0,0.0,0.0,0.0,0.0,0.0,0.0,0.0,0.0,0.0,0.0,0.0,0.0,0.0,0.0,0.0,0.0,0.0,0.0,0.0,0.0,0.0,0.0,0.0,0.0,0.0,0.0,0.0,0.0,0.0,0.0,0.0,0.0,0.0,0.0,0.0,0.0,0.0,0.0,0.0,0.0,0.0,0.0,0.0,0.0,0.0,0.0,0.0,0.0,0.0,0.0,0.0,0.0,0.0,0.0,0.0,0.0,0.0,0.0,0.0,0.0,0.0,0.0,0.0,0.0,0.0,0.0,0.0,0.0,0.0,0.0,0.0,0.0,0.0,0.0,0.0,0.0,0.0,0.0,0.0,0.0,0.0,0.0,0.0,0.0,0.0,0.0,0.0,0.0,0.0,0.0,0.0,0.0,0.0,0.0,0.0,0.0,0.0,0.0,0.0,0.0,0.0,0.0,0.0,0.0,0.0,0.0,0.0,0.0,0.0,0.0,0.0,0.0,0.0,0.0,0.0,0.0,0.0,0.0,0.0,0.0,0.0,0.0,0.0,0.0,0.0,0.0,0.0,0.0,0.0,0.0,0.0,0.0,0.0,0.0,0.0,0.0,0.0,0.0,0.0,0.0,0.0,0.0,0.0,0.0,0.0,0.0,0.0,0.0,0.0,0.0,0.0,0.0,0.0,0.0,0.0,0.0,0.0,0.0,0.0,0.0,0.0,0.0,0.0,0.0,0.0,0.0,0.0,0.0,0.0,0.0,0.0,0.0,0.0,0.0,0.0,0.0,0.0,0.0,0.0,0.0,0.0,0.0,0.0,0.0,0.0,0.0,0.0,0.0,0.0,0.0,0.0,0.0,0.0,0.0,0.0,0.0,0.0,0.0,0.0,0.0,0.0,0.0,0.0,0.0,0.0,0.0,0.0,0.0,0.0,0.0,0.0,0.0,0.0,0.0,0.0,0.0,0.0,0.0,0.0,0.0,0.0,0.0,0.0,0.0,0.0,0.0,0.0,0.0,0.0,0.0,0.0,0.0,0.0,0.0,0.0,0.0,0.0,0.0,0.0,0.0,0.0,0.0,0.0,0.0,0.0,0.0,0.0,0.0,0.0,0.0,0.0,0.0,0.0,0.0,0.0,0.0,0.0,0.0,0.0,0.0,0.0,0.0,0.0,0.0,0.0,0.0,0.0,0.0,0.0,0.0,0.0,0.0,0.0,0.0,0.0,0.0,0.0,0.0,0.0,0.0,0.0,0.0,0.0,0.0,0.0,0.0,0.0,0.0,0.0,0.0,0.0,0.0,0.0,0.0,0.0,0.0,0.0,0.0,0.0,0.0,0.0,0.0,0.0,0.0,0.0,0.0,0.0,0.0,0.0,0.0,0.0,0.0,0.0,0.0,0.0,0.0,0.0,0.0,0.0,0.0,0.0,0.0,0.0,0.0,0.0,0.0,0.0,0.0,0.0,0.0,0.0,0.0,0.0,0.0,0.0,0.0,0.0,0.0,0.0,0.0,0.0,0.0,0.0,0.0,0.0,0.0,0.0,0.0,0.0,0.0,0.0,0.0,0.0,0.0,0.0,0.0,0.0,0.0,0.0,0.0,0.0,0.0,0.0,0.0,0.0,0.0,0.0,0.0,0.0,0.0,0.0,0.0,0.0,0.0,0.0,0.0,0.0,0.0,0.0,0.0,0.0,0.0,0.0,0.0,0.0,0.0,0.0,0.0,0.0,0.0,0.0,0.0,0.0,0.0,0.0,0.0,0.0,0.0,0.0,0.0,0.0,0.0,0.0,0.0,0.0,0.0,0.0,0.0,0.0,0.0,0.0,0.0,0.0,0.0,0.0,0.0,0.0,0.0,0.0,0.0,0.0,0.0,0.0,0.0,0.0,0.0,0.0,0.0,0.0,0.0,0.0,0.0,0.0,0.0,0.0,0.0,0.0,0.0,0.0,0.0,0.0,0.0,0.0,0.0,0.0,0.0,0.0,0.0,0.0,0.0,0.0,0.0,0.0,0.0,0.0,0.0,0.0,0.0,0.0,0.0,0.0,0.0,0.0,0.0,0.0,0.0,0.0,0.0,0.0,0.0,0.0,0.0,0.0,0.0,0.0,0.0,0.0,0.0,0.0,0.0,0.0,0.0,0.0,0.0,0.0,0.0,0.0,0.0,0.0,0.0,0.0,0.0,0.0,0.0,0.0,0.0,0.0,0.0,0.0,0.0,0.0,0.0,0.0,0.0,0.0,0.0,0.0,0.0,0.0,0.0,0.0,0.0,0.0,0.0,0.0,0.0,0.0,0.0,0.0,0.0,0.0,0.0,0.0,0.0,0.0,0.0,0.0,0.0,0.0,0.0,0.0,0.0,0.0,0.0,0.0,0.0,0.0,0.0,0.0,0.0,0.0,0.0,0.0,0.0,0.0,0.0,0.0,0.0,0.0,0.0,0.0,0.0,0.0,0.0,0.0,0.0,0.0,0.0,0.0,0.0,0.0,0.0,0.0,0.0,0.0,0.0,0.0,0.0,0.0,0.0,0.0,0.0,0.0,0.0,0.0,0.0,0.0,0.0,0.0,0.0,0.0,0.0,0.0,0.0,0.0,0.0,0.0,0.0,0.0,0.0,0.0,0.0,0.0,0.0,0.0,0.0,0.0,0.0,0.0,0.0,0.0,0.0,0.0,0.0,0.0,0.0,0.0,0.0,0.0,0.0,0.0,0.0,0.0,0.0,0.0,0.0,0.0,0.0,0.0,0.0,0.0,0.0,0.0,0.0,0.0,0.0,0.0,0.0,0.0,0.0,0.0,0.0,0.0,0.0,0.0,0.0,0.0,0.0,0.0,0.0,0.0,0.0,0.0,0.0,0.0,0.0,0.0,0.0,0.0,0.0,0.0,0.0,0.0,0.0,0.0,0.0,0.0,0.0,0.0,0.0,0.0,0.0,0.0,0.0,0.0,0.0,0.0,0.0,0.0,0.0,0.0,0.0,0.0,0.0,0.0,0.0,0.0,0.0,0.0,0.0,0.0,0.0,0.0,0.0,0.0,0.0,0.0,0.0,0.0,0.0,0.0,0.0,0.0,0.0,0.0,0.0,0.0,0.0,0.0,0.0,0.0,0.0,0.0,0.1479,0.0,0.0,0.0,0.0,0.0,0.0,0.0,0.0,0.0,0.0,0.0,0.0,0.0,0.0,0.0,0.0,0.0,0.0,0.0,0.0,0.0,0.0,0.0,0.0,0.0,0.0,0.0,0.0,0.0,0.0,0.0,0.0,0.0,0.0,0.0,0.0,0.0,0.0,0.0,0.0,0.0,0.0,0.0,0.0,0.0,0.0,0.0,0.0,0.0,0.0,0.0,0.0,0.0,0.0,0.0,0.0,0.0,0.0,0.0,0.0,0.0,0.0,0.0,0.0,0.0,0.0,0.0,0.0,0.0,0.0,0.0,0.0,0.0,0.0,0.0,0.0,0.0,0.0,0.0,0.0,0.0,0.0,0.0,0.0,0.0,0.0,0.0,0.0,0.0,0.0,0.0,0.0,0.0,0.0,0.0,0.0,0.0,0.0,0.0,0.0,0.0,0.0,0.0,0.0,0.0,0.0,0.0,0.0,0.0,0.0,0.009,0.0584,0.0853,0.1076,0.1389,0.0,0.0,0.0,0.0,0.0,0.0,0.0,0.0,0.0,0.0,0.0,0.0,0.0,0.0,0.0,0.0,0.0,0.0,0.0,0.0,0.0,0.0,0.0,0.0,0.0,0.0,0.0,0.0,0.0,0.0,0.0,0.0,0.0,0.0,0.0,0.0,0.0,0.0,0.0,0.0,0.0,0.0,0.0,0.0,0.0,0.0,0.0,0.0,0.0,0.0,0.0,0.0,0.0,0.0,0.0,0.0,0.0,0.0,0.0,0.0,0.0,0.0,0.0,0.0,0.0,0.0,0.0,0.0,0.0,0.0,0.0,0.0,0.0,0.0,0.0,0.0,0.0,0.0,0.0,0.0,0.0,0.0,0.0,0.0,0.0,0.0,0.0,0.0,0.0,0.0,0.0,0.0,0.0,0.0,0.0,0.0,0.0,0.0,0.0,0.0,0.0,0.0,0.0,0.0,0.0,0.0,0.0,0.0,0.0,0.0,0.0,0.0,0.0539,0.0898,0.1389,0.0,0.0,0.0,0.0,0.0,0.0,0.0,0.0,0.0,0.0,0.0,0.0,0.0,0.0,0.0,0.0,0.0,0.0,0.0,0.0,0.0,0.0,0.0,0.0,0.0,0.0,0.0,0.0,0.0,0.0,0.0,0.0,0.0,0.0,0.0,0.0,0.0,0.0,0.0,0.0,0.0,0.0,0.0,0.0,0.0,0.0,0.0,0.0,0.0,0.0,0.0,0.0,0.0,0.0,0.0,0.0,0.0,0.0,0.0,0.0,0.0,0.0,0.0,0.0,0.0,0.0,0.0,0.0,0.0,0.0,0.0,0.0,0.0,0.0,0.0,0.0,0.0,0.0,0.0,0.0,0.0,0.0,0.0,0.0,0.0,0.0,0.0,0.0,0.0,0.0,0.0,0.0,0.0,0.0,0.0,0.0,0.0,0.0,0.0,0.0,0.0,0.0,0.0,0.0,0.0,0.0,0.0,0.0,0.0,0.0,-0.0538,-0.0315,0.0225,0.0,0.1389,0.0,0.0,0.0,0.0,0.0,0.0,0.0,0.0,0.0,0.0,0.0,0.0,0.0,0.0,0.0,0.0,0.0,0.0,0.0,0.0,0.0,0.0,0.0,0.0,0.0,0.0,0.0,0.0,0.0,0.0,0.0,0.0,0.0,0.0,0.0,0.0,0.0,0.0,0.0,0.0,0.0,0.0,0.0,0.0,0.0,0.0,0.0,0.0,0.0,0.0,0.0,0.0,0.0,0.0,0.0,0.0,0.0,0.0,0.0,0.0,0.0,0.0,0.0,0.0,0.0,0.0,0.0,0.0,0.0,0.0,0.0,0.0,0.0,0.0,0.0,0.0,0.0,0.0,0.0,0.0,0.0,0.0,0.0,0.0,0.0,0.0,0.0,0.0,0.0,0.0,0.0,0.0,0.0,0.0,0.0,0.0,0.0,0.0,0.0,0.0,0.0,0.0,0.0,0.0,0.0,0.0,0.0,0.0,0.0,0.0,-0.094,-0.0583,0.0135,0.0629,0.0,0.0,0.0,0.0,0.0,0.0,0.0,0.0,0.0,0.0,0.0,0.0,0.0,0.0,0.0,0.0,0.0,0.0,0.0,0.0,0.0,0.0,0.0,0.0,0.0,0.0,0.0,0.0,0.0,0.0,0.0,0.0,0.0,0.0,0.0,0.0,0.0,0.0,0.0,0.0,0.0,0.0,0.0,0.0,0.0,0.0,0.0,0.0,0.0,0.0,0.0,0.0,0.0,0.0,0.0,0.0,0.0,0.0,0.0,0.0,0.0,0.0,0.0,0.0,0.0,0.0,0.0,0.0,0.0,0.0,0.0,0.0,0.0,0.0,0.0,0.0,0.0,0.0,0.0,0.0,0.0,0.0,0.0,0.0,0.0,0.0,0.0,0.0,0.0,0.0,0.0,0.0,0.0,0.0,0.0,0.0,0.0,0.0,0.0,0.0,0.0,0.0,0.0,0.0,0.0,0.0,0.0,0.0,0.0,0.0,-0.1792,-0.1299,-0.0716,-0.009,0.0359,0.0627,0.0,0.0,0.0,0.0,0.0,0.0,0.0,0.0,0.0,0.0,0.0,0.0,0.0,0.0,0.0,0.0,0.0,0.0,0.0,0.0,0.0,0.0,0.0,0.0,0.0,0.0,0.0,0.0,0.0,0.0,0.0,0.0,0.0,0.0,0.0,0.0,0.0,0.0,0.0,0.0,0.0,0.0,0.0,0.0,0.0,0.0,0.0,0.0,0.0,0.0,0.0,0.0,0.0,0.0,0.0,0.0,0.0,0.0,0.0,0.0,0.0,0.0,0.0,0.0,0.0,0.0,0.0,0.0,0.0,0.0,0.0,0.0,0.0,0.0,0.0,0.0,0.0,0.0,0.0,0.0,0.0,0.0,0.0,0.0,0.0,0.0,0.0,0.0,0.0,0.0,0.0,0.0,0.0,0.0,0.0,0.0,0.0,0.0,0.0,0.0,0.0,0.0,0.0,0.0,0.0,0.0,0.0,0.0,-0.2645,-0.2245,-0.157,-0.0763,-0.0449,-0.009,0.0,0.0,0.0,0.0,0.0,0.0,0.0,0.0,0.0,0.0,0.0,0.0,0.0,0.0,0.0,0.0,0.0,0.0,0.0,0.0,0.0,0.0,0.0,0.0,0.0,0.0,0.0,0.0,0.0,0.0,0.0,0.0,0.0,0.0,0.0,0.0,0.0,0.0,0.0,0.0,0.0,0.0,0.0,0.0,0.0,0.0,0.0,0.0,0.0,0.0,0.0,0.0,0.0,0.0,0.0,0.0,0.0,0.0,0.0,0.0,0.0,0.0,0.0,0.0,0.0,0.0,0.0,0.0,0.0,0.0,0.0,0.0,0.0,0.0,0.0,0.0,0.0,0.0,0.0,0.0,0.0,0.0,0.0,0.0,0.0,0.0,0.0,0.0,0.0,0.0,0.0,0.0,0.0,0.0,0.0,0.0,0.0,0.0,0.0,0.0,0.0,0.0,0.0,0.0,0.0,0.0,0.0,0.0,0.0,-0.3088,-0.2514,-0.1935,-0.1307,-0.092,-0.0533,0.0,0.0,0.0,0.0,0.0,0.0,0.0,0.0,0.0,0.0,0.0,0.0,0.0,0.0,0.0,0.0,0.0,0.0,0.0,0.0,0.0,0.0,0.0,0.0,0.0,0.0,0.0,0.0,0.0,0.0,0.0,0.0,0.0,0.0,0.0,0.0,0.0,0.0,0.0,0.0,0.0,0.0,0.0,0.0,0.0,0.0,0.0,0.0,0.0,0.0,0.0,0.0,0.0,0.0,0.0,0.0,0.0,0.0,0.0,0.0,0.0,0.0,0.0,0.0,0.0,0.0,0.0,0.0,0.0,0.0,0.0,0.0,0.0,0.0,0.0,0.0,0.0,0.0,0.0,0.0,0.0,0.0,0.0,0.0,0.0,0.0,0.0,0.0,0.0,0.0,0.0,0.0,0.0,0.0,0.0,0.0,0.0,0.0,0.0,0.0,0.0,0.0,0.0,0.0,0.0,0.0,0.0,0.0,0.0,-0.3315,0.0,-0.2216,0.0,-0.1312,-0.0908,0.0,0.0,0.0,0.0,0.0,0.0,0.0,0.0,0.0,0.0,0.0,0.0,0.0,0.0,0.0,0.0,0.0,0.0,0.0,0.0,0.0,0.0,0.0,0.0,0.0,0.0,0.0,0.0,0.0,0.0,0.0,0.0,0.0,0.0,0.0,0.0,0.0,0.0,0.0,0.0,0.0,0.0,0.0,0.0,0.0,0.0,0.0,0.0,0.0,0.0,0.0,0.0,0.0,0.0,0.0,0.0,0.0,0.0,0.0,0.0,0.0,0.0,0.0,0.0,0.0,0.0,0.0,0.0,0.0,0.0,0.0,0.0,0.0,0.0,0.0,0.0,0.0,0.0,0.0,0.0,0.0,0.0,0.0,0.0,0.0,0.0,0.0,0.0,0.0,0.0,0.0,0.0,0.0,0.0,0.0,0.0,0.0,0.0,0.0,0.0,0.0,0.0,0.0,0.0,0.0,0.0,0.0,0.0,-0.383,-0.3327,-0.283,-0.2432,-0.2118,-0.162,-0.1163,0.0,0.0,0.0,0.0,0.0,0.0,0.0,0.0,0.0,0.0,0.0,0.0,0.0,0.0,0.0,0.0,0.0,0.0,0.0,0.0,0.0,0.0,0.0,0.0,0.0,0.0,0.0,0.0,0.0,0.0,0.0,0.0,0.0,0.0,0.0,0.0,0.0,0.0,0.0,0.0,0.0,0.0,0.0,0.0,0.0,0.0,0.0,0.0,0.0,0.0,0.0,0.0,0.0,0.0,0.0,0.0,0.0,0.0,0.0,0.0,0.0,0.0,0.0,0.0,0.0,0.0,0.0,0.0,0.0,0.0,0.0,0.0,0.0,0.0,0.0,0.0,0.0,0.0,0.0,0.0,0.0,0.0,0.0,0.0,0.0,0.0,0.0,0.0,0.0,0.0,0.0,0.0,0.0,0.0,0.0,0.0,0.0,0.0,0.0,0.0,0.0,0.0,0.0,0.0,0.0,0.0,0.0,0.0,0.0,-0.3681,-0.3307,-0.2929,-0.2387,-0.1952,-0.1465,0.0,0.0,0.0,0.0,0.0,0.0,0.0,0.0,0.0,0.0,0.0,0.0,0.0,0.0,0.0,0.0,0.0,0.0,0.0,0.0,0.0,0.0,0.0,0.0,0.0,0.0,0.0,0.0,0.0,0.0,0.0,0.0,0.0,0.0,0.0,0.0,0.0,0.0,0.0,0.0,0.0,0.0,0.0,0.0,0.0,0.0,0.0,0.0,0.0,0.0,0.0,0.0,0.0,0.0,0.0,0.0,0.0,0.0,0.0,0.0,0.0,0.0,0.0,0.0,0.0,0.0,0.0,0.0,0.0,0.0,0.0,0.0,0.0,0.0,0.0,0.0,0.0,0.0,0.0,0.0,0.0,0.0,0.0,0.0,0.0,0.0,0.0,0.0,0.0,0.0,0.0,0.0,0.0,0.0,0.0,0.0,0.0,0.0,0.0,0.0,0.0,0.0,0.0,0.0,0.0,0.0,0.0,0.0,0.0,-0.4038,-0.3758,-0.3305,-0.2853,-0.2281,-0.1759,-0.1292,0.0,0.0,0.0,0.0,0.0,0.0,0.0,0.0,0.0,0.0,0.0,0.0,0.0,0.0,0.0,0.0,0.0,0.0,0.0,0.0,0.0,0.0,0.0,0.0,0.0,0.0,0.0,0.0,0.0,0.0,0.0,0.0,0.0,0.0,0.0,0.0,0.0,0.0,0.0,0.0,0.0,0.0,0.0,0.0,0.0,0.0,0.0,0.0,0.0,0.0,0.0,0.0,0.0,0.0,0.0,0.0,0.0,0.0,0.0,0.0,0.0,0.0,0.0,0.0,0.0,0.0,0.0,0.0,0.0,0.0,0.0,0.0,0.0,0.0,0.0,0.0,0.0,0.0,0.0,0.0,0.0,0.0,0.0,0.0,0.0,0.0,0.0,0.0,0.0,0.0,0.0,0.0,0.0,0.0,0.0,0.0,0.0,0.0,0.0,0.0,0.0,0.0,0.0,0.0,0.0,0.0,0.0,0.0,-0.4536,-0.4127,-0.3714,-0.3416,-0.2765,-0.2029,0.0,0.0,0.0,0.0,0.0,0.0,0.0,0.0,0.0,0.0,0.0,0.0,0.0,0.0,0.0,0.0,0.0,0.0,0.0,0.0,0.0,0.0,0.0,0.0,0.0,0.0,0.0,0.0,0.0,0.0,0.0,0.0,0.0,0.0,0.0,0.0,0.0,0.0,0.0,0.0,0.0,0.0,0.0,0.0,0.0,0.0,0.0,0.0,0.0,0.0,0.0,0.0,0.0,0.0,0.0,0.0,0.0,0.0,0.0,0.0,0.0,0.0,0.0,0.0,0.0,0.0,0.0,0.0,0.0,0.0,0.0,0.0,0.0,0.0,0.0,0.0,0.0,0.0,0.0,0.0,0.0,0.0,0.0,0.0,0.0,0.0,0.0,0.0,0.0,0.0,0.0,0.0,0.0,0.0,0.0,0.0,0.0,0.0,0.0,0.0,0.0,0.0,0.0,0.0,0.0,0.0,0.0,0.0,0.0,-0.5133,-0.4771,-0.4353,-0.3832,-0.315,-0.2341,0.0,0.0,0.0,0.0,0.0,0.0,0.0,0.0,0.0,0.0,0.0,0.0,0.0,0.0,0.0,0.0,0.0,0.0,0.0,0.0,0.0,0.0,0.0,0.0,0.0,0.0,0.0,0.0,0.0,0.0,0.0,0.0,0.0,0.0,0.0,0.0,0.0,0.0,0.0,0.0,0.0,0.0,0.0,0.0,0.0,0.0,0.0,0.0,0.0,0.0,0.0,0.0,0.0,0.0,0.0,0.0,0.0,0.0,0.0,0.0,0.0,0.0,0.0,0.0,0.0,0.0,0.0,0.0,0.0,0.0,0.0,0.0,0.0,0.0,0.0,0.0,0.0,0.0,0.0,0.0,0.0,0.0,0.0,0.0,0.0,0.0,0.0,0.0,0.0,0.0,0.0,0.0,0.0,0.0,0.0,0.0,0.0,0.0,0.0,0.0,0.0,0.0,0.0,0.0,0.0,0.0,0.0,0.0,-0.5264,-0.5389,-0.5203,-0.4935,-0.4595,-0.3676,-0.2797,0.0,0.0,0.0,0.0,0.0,0.0,0.0,0.0,0.0,0.0,0.0,0.0,0.0,0.0,0.0,0.0,0.0,0.0,0.0,0.0,0.0,0.0,0.0,0.0,0.0,0.0,0.0,0.0,0.0,0.0,0.0,0.0,0.0,0.0,0.0,0.0,0.0,0.0,0.0,0.0,0.0,0.0,0.0,0.0,0.0,0.0,0.0,0.0,0.0,0.0,0.0,0.0,0.0,0.0,0.0,0.0,0.0,0.0,0.0,0.0,0.0,0.0,0.0,0.0,0.0,0.0,0.0,0.0,0.0,0.0,0.0,0.0,0.0,0.0,0.0,0.0,0.0,0.0,0.0,0.0,0.0,0.0,0.0,0.0,0.0,0.0,0.0,0.0,0.0,0.0,0.0,0.0,0.0,0.0,0.0,0.0,0.0,0.0,0.0,0.0,0.0,0.0,0.0,0.0,0.0,0.0,0.0,0.0,-0.562,-0.5541,-0.5422,-0.5428,-0.5352,-0.4201,-0.3353,0.0,0.0,0.0,0.0,0.0,0.0,0.0,0.0,0.0,0.0,0.0,0.0,0.0,0.0,0.0,0.0,0.0,0.0,0.0,0.0,0.0,0.0,0.0,0.0,0.0,0.0,0.0,0.0,0.0,0.0,0.0,0.0,0.0,0.0,0.0,0.0,0.0,0.0,0.0,0.0,0.0,0.0,0.0,0.0,0.0,0.0,0.0,0.0,0.0,0.0,0.0,0.0,0.0,0.0,0.0,0.0,0.0,0.0,0.0,0.0,0.0,0.0,0.0,0.0,0.0,0.0,0.0,0.0,0.0,0.0,0.0,0.0,0.0,0.0,0.0,0.0,0.0,0.0,0.0,0.0,0.0,0.0,0.0,0.0,0.0,0.0,0.0,0.0,0.0,0.0,0.0,0.0,0.0,0.0,0.0,0.0,0.0,0.0,0.0,0.0,0.0,0.0,0.0,0.0,0.0,0.0,0.0,0.0,-0.6109,-0.6416,-0.5738,-0.5428,-0.5428,-0.4604,-0.3887,0.0,0.0,0.0,0.0,0.0,0.0,0.0,0.0,0.0,0.0,0.0,0.0,0.0,0.0,0.0,0.0,0.0,0.0,0.0,0.0,0.0,0.0,0.0,0.0,0.0,0.0,0.0,0.0,0.0,0.0,0.0,0.0,0.0,0.0,0.0,0.0,0.0,0.0,0.0,0.0,0.0,0.0,0.0,0.0,0.0,0.0,0.0,0.0,1.011,0.0,0.0,0.0,0.0,0.0,0.0,0.0,0.0,0.0,0.0,0.0,0.0,0.0,0.0,0.0,0.0,0.0,0.0,0.0,0.0,0.0,0.0,0.0,0.0,0.0,0.0,0.0,0.0,0.0,0.0,0.0,0.0,0.0,0.0,0.0,0.0,0.0,0.0,0.0,0.0,0.0,0.0,0.0,0.0,0.0,0.0,0.0,0.0,0.0,0.0,0.0,0.0,0.0,0.0,0.0,0.0,0.0,0.0,0.0,-0.6421,-0.6671,-0.5818,-0.5428,-0.5359,-0.495,-0.4365,0.0,0.0,0.0,0.0,0.0,0.0,0.0,0.0,0.0,0.0,0.0,0.0,0.0,0.0,0.0,0.0,0.0,0.0,0.0,0.0,0.0,0.0,0.0,0.0,0.0,0.0,0.0,0.0,0.0,0.0,0.0,0.0,0.0,0.0,0.0,0.0,0.0,0.0,0.0,0.0,0.0,0.0,0.0,0.0,0.0,0.0,0.0,0.0,0.0,0.0,0.0,0.0,0.0,0.0,0.0,0.0,0.0,0.0,0.0,0.0,0.0,0.0,0.0,0.0,0.0,0.0,0.0,0.0,0.0,0.0,0.0,0.0,0.0,0.0,0.0,0.0,0.0,0.0,0.0,0.0,0.0,0.0,0.0,0.0,0.0,0.0,0.0,0.0,0.0,0.0,0.0,0.0,0.0,0.0,0.0,0.0,0.0,0.0,0.0,0.0,0.0,0.0,0.0,0.0,0.0,0.0,0.0,-0.7192,-0.6898,-0.6863,-0.6017,-0.5491,-0.5428,-0.5223,-0.4693,-0.388,0.0,0.0,0.0,0.0,0.0,0.0,0.0,0.0,0.0,0.0,0.0,0.0,0.0,0.0,0.0,0.0,0.0,0.0,0.0,0.0,0.0,0.0,0.0,0.0,0.0,0.0,0.0,0.0,0.0,0.0,0.0,0.0,0.0,0.0,0.0,0.0,0.0,0.0,0.7901,0.8434,0.0,0.0,0.0,0.0,0.0,0.0,0.0,0.0,0.9971,0.0,0.0,0.0,0.0,0.0,0.0,0.0,0.0,0.0,0.0,0.0,0.0,0.0,0.0,0.0,0.0,0.0,0.0,0.0,0.0,0.0,0.0,0.0,0.0,0.0,0.0,0.0,0.0,0.0,0.0,0.0,0.0,0.0,0.0,0.0,0.0,0.0,0.0,0.0,0.0,0.0,0.0,0.0,0.0,0.0,0.0,0.0,0.0,0.0,0.0,0.0,0.0,0.0,0.0,0.0,0.0,-0.8739,-0.8397,-0.8001,-0.7512,-0.6662,-0.5943,-0.5425,-0.5223,-0.4761,-0.4011,0.0,0.0,0.0,0.0,0.0,0.0,0.0,0.0,0.0,0.0,0.0,0.0,0.0,0.0,0.0,0.0,0.0,0.0,0.0,0.0,0.0,0.0,0.0,0.0,0.0,0.0,0.0,0.0,0.0,0.0,0.0,0.0,0.0,0.0,0.0,0.0,0.0,0.0,0.0,0.8321,0.8533,0.0,0.0,0.0,0.0,0.0,0.0,0.0,0.0,1.0107,0.0,0.0,0.0,0.0,0.0,0.0,0.0,0.0,0.0,0.0,0.0,0.0,0.0,0.0,0.0,0.0,0.0,0.0,0.0,0.0,0.0,0.0,0.0,0.0,0.0,0.0,0.0,0.0,0.0,0.0,0.0,0.0,0.0,0.0,0.0,0.0,0.0,0.0,0.0,0.0,0.0,0.0,0.0,0.0,0.0,0.0,0.0,0.0,0.0,0.0,0.0,0.0,0.0,0.0,0.0,-0.9323,-0.8943,-0.8608,-0.835,-0.7242,-0.6465,-0.6075,-0.5613,-0.4955,0.0,0.0,0.0,0.0,0.0,0.0,0.0,0.0,0.0,0.0,0.0,0.0,0.0,0.0,0.0,0.0,0.0,0.0,0.0,0.0,0.0,0.0,0.0,0.0,0.0,0.0,0.0,0.0,0.0,0.0,0.0,0.0,0.0,0.0,0.0,0.0,0.0,0.0,0.0,0.0,0.7961,0.8099,0.8257,0.0,0.0,0.0,0.0,0.0,0.0,0.9896,0.9907,0.0,0.0,0.0,0.0,0.0,0.0,0.0,0.0,0.0,0.0,0.0,0.0,0.0,0.0,0.0,0.0,0.0,0.0,0.0,0.0,0.0,0.0,0.0,0.0,0.0,0.0,0.0,0.0,0.0,0.0,0.0,0.0,0.0,0.0,0.0,0.0,0.0,0.0,0.0,0.0,0.0,0.0,0.0,0.0,0.0,0.0,0.0,0.0,0.0,0.0,0.0,0.0,0.0,0.0,0.0,-0.9762,-0.9448,-0.9186,-0.8994,-0.7767,-0.6985,-0.6724,-0.6009,-0.5213,0.0,0.0,0.0,0.0,0.0,0.0,0.0,0.0,0.0,0.0,0.0,0.0,0.0,0.0,0.0,0.0,0.0,0.0,0.0,0.0,0.0,0.0,0.0,0.0,0.0,0.0,0.0,0.0,0.0,0.0,0.0,0.0,0.0,0.0,0.0,0.0,0.0,0.0,0.0,0.0,0.0,0.7553,0.7661,0.7813,0.0,0.0,0.0,0.0,0.9986,0.9902,0.0,0.0,0.0,0.0,0.0,0.0,0.0,0.0,0.0,0.0,0.0,0.0,0.0,0.0,0.0,0.0,0.0,0.0,0.0,0.0,0.0,0.0,0.0,0.0,0.0,0.0,0.0,0.0,0.0,0.0,0.0,0.0,0.0,0.0,0.0,0.0,0.0,0.0,0.0,0.0,0.0,0.0,0.0,0.0,0.0,0.0,0.0,0.0,0.0,0.0,0.0,0.0,0.0,0.0,0.0,0.0,-1.0053,-1.0089,-0.9856,-0.9268,-0.8355,-0.7572,-0.6924,-0.6071,-0.5277,0.0,0.0,0.0,0.0,0.0,0.0,0.0,0.0,0.0,0.0,0.0,0.0,0.0,0.0,0.0,0.0,0.0,0.0,0.0,0.0,0.0,0.0,0.0,0.0,0.0,0.0,0.0,0.0,0.0,0.0,0.0,0.0,0.0,0.0,0.0,0.0,0.0,0.0,0.0,0.0,0.0,0.6966,0.7146,0.7333,0.7601,0.0,0.0,0.0,0.9886,1.0094,0.0,0.0,0.0,0.0,0.0,0.0,0.0,0.0,0.0,0.0,0.0,0.0,0.0,0.0,0.0,0.0,0.0,0.0,0.0,0.0,0.0,0.0,0.0,0.0,0.0,0.0,0.0,0.0,0.0,0.0,0.0,0.0,0.0,0.0,0.0,0.0,0.0,0.0,0.0,0.0,0.0,0.0,0.0,0.0,0.0,0.0,0.0,0.0,0.0,0.0,0.0,0.0,0.0,0.0,0.0,-1.0025,-1.0354,-1.0431,-1.0364,-1.004,-0.9262,-0.8678,-0.8291,-0.7316,-0.6421,0.0,0.0,0.0,0.0,0.0,0.0,0.0,0.0,0.0,0.0,0.0,0.0,0.0,0.0,0.0,0.0,0.0,0.0,0.0,0.0,0.0,0.0,0.0,0.0,0.0,0.0,0.0,0.0,0.0,0.0,0.0,0.0,0.0,0.0,0.0,0.0,0.0,0.0,0.0,0.0,0.0,0.0,0.662,0.6931,0.0,0.0,0.0,0.9361,0.9869,0.0,0.0,0.0,0.0,0.0,0.0,0.0,0.0,0.0,0.0,0.0,0.0,0.0,0.0,0.0,0.0,0.0,0.0,0.0,0.0,0.0,0.0,0.0,0.0,0.0,0.0,0.0,0.0,0.0,0.0,0.0,0.0,0.0,0.0,0.0,0.0,0.0,0.0,0.0,0.0,0.0,0.0,0.0,0.0,0.0,0.0,0.0,0.0,0.0,0.0,0.0,0.0,0.0,0.0,0.0,0.0,0.0,-1.0667,-1.0688,-1.0624,-1.0555,-0.9907,-0.946,-0.9332,-0.842,0.0,0.0,0.0,0.0,0.0,0.0,0.0,0.0,0.0,0.0,0.0,0.0,0.0,0.0,0.0,0.0,0.0,0.0,0.0,0.0,0.0,0.0,0.0,0.0,0.0,0.0,0.0,0.2805,0.0,0.0,0.0,0.0,0.0,0.0,0.0,0.0,0.0,0.0,0.0,0.0,0.0,0.0,0.5811,0.6061,0.6561,0.7068,0.0,0.0,0.921,0.9862,0.9813,0.9646,0.0,0.0,0.0,0.0,0.0,0.0,0.0,0.0,0.0,0.0,0.0,0.0,0.0,0.0,0.0,0.0,0.0,0.0,0.0,0.0,0.0,0.0,0.0,0.0,0.0,0.0,0.0,0.0,0.0,0.0,0.0,0.0,0.0,0.0,0.0,0.0,0.0,0.0,0.0,0.0,0.0,0.0,0.0,0.0,0.0,0.0,0.0,0.0,0.0,0.0,0.0,0.0,0.0,0.0,0.0,-1.078,-1.08,-1.0744,-1.0561,-0.9907,-0.9518,-0.9454,-0.8812,-0.8047,0.0,0.0,0.0,0.0,0.0,0.0,0.0,0.0,0.0,0.0,0.0,0.0,0.0,0.0,0.0,0.0,0.0,0.0,0.0,0.0,0.0,0.0,0.0,0.0,0.0,0.0,0.0,0.0,0.0,0.0,0.0,0.0,0.0,0.0,0.0,0.0,0.0,0.0,0.0,0.0,0.0,0.5506,0.5612,0.6294,0.6868,0.0,0.0,0.921,0.9734,0.9907,0.9863,0.9653,0.0,0.0,0.0,0.0,0.0,0.0,0.0,0.0,0.0,0.0,0.0,0.0,0.0,0.0,0.0,0.0,0.0,0.0,0.0,0.0,0.0,0.0,0.0,0.0,0.0,0.0,0.0,0.0,0.0,0.0,0.0,0.0,0.0,0.0,0.0,0.0,0.0,0.0,0.0,0.0,0.0,0.0,0.0,0.0,0.0,0.0,0.0,0.0,0.0,0.0,0.0,0.0,0.0,-1.0317,-1.0793,-1.0744,-1.0681,-1.0624,-1.0295,-1.0168,-1.0174,-0.9658,-0.9018,0.0,0.0,0.0,0.0,0.0,0.0,0.0,0.0,0.0,0.0,0.0,0.0,0.0,0.0,0.0,0.0,0.0,0.0,0.0,0.0,0.0,0.0,0.0,0.0,0.0,0.0,0.0,0.0,0.2397,0.2699,0.3303,0.0,0.0,0.0,0.0,0.0,0.0,0.0,0.0,0.0,0.0,0.5346,0.602,0.6032,0.0,0.0,0.8236,0.863,0.9408,0.9536,0.9446,0.9124,0.8932,0.0,0.0,0.0,0.0,0.0,0.0,0.0,0.0,0.0,0.0,0.0,0.0,0.0,0.0,0.0,0.0,0.0,0.0,0.0,0.0,0.0,0.0,0.0,0.0,0.0,0.0,0.0,0.0,0.0,0.0,0.0,0.0,0.0,0.0,0.0,0.0,0.0,0.0,0.0,0.0,0.0,0.0,0.0,0.0,0.0,0.0,0.0,0.0,0.0,0.0,0.0,0.0,-1.0647,-1.1052,-1.087,-1.0807,-1.0744,-1.0751,-1.0751,-1.0744,-1.0428,-0.9882,0.0,0.0,0.0,0.0,0.0,0.0,0.0,0.0,0.0,0.0,0.0,0.0,0.0,0.0,0.0,0.0,0.0,0.0,0.0,0.0,0.0,0.0,0.0,0.0,0.0,0.0,0.0,0.0,0.1958,0.2377,0.319,0.0,0.0,0.0,0.0,0.0,0.0,0.0,0.0,0.0,0.0,0.5246,0.5986,0.5881,0.6334,0.7967,0.8107,0.8306,0.9081,0.921,0.9087,0.8851,0.0,0.0,0.0,0.0,0.0,0.0,0.0,0.0,0.0,0.0,0.0,0.0,0.0,0.0,0.0,0.0,0.0,0.0,0.0,0.0,0.0,0.0,0.0,0.0,0.0,0.0,0.0,0.0,0.0,0.0,-0.7149,0.0,0.0,0.0,0.0,0.0,0.0,0.0,0.0,0.0,0.0,0.0,0.0,0.0,0.0,0.0,0.0,0.0,0.0,0.0,0.0,0.0,0.0,0.0,-1.1553,-1.138,-1.1254,-1.108,-1.1066,-1.108,-1.108,-1.0877,-1.0541,-0.9945,0.0,0.0,0.0,0.0,0.0,0.0,0.0,0.0,0.0,0.0,0.0,0.0,0.0,0.0,0.0,0.0,0.0,0.0,0.0,0.0,0.0,0.0,0.0,0.0,0.0,0.0,0.0825,0.1705,0.2434,0.0,0.0,0.0,0.0,0.0,0.0,0.0,0.0,0.0,0.0,0.4817,0.4935,0.5404,0.5818,0.6404,0.7391,0.7912,0.8366,0.8952,0.9017,0.9017,0.0,0.0,0.0,0.0,0.0,0.0,0.0,0.0,0.0,0.0,0.0,0.0,0.0,0.0,0.0,0.0,0.0,0.0,0.0,0.0,0.0,0.0,0.0,0.0,0.0,0.0,0.0,-0.8354,-0.8417,0.0,0.0,0.0,0.0,0.0,0.0,0.0,0.0,0.0,0.0,0.0,-1.3159,-1.3159,0.0,0.0,0.0,0.0,0.0,0.0,0.0,0.0,0.0,0.0,0.0,0.0,-1.1867,-1.2045,-1.2052,-1.1963,-1.1727,-1.1668,-1.1668,-1.1675,-1.1469,-1.0969,-1.0171,0.0,0.0,0.0,0.0,0.0,0.0,0.0,0.0,0.0,0.0,0.0,0.0,0.0,0.0,0.0,0.0,0.0,0.0,0.0,0.0,0.0,0.0,0.0,0.0,0.0,-0.0118,0.0,0.0,0.0,0.0,0.0,0.0,0.0,0.0,0.0,0.0,0.0,0.4584,0.4677,0.477,0.5104,0.5939,0.5881,0.6338,0.0,0.0,0.0,0.0,0.0,0.0,0.0,0.0,0.0,0.0,0.0,0.0,0.0,0.0,0.8922,0.8454,0.8639,0.8872,0.8999,0.0,0.0,0.0,0.0,0.0,0.0,0.0,0.0,0.0,0.0,0.0,0.0,0.0,0.0,0.0,0.0,-0.9408,0.0,0.0,0.0,0.0,0.0,0.0,0.0,0.0,-1.3007,-1.3471,-1.3696,-1.3696,-1.3705,0.0,-1.3521,-1.3345,0.0,0.0,0.0,0.0,0.0,0.0,0.0,0.0,-1.2583,-1.2538,-1.2783,-1.2689,-1.2173,-1.218,-1.218,-1.218,-1.1976,-1.1465,-1.052,-0.9608,-0.8647,0.0,0.0,0.0,0.0,0.0,0.0,0.0,0.0,0.0,0.0,0.0,0.0,0.0,0.0,0.0,0.0,0.0,0.0,0.0,0.0,0.0,0.0,0.0,-0.0361,0.0,0.0,0.0,0.0,0.0,0.0,0.0,0.0,0.0,0.4005,0.4205,0.4385,0.4558,0.4835,0.5286,0.6079,0.0,0.0,0.0,0.0,0.0,0.0,0.0,0.873,0.8528,0.8764,0.9028,0.9179,0.9206,0.9206,0.9206,0.0,0.0,0.8659,0.8798,0.9098,0.9227,0.9557,0.9934,1.03,1.0615,1.0972,0.0,0.0,0.0,0.0,0.0,0.0,0.0,0.0,-0.9914,-0.9935,0.0,-0.9701,0.0,0.0,0.0,0.0,0.0,0.0,0.0,0.0,-1.3824,-1.437,-1.4205,-1.4197,-1.4222,-1.423,-1.4065,-1.4271,-1.4733,-1.357,0.0,0.0,0.0,0.0,0.0,0.0,-1.3642,-1.3132,-1.3515,-1.3357,-1.2562,-1.2555,-1.2495,-1.2562,-1.2359,-1.1943,-1.1086,-1.1005,-1.0067,-0.8132,-0.7637,0.0,0.0,0.0,0.0,0.0,0.0,0.0,0.0,0.0,0.0,0.0,0.0,0.0,0.0,0.0,0.0,0.0,0.0,0.0,0.0,-0.0619,0.0,0.0,0.0,0.0,0.0,0.0,0.0,0.0,0.0,0.0,0.3739,0.387,0.4038,0.4556,0.0,0.0,0.0,0.0,0.7305,0.7723,0.8101,0.8367,0.8503,0.8709,0.8775,0.8564,0.0,0.0,0.9162,0.9157,0.9173,0.9162,0.9195,0.9168,0.9168,0.9346,0.9502,0.9513,0.981,1.0096,1.0335,1.0706,1.1143,-1.4736,0.0,0.0,0.0,0.0,-1.1451,-1.1451,-1.1581,-1.1588,-1.1574,-1.1588,-1.1386,0.0,0.0,0.0,0.0,0.0,0.0,-1.2818,-1.3217,-1.3876,-1.4238,-1.4444,-1.4444,-1.4444,-1.4444,-1.4378,-1.4453,-1.4558,-1.4213,-1.3924,-1.3735,0.0,0.0,0.0,0.0,-1.4469,-1.4171,-1.4512,-1.4223,-1.3214,-1.3214,-1.315,-1.2999,-1.2928,-1.2678,-1.2102,-1.1583,-1.0918,-1.0153,-0.7956,0.0,0.0,0.0,0.0,0.0,0.0,0.0,0.0,0.0,0.0,0.0,0.0,0.0,0.0,0.0,0.0,0.0,0.0,0.0,-0.1018,-0.0637,-0.0192,0.0,0.0,0.0,0.0,0.0,0.0,0.0,0.0,0.0,0.361,0.4026,0.4551,0.0,0.0,0.5881,0.6588,0.6913,0.7227,0.7719,0.0,0.0,0.0,0.8216,0.8421,0.8887,0.8955,0.8822,0.8817,0.8817,0.8822,0.8822,0.8949,0.9057,0.9037,0.9326,0.9634,0.9906,1.0232,1.0568,1.0887,1.1218,1.151,-1.6862,-1.5495,-1.4471,-1.3443,-1.2526,-1.2323,-1.2255,-1.239,-1.239,-1.239,-1.239,-1.2248,-1.2119,-1.1983,-1.1847,0.0,0.0,0.0,-1.3051,-1.3316,-1.366,-1.3937,-1.4074,-1.4074,-1.4142,-1.4134,-1.4074,-1.4271,-1.4536,-1.4408,-1.4354,-1.4261,0.0,0.0,-1.4042,-1.4517,-1.4612,-1.4283,-1.4653,-1.4473,-1.3492,-1.3492,-1.3419,-1.3346,-1.3346,-1.3179,-1.2921,-1.2391,-1.1891,-1.1318,-0.9667,-0.848,0.0,0.0,0.0,0.0,0.0,0.0,0.0,0.0,0.0,0.0,0.0,-0.3362,0.0,0.0,0.0,0.0,-0.1602,-0.118,-0.1133,-0.0868,0.0,0.0,0.0,0.0,0.0,0.0,0.0,0.2904,0.3164,0.3436,0.3667,0.4111,0.4693,0.5297,0.5875,0.6448,0.6952,0.0,0.7492,0.7776,0.7843,0.7892,0.8038,0.8107,0.8377,0.8896,0.8694,0.8581,0.8754,0.8888,0.8862,0.888,0.8974,0.9058,0.9058,0.932,0.9571,1.002,1.0393,1.0784,1.1008,1.1352,1.1665,-1.8442,-1.7279,-1.5402,-1.399,-1.2946,-1.2735,-1.2599,-1.2599,-1.2599,-1.2592,-1.2599,-1.2599,-1.2531,-1.2402,-1.2402,0.0,-1.2409,-1.2837,-1.3045,-1.306,-1.3353,-1.3492,-1.3492,-1.3484,-1.3492,-1.3484,-1.3492,-1.384,-1.4458,-1.4194,-1.4182,-1.434,-1.4093,-1.3915,-1.3907,-1.4334,-1.4316,-1.3816,-1.4308,-1.4258,-1.3492,-1.3492,-1.3492,-1.3492,-1.3492,-1.3492,-1.3492,-1.3346,-1.276,-1.1904,-1.2226,-1.1172,-0.8497,0.0,0.0,0.0,0.0,0.0,0.0,0.0,0.0,0.0,0.0,0.0,0.0,0.0,0.0,0.0,-0.1771,0.0,-0.1406,-0.1195,0.0,0.0,0.0,0.0342,0.1402,0.1825,0.2267,0.3123,0.0,0.0,0.3843,0.0,0.4502,0.5128,0.6126,0.6921,0.7068,0.7582,0.7903,0.7829,0.7992,0.8043,0.803,0.82,0.8372,0.8548,0.8264,0.8216,0.8727,0.8935,0.9055,0.9045,0.9087,0.9096,0.9096,0.9182,0.937,0.9789,1.035,1.0832,1.0969,1.1288,1.1678,-1.8442,-1.7385,-1.6915,-1.5739,-1.4159,-1.4151,-1.3813,-1.3265,-1.3265,-1.3265,-1.3265,-1.3265,-1.3265,-1.3193,-1.3193,-1.3193,-1.3193,-1.3345,-1.3382,-1.3389,-1.3462,-1.3492,-1.3492,-1.3492,-1.3492,-1.3492,-1.3492,-1.3564,-1.3775,-1.3702,-1.3673,-1.3727,-1.3645,-1.3831,-1.4255,-1.4465,-1.4498,-1.4411,-1.4561,-1.425,-1.3492,-1.3492,-1.3492,-1.3492,-1.3492,-1.3492,-1.3492,-1.3499,-1.3237,-1.286,-1.3057,-1.2036,-0.9472,-0.7749,0.0,0.0,0.0,0.0,0.0,0.0,0.0,0.0,0.0,-0.4728,-0.4511,0.0,-0.4282,0.0,-0.2336,-0.1589,-0.1516,-0.1228,0.0,0.0,-0.0644,0.0143,0.1444,0.1659,0.2168,0.3058,0.3409,0.3603,0.3624,0.4222,0.4722,0.4991,0.5825,0.6673,0.7442,0.7622,0.7651,0.7749,0.7815,0.7853,0.7857,0.7797,0.7866,0.8124,0.8077,0.8106,0.8196,0.8225,0.8254,0.8267,0.8384,0.8459,0.856,0.8926,0.928,0.9452,1.002,1.0627,1.1054,1.1481,1.169,-1.8654,-1.7959,-1.7687,-1.6715,-1.5313,-1.4816,-1.433,-1.3977,-1.363,-1.3492,-1.3492,-1.3492,-1.3492,-1.3492,-1.3492,-1.3492,-1.3492,-1.3492,-1.3492,-1.3492,-1.3492,-1.3492,-1.3492,-1.3492,-1.3492,-1.3492,-1.3492,-1.3492,-1.3492,-1.3492,-1.3492,-1.3492,-1.3492,-1.3685,-1.3995,-1.405,-1.408,-1.4114,-1.4122,-1.3912,-1.3492,-1.3492,-1.3492,-1.3492,-1.3492,-1.3492,-1.3492,-1.3492,-1.3419,-1.3339,-1.3455,-1.2555,-1.0425,-0.8295,-0.7089,0.0,0.0,0.0,0.0,0.0,0.0,0.0,0.0,0.0,0.0,0.0,-0.4932,-0.3824,-0.257,-0.1781,-0.1781,-0.1557,-0.1403,-0.1314,-0.1093,-0.0439,0.0741,0.1258,0.1858,0.2784,0.3353,0.3685,0.3689,0.4079,0.4612,0.5314,0.5845,0.65,0.7556,0.7745,0.7799,0.789,0.7889,0.787,0.787,0.7865,0.7839,0.8016,0.8168,0.8225,0.8138,0.8207,0.826,0.8268,0.8345,0.841,0.8418,0.8748,0.8999,0.9336,0.9607,1.0091,1.088,1.1257,1.1527,-1.9101,-1.8832,-1.8066,-1.732,-1.6528,-1.5303,-1.4689,-1.4466,-1.3848,-1.3492,-1.3492,-1.3492,-1.3492,-1.3492,-1.3492,-1.3514,-1.3558,-1.3558,-1.3579,-1.3616,-1.3616,-1.3623,-1.3623,-1.3616,-1.3616,-1.3623,-1.3623,-1.3616,-1.3616,-1.3616,-1.3616,-1.3616,-1.3623,-1.3623,-1.3616,-1.3579,-1.3543,-1.3492,-1.3492,-1.3492,-1.3492,-1.3492,-1.3492,-1.3492,-1.3492,-1.3492,-1.3492,-1.3492,-1.3492,-1.3492,-1.3462,-1.2725,-1.1222,-0.908,-0.7966,0.0,-0.7335,0.0,0.0,0.0,0.0,0.0,0.0,0.0,0.0,-0.6117,-0.5393,-0.4223,-0.2961,-0.2283,-0.236,-0.2131,-0.1887,-0.1551,-0.1547,-0.1188,-0.0152,0.0683,0.1533,0.2435,0.3229,0.3783,0.3801,0.3869,0.4403,0.5705,0.6049,0.6503,0.7631,0.7927,0.7983,0.8012,0.8036,0.8061,0.8006,0.8101,0.8105,0.8026,0.8139,0.8414,0.8239,0.836,0.8468,0.8468,0.8548,0.856,0.8564,0.8568,0.874,0.9087,0.9248,0.9593,1.0376,1.0906,1.1262,-1.9565,-1.93,-1.8436,-1.8124,-1.8054,-1.6504,-1.5141,-1.3928,-1.379,-1.3645,-1.3492,-1.3492,-1.3492,-1.3492,-1.3492,-1.3638,-1.3887,-1.3894,-1.4033,-1.4282,-1.4289,-1.4282,-1.4289,-1.4289,-1.4282,-1.4289,-1.4282,-1.4282,-1.4282,-1.4282,-1.4282,-1.4282,-1.4282,-1.4282,-1.4275,0.0,0.0,0.0,-1.3492,-1.3492,-1.3492,-1.3492,-1.3492,-1.3492,-1.3492,0.0,-1.3492,-1.3492,-1.3492,-1.3499,-1.3294,0.0,0.0,0.0,0.0,0.0,0.0,0.0,0.0,0.0,0.0,0.0,-0.6822,-0.662,-0.6399,-0.6165,-0.579,-0.5334,-0.4735,-0.4042,-0.3269,-0.2958,-0.2565,-0.194,-0.1783,-0.1397,-0.0389,0.0467,0.1413,0.2491,0.3308,0.3901,0.3884,0.3918,0.4675,0.6175,0.6366,0.6773,0.8022,0.801,0.802,0.802,0.815,0.8203,0.817,0.8174,0.8068,0.7937,0.7861,0.7884,0.7975,0.7998,0.8116,0.8204,0.8292,0.8384,0.8568,0.8572,0.8656,0.874,0.8999,0.9432,1.0038,1.0467,1.0722,-2.0019,0.0,-1.9088,-1.8836,0.0,-1.7243,-1.5988,-1.4985,-1.4486,-1.4193,-1.3975,-1.3975,-1.3975,-1.3975,-1.3975,-1.4062,-1.4223,-1.4216,-1.4311,-1.4465,-1.4465,-1.4465,-1.4465,-1.4465,-1.4465,-1.4465,-1.4465,-1.4465,-1.4465,-1.4465,-1.4465,-1.4465,-1.4465,-1.4465,-1.4465,-1.4304,-1.3982,-1.3499,-1.3492,-1.3492,-1.3492,-1.3492,-1.3492,-1.3492,0.0,0.0,0.0,0.0,0.0,0.0,0.0,0.0,0.0,0.0,0.0,-0.951,-0.9336,-0.8915,-0.8,-0.7726,-0.7418,-0.7155,-0.7167,-0.7106,-0.6799,-0.635,-0.609,-0.5925,-0.5389,-0.4613,-0.3679,-0.3522,-0.3056,-0.2198,-0.2042,-0.1811,-0.1114,-0.008,0.0804,0.1478,0.2724,0.3487,0.3275,0.3567,0.4095,0.5122,0.5642,0.6231,0.7187,0.7819,0.811,0.7944,0.8006,0.8099,0.8093,0.8025,0.794,0.794,0.7852,0.7764,0.7856,0.7944,0.7944,0.8028,0.8025,0.8116,0.8296,0.8384,0.8476,0.8568,0.8828,0.9003,0.9262,0.9864,1.0381,-2.0555,-2.0473,-1.974,-1.9478,-1.9399,-1.7983,-1.7081,-1.6434,0.0,0.0,0.0,-1.455,-1.455,-1.4543,-1.455,-1.4501,-1.4545,-1.4553,-1.4582,-1.4633,-1.464,-1.464,-1.4633,-1.464,-1.464,-1.464,-1.464,-1.464,-1.464,-1.464,-1.464,-1.464,-1.464,-1.4611,-1.4553,-1.4553,-1.426,-1.3697,-1.3667,-1.3667,-1.3579,-1.366,-1.3667,-1.3675,-1.3667,-1.3667,-1.3667,-1.3667,-1.3667,-1.3667,-1.3615,-1.3135,-1.2149,-1.1932,-1.1335,-1.0327,-1.0005,-0.9537,-0.8536,-0.826,-0.7834,-0.7265,-0.7399,-0.7423,-0.7281,-0.6786,-0.6395,-0.6472,-0.5854,-0.5076,-0.4144,-0.4006,-0.3542,-0.2367,-0.2298,-0.2243,-0.2038,-0.0653,0.0329,0.0504,0.2027,0.3049,0.2728,0.3112,0.3491,0.393,0.4856,0.5711,0.6508,0.7555,0.8082,0.7914,0.7914,0.7937,0.7856,0.7856,0.7768,0.7764,0.7676,0.7764,0.7764,0.7764,0.7764,0.7856,0.7856,0.794,0.8113,0.8201,0.8292,0.8476,0.8568,0.8576,0.8689,0.9222,0.9837,-2.101,-2.0947,-2.0113,-2.0029,-2.0275,-1.9334,-1.84,-1.7321,-1.541,-1.4613,-1.4754,-1.4543,-1.4621,-1.4754,-1.4543,-1.4618,-1.4867,-1.4874,-1.5028,0.0,-1.5292,-1.5292,-1.5299,-1.5292,-1.5299,-1.5299,-1.5299,-1.5292,-1.5292,-1.5292,-1.5299,-1.5284,-1.5299,-1.5153,-1.4896,-1.4874,-1.4699,-1.4348,-1.4333,-1.4241,-1.4057,-1.4241,-1.4333,-1.4333,-1.4318,-1.4333,-1.4333,-1.4318,-1.4333,-1.4333,-1.4178,-1.3894,-1.3395,-1.2487,-1.1362,-1.0237,-0.937,-0.8538,-0.7711,-0.7635,-0.7571,-0.7443,-0.7472,-0.7472,-0.7452,-0.7391,-0.7326,-0.733,-0.7184,-0.6475,-0.5082,-0.4862,-0.4275,-0.2834,-0.2551,-0.2586,-0.2343,-0.092,0.0084,0.0345,0.1729,0.2789,0.2738,0.2933,0.3204,0.3829,0.4634,0.5805,0.6874,0.7676,0.7944,0.7944,0.7944,0.7768,0.7591,0.7595,0.7503,0.7231,0.7228,0.7319,0.7319,0.7319,0.7319,0.7503,0.7591,0.768,0.7856,0.8113,0.8208,0.8304,0.8496,0.8621,0.8751,0.8968,0.9152,-2.1487,-2.1411,-2.111,-2.107,-2.1165,-2.0216,-1.9265,-1.8284,-1.7234,-1.623,-1.5534,-1.5212,-1.5212,-1.5285,-1.5065,-1.5065,-1.5211,-1.5204,-1.5284,-1.5423,-1.5431,-1.5431,-1.5431,-1.5431,-1.5431,-1.5431,-1.5431,-1.5431,-1.5431,-1.5431,-1.5431,-1.5431,-1.5431,-1.535,-1.5218,-1.5211,-1.5138,-1.4984,-1.4648,-1.4558,-1.4821,-1.4643,-1.4465,-1.4465,-1.4465,-1.4465,-1.4465,-1.4465,-1.4465,-1.4465,-1.4387,-1.408,-1.3543,-1.3381,-1.2602,-1.1068,-1.0823,-1.0042,-0.8634,-0.8087,-0.7772,-0.7768,-0.7772,-0.7768,-0.7772,-0.7687,-0.763,-0.7638,-0.7715,-0.7285,-0.608,-0.5569,-0.4784,-0.3555,-0.3008,-0.2706,-0.2477,-0.1283,-0.0345,-0.0088,0.1326,0.2308,0.2059,0.2332,0.2422,0.2686,0.3755,0.5267,0.6343,0.7058,0.7496,0.7499,0.7499,0.7408,0.7323,0.7323,0.7231,0.7139,0.7139,0.7139,0.7139,0.7139,0.7143,0.7231,0.7323,0.7411,0.7683,0.7768,0.7974,0.8333,0.8438,0.8599,0.883,0.9035,0.9291,-2.1807,-2.1807,-2.1807,-2.1807,-2.1731,-2.0682,-1.9885,-1.9256,-1.893,-1.806,-1.6886,-1.6221,-1.5974,-1.5824,-1.5499,-1.5423,-1.5423,-1.5431,-1.5431,-1.5431,-1.5431,-1.5431,-1.5431,-1.5431,-1.5431,-1.5431,-1.5431,-1.5431,-1.5431,-1.5431,-1.5431,-1.5431,-1.5431,-1.5431,-1.5431,-1.5431,-1.5431,-1.5401,-1.494,-1.4959,-1.5336,-1.4959,-1.4684,-1.4684,-1.4692,-1.4684,-1.4684,-1.4684,-1.4684,-1.4692,-1.4684,-1.4331,-1.3691,-1.4008,-1.3478,-1.1976,-1.1958,-1.1318,-0.9634,-0.8746,-0.8258,-0.8012,-0.8012,-0.8012,-0.8004,-0.7935,-0.7858,-0.7841,-0.7923,-0.7671,-0.6843,-0.5963,-0.5063,-0.4227,-0.3318,-0.2756,-0.2707,-0.1663,-0.0792,-0.0537,0.0807,0.1614,0.1525,0.1795,0.1973,0.2151,0.3221,0.4556,0.5539,0.652,0.7051,0.7139,0.7139,0.7139,0.7139,0.7139,0.7139,0.7139,0.7139,0.7139,0.7139,0.7139,0.7139,0.7139,0.7139,0.7255,0.7453,0.756,0.7803,0.82,0.8428,0.8666,0.9116,0.9287,0.9497,-2.1807,-2.1807,-2.1807,-2.1807,-2.1731,-2.0847,-2.0459,-2.0304,-1.958,-1.9177,-1.878,-1.7488,-1.669,-1.6319,-1.5748,-1.5582,-1.5658,-1.5506,-1.5431,-1.5431,-1.5431,-1.5431,-1.5431,-1.5431,-1.5431,-1.5431,-1.5431,-1.5431,-1.5431,-1.5431,-1.5431,-1.5431,-1.5431,-1.5431,-1.5431,-1.5431,-1.5431,-1.5431,-1.5372,-1.5343,-1.5433,-1.5343,-1.5343,-1.5343,-1.5335,-1.5335,-1.5306,-1.5343,-1.5335,-1.5335,-1.5321,-1.5032,-1.4522,-1.3892,-1.3272,-1.2632,-1.173,-1.0675,-0.9552,-0.9308,-0.8923,-0.809,-0.8032,-0.8032,-0.8036,-0.8158,-0.8166,-0.8048,-0.8012,-0.771,-0.6861,-0.6048,-0.5175,-0.4411,-0.3515,-0.286,-0.2771,-0.2148,-0.1432,-0.0807,0.009,0.0807,0.1256,0.1525,0.1793,0.2419,0.3489,0.4556,0.5447,0.6428,0.7139,0.7139,0.7139,0.7139,0.7139,0.7139,0.7139,0.7139,0.7139,0.7139,0.7139,0.7139,0.7143,0.7183,0.716,0.7204,0.7396,0.7535,0.7763,0.8091,0.843,0.8843,0.9204,0.9462,0.9661,-2.2262,-2.1807,-2.1807,-2.1807,-2.1731,-2.1405,-2.1252,-2.1242,-2.0934,-2.0537,-1.9972,-1.9246,-1.8532,-1.7827,-1.6772,-1.6363,-1.6453,-1.5741,-1.5431,-1.5431,-1.5431,-1.5431,-1.5431,-1.5431,-1.5431,-1.5431,-1.5431,-1.5431,-1.5431,-1.5431,-1.5431,-1.5431,-1.5431,-1.5431,-1.5431,-1.5431,-1.5431,-1.5431,-1.5431,-1.5431,-1.5431,-1.5431,-1.5431,-1.5431,-1.5431,-1.5431,-1.5431,-1.5431,-1.5431,-1.5431,-1.5431,-1.5289,-1.5076,-1.4799,-1.4234,-1.3359,-1.2094,-1.0931,-0.9771,-0.9682,-0.9351,-0.8422,-0.8341,-0.8341,-0.8341,-0.8414,-0.8418,-0.8357,-0.8337,-0.817,-0.7823,-0.701,-0.6081,-0.5215,-0.4279,-0.3499,-0.2964,-0.2244,-0.1525,-0.0807,-0.009,0.0628,0.1256,0.1436,0.1614,0.2151,0.3221,0.4467,0.4914,0.616,0.7051,0.7139,0.7139,0.7139,0.7139,0.7139,0.7139,0.7139,0.7139,0.7139,0.7146,0.7139,0.7163,0.7258,0.7275,0.7333,0.7482,0.7602,0.7733,0.8062,0.859,0.9142,0.9502,0.9571,0.962,-2.2402,-2.1807,-2.1807,-2.1807,-2.1807,-2.1807,-2.1807,-2.1807,-2.1807,-2.1415,-2.0857,-2.0692,-2.0285,-1.9492,-1.7802,-1.709,-1.7009,-1.5906,-1.5423,-1.5506,-1.5431,-1.5431,-1.5431,-1.5431,-1.5431,-1.5431,-1.5431,-1.5431,-1.5431,-1.5431,-1.5431,-1.5431,-1.5431,-1.5431,-1.5431,-1.5431,-1.5431,-1.5431,-1.5431,-1.5431,-1.5431,-1.5431,-1.5431,-1.5431,-1.5431,-1.5431,-1.5431,-1.5431,-1.5431,-1.5431,-1.5431,-1.5431,-1.5431,-1.5431,-1.4999,-1.4132,-1.319,-1.2077,-1.0885,-1.0712,-1.0371,-0.9432,-0.9174,-0.8999,-0.8911,-0.874,-0.8568,-0.856,-0.8572,-0.8556,-0.848,-0.7676,-0.6786,-0.6074,-0.5097,-0.4034,-0.332,-0.2602,-0.1885,-0.1076,-0.0448,0.0448,0.1166,0.1436,0.1436,0.1614,0.2864,0.4111,0.4467,0.5625,0.6782,0.7051,0.7139,0.7139,0.7139,0.7139,0.7139,0.7139,0.7143,0.7156,0.7183,0.7204,0.7258,0.7394,0.7417,0.7489,0.7617,0.7665,0.7794,0.8229,0.8743,0.9213,0.9406,0.9529,0.9628,-2.2025,-2.1807,-2.1807,-2.1807,-2.1807,-2.1807,-2.1807,-2.1807,-2.1807,-2.1731,-2.1655,-2.1645,-2.1655,-2.1328,-1.8514,-1.7261,-1.7448,-1.6154,-1.5582,-1.5658,-1.5506,-1.5431,-1.5431,-1.5431,-1.5431,-1.5431,-1.5431,-1.5431,-1.5431,-1.5431,-1.5431,-1.5431,-1.5431,-1.5431,-1.5431,-1.5431,-1.5431,-1.5431,-1.5431,-1.5431,-1.5431,-1.5431,-1.5431,-1.5431,-1.5431,-1.5431,-1.5431,-1.5431,-1.5431,-1.5431,-1.5431,-1.5431,-1.5431,-1.5431,-1.5257,-1.4999,-1.4915,-1.4223,-1.2936,-1.2674,-1.2254,-1.1235,-1.0289,-0.9859,-0.9772,-0.9174,-0.874,-0.8656,-0.8656,-0.8568,-0.8568,-0.7852,-0.7139,-0.6874,-0.5364,-0.4478,-0.421,-0.3318,-0.2603,-0.1795,-0.0987,0.009,0.1256,0.1436,0.1436,0.1615,0.233,0.3312,0.4113,0.5095,0.5985,0.6697,0.6962,0.7051,0.7139,0.7139,0.7139,0.7173,0.7204,0.7207,0.7292,0.7377,0.7458,0.7529,0.757,0.7641,0.7753,0.7828,0.7969,0.8339,0.8579,0.8928,0.9232,0.943,0.9529,-2.2894,-2.1807,-2.1807,-2.1807,-2.1807,-2.1807,-2.1807,-2.1807,-2.1807,-2.1807,-2.1807,-2.1807,-2.1807,-2.1731,-1.9875,-1.8762,-1.8221,-1.7098,-1.6221,-1.5582,-1.5582,-1.5499,-1.5431,-1.5431,-1.5431,-1.5431,-1.5431,-1.5431,-1.5431,-1.5431,-1.5431,-1.5431,-1.5431,-1.5431,-1.5431,-1.5431,-1.5431,-1.5431,-1.5431,-1.5431,-1.5431,-1.5431,-1.5431,-1.5431,-1.5431,-1.5431,-1.5431,-1.5431,-1.5431,-1.5431,-1.5431,-1.5431,-1.5431,-1.5431,-1.534,-1.509,-1.509,-1.4482,-1.3269,-1.3021,-1.251,-1.1408,-1.0982,-1.0804,-1.0631,-0.9946,-0.9428,-0.9345,-0.8915,-0.8656,-0.8568,-0.8208,-0.7764,-0.7051,-0.5985,-0.501,-0.43,-0.3499,-0.2604,-0.1795,-0.0807,0.0359,0.1076,0.1436,0.1436,0.1524,0.224,0.2956,0.3401,0.4202,0.5181,0.5894,0.6251,0.6428,0.7051,0.7139,0.716,0.7251,0.7309,0.738,0.7458,0.7506,0.7577,0.7689,0.7733,0.778,0.7885,0.7929,0.8079,0.8287,0.8627,0.8829,0.9137,0.9331,0.9529,-2.3117,-2.1883,-2.1807,-2.1807,-2.1807,-2.1807,-2.1807,-2.1807,-2.1807,-2.1807,-2.1807,-2.1807,-2.1807,-2.1645,-2.1001,-2.0119,-1.8921,-1.7811,-1.6788,-1.5906,-1.5748,-1.5492,-1.5431,-1.5431,-1.5431,-1.5431,-1.5431,-1.5431,-1.5431,-1.5431,-1.5431,-1.5431,-1.5431,-1.5431,-1.5431,-1.5431,-1.5431,-1.5431,-1.5431,-1.5431,-1.5431,-1.5431,-1.5431,-1.5431,-1.5431,-1.5431,-1.5431,-1.5431,-1.5431,-1.5431,-1.5431,-1.5431,-1.5431,-1.5431,-1.534,-1.518,-1.5173,-1.4824,-1.388,-1.3613,-1.319,-1.2345,-1.1929,-1.1752,-1.1666,-1.089,-1.0289,-0.9859,-0.9428,-0.8911,-0.8656,-0.8572,-0.83,-0.7584,-0.6694,-0.5808,-0.483,-0.3942,-0.296,-0.1884,-0.0807,0.0269,0.0897,0.1256,0.1346,0.1436,0.2062,0.242,0.2956,0.34,0.4378,0.5453,0.5722,0.6281,0.6946,0.7248,0.7251,0.7329,0.7441,0.7522,0.7607,0.7651,0.7712,0.7828,0.7899,0.7943,0.7984,0.8024,0.8137,0.8233,0.8432,0.873,0.8931,0.9229,0.9426,-2.2553,-2.1807,-2.1807,-2.1807,-2.1807,-2.1807,-2.1807,-2.1807,-2.1807,-2.1807,-2.1807,-2.1807,-2.1807,-2.1797,-2.1645,-2.1088,-1.9816,-1.8212,-1.7253,-1.687,-1.6072,-1.5665,-1.5673,-1.559,-1.5431,-1.5431,-1.5431,-1.5431,-1.5431,-1.5431,-1.5431,-1.5431,-1.5431,-1.5431,-1.5431,-1.5431,-1.5431,-1.5431,-1.5431,-1.5431,-1.5431,-1.5431,-1.5431,-1.5431,-1.5431,-1.5431,-1.5431,-1.5431,-1.5431,-1.5431,-1.5431,-1.5431,-1.5431,-1.5431,-1.5431,-1.5347,-1.5431,-1.5257,-1.4999,-1.4657,-1.4391,-1.3971,-1.33,-1.2705,-1.2619,-1.1843,-1.0982,-1.0207,-0.9859,-0.9515,-0.8744,-0.8572,-0.8568,-0.848,-0.7496,-0.6605,-0.5719,-0.483,-0.3583,-0.2062,-0.1077,-0.0448,0.0269,0.0897,0.1166,0.1346,0.1525,0.1883,0.251,0.2776,0.3667,0.4919,0.5479,0.5787,0.6666,0.7377,0.7383,0.7414,0.7539,0.7645,0.7753,0.7818,0.7855,0.7946,0.7967,0.8004,0.8004,0.8038,0.8038,0.8134,0.8333,0.8531,0.873,0.9031,0.9331,-2.2025,-2.1807,-2.1807,-2.1807,-2.1807,-2.1807,-2.1807,-2.1807,-2.1807,-2.1807,-2.1807,-2.1807,-2.1807,-2.1807,-2.1807,-2.1492,-2.0944,-1.9728,-1.8691,-1.7836,-1.7594,-1.7359,-1.7033,-1.6542,-1.5982,-1.5514,-1.5431,-1.5431,-1.5431,-1.5431,-1.5431,-1.5431,-1.5431,-1.5431,-1.5431,-1.5431,-1.5431,-1.5431,-1.5431,-1.5431,-1.5431,-1.5431,-1.5431,-1.5431,-1.5431,-1.5431,-1.5431,-1.5431,-1.5431,-1.5431,-1.5431,-1.5431,-1.5431,-1.5431,-1.5431,-1.5431,-1.5431,-1.5249,-1.4908,-1.4741,-1.4573,-1.4243,-1.3822,-1.3737,-1.3568,-1.279,-1.1843,-1.089,-1.0289,-0.9515,-0.8828,-0.8572,-0.8572,-0.8572,-0.7672,-0.6786,-0.5719,-0.43,-0.296,-0.2064,-0.1615,-0.0897,0.0,0.0538,0.0807,0.1346,0.1436,0.1614,0.1793,0.1973,0.233,0.3492,0.4246,0.5218,0.6026,0.6683,0.6938,0.7139,0.741,0.777,0.7875,0.7936,0.798,0.8007,0.8028,0.8038,0.8038,0.8038,0.8038,0.8038,0.8237,0.8435,0.8531,0.8832,0.913,-2.2957,-2.267,-2.2317,-2.2392,-2.2531,-2.2101,-2.1949,-2.2176,-2.1883,-2.1807,-2.1807,-2.1807,-2.1807,-2.1807,-2.1807,-2.1655,-2.1349,-2.0934,-2.0138,-1.9036,-1.8479,-1.8318,-1.7997,-1.7513,-1.6698,-1.5982,-1.5906,-1.5673,-1.5431,-1.5431,-1.5431,-1.5431,-1.5431,-1.5431,-1.5431,-1.5431,-1.5431,-1.5431,-1.5431,-1.5431,-1.5431,-1.5431,-1.5431,-1.5431,-1.5431,-1.5431,-1.5431,-1.5431,-1.5431,-1.5431,-1.5431,-1.5431,-1.5431,-1.5431,-1.5431,-1.5431,-1.534,-1.5173,-1.4908,-1.4657,-1.4489,-1.4243,-1.4166,-1.4088,-1.3997,-1.3483,-1.279,-1.1929,-1.0977,-1.0033,-0.9257,-0.874,-0.8656,-0.8572,-0.8116,-0.7054,-0.5897,-0.4387,-0.3229,-0.2423,-0.1974,-0.1166,-0.0448,0.0448,0.0628,0.1256,0.1436,0.1436,0.1436,0.1436,0.1977,0.262,0.338,0.4356,0.5279,0.5852,0.6446,0.6866,0.7192,0.7625,0.7987,0.7997,0.8024,0.8024,0.8038,0.8038,0.8038,0.8038,0.8038,0.8137,0.8137,0.8237,0.8435,0.873,0.9031,-2.4909,-2.4047,-2.335,-2.3412,-2.3756,-2.2596,-2.2392,-2.2777,-2.2262,-2.1894,-2.1807,-2.1807,-2.1807,-2.1807,-2.1731,-2.1578,-2.1282,-2.1502,-2.1185,-2.0235,-1.9353,-1.863,-1.8238,-1.8086,-1.7594,-1.6862,-1.678,-1.6386,-1.5914,-1.5831,-1.5597,-1.5748,-1.5839,-1.559,-1.5831,-1.559,-1.5756,-1.5831,-1.5673,-1.559,-1.5673,-1.5431,-1.5514,-1.5506,-1.5431,-1.5431,-1.5431,-1.5431,-1.5431,-1.5431,-1.5431,-1.5431,-1.5431,-1.5431,-1.5347,-1.5347,-1.5173,-1.5082,-1.4915,-1.4657,-1.4391,-1.4321,-1.4166,-1.4088,-1.4088,-1.3997,-1.3483,-1.2619,-1.1837,-1.0977,-0.9946,-0.9257,-0.8832,-0.8568,-0.83,-0.7499,-0.5988,-0.4921,-0.3853,-0.3051,-0.2333,-0.1615,-0.0807,0.0269,0.0897,0.1256,0.1346,0.1436,0.1436,0.1529,0.1904,0.2378,0.2864,0.3574,0.4496,0.5158,0.5637,0.5955,0.6377,0.6898,0.763,0.7836,0.8038,0.8038,0.8038,0.8038,0.8038,0.8038,0.8038,0.8038,0.8137,0.8137,0.8336,0.863,0.8829,-2.4337,-2.4047,-2.3902,-2.3902,-2.4047,-2.361,-2.3265,-2.3001,-2.2992,-2.2445,-2.197,-2.1807,-2.1807,-2.1807,-2.1655,-2.1512,-2.1436,-2.1512,-2.1349,-2.0896,-2.0644,-1.9844,-1.9125,-1.8975,-1.8479,-1.7747,-1.7674,-1.7513,-1.735,-1.7196,-1.7196,-1.7269,-1.7196,-1.7269,-1.7277,-1.7196,-1.7277,-1.7196,-1.6624,-1.6706,-1.6952,-1.5997,-1.5741,-1.6304,-1.5741,-1.5431,-1.5431,-1.5431,-1.5431,-1.5431,-1.5431,-1.5431,-1.5347,-1.5264,-1.5173,-1.5166,-1.4915,-1.4734,-1.4566,-1.4482,-1.4314,-1.4159,-1.4166,-1.4088,-1.4088,-1.4088,-1.3659,-1.2881,-1.2363,-1.1671,-1.0289,-0.9689,-0.9257,-0.8652,-0.812,-0.7408,-0.6605,-0.5275,-0.421,-0.3853,-0.3139,-0.2243,-0.1436,-0.0807,0.009,0.0628,0.1076,0.1346,0.1346,0.1442,0.1726,0.1938,0.2432,0.2958,0.3692,0.4347,0.4794,0.5005,0.5316,0.5712,0.6628,0.7434,0.7736,0.8038,0.8038,0.8038,0.8038,0.8038,0.8038,0.8038,0.8038,0.8038,0.8137,0.8336,0.863,-2.5205,-2.5063,-2.4707,-2.4779,-2.4992,-2.4409,-2.3841,-2.3497,-2.3257,-2.2671,-2.1959,-2.1807,-2.1807,-2.1731,-2.1578,-2.1425,-2.1359,-2.1359,-2.1118,-2.0819,-2.0809,-2.0479,-1.9932,-1.9854,-1.9371,-1.8647,-1.8567,-1.8327,-1.7997,-1.7997,-1.7997,-1.7917,-1.7997,-1.7997,-1.7917,-1.7997,-1.7997,-1.7917,-1.7513,-1.7504,-1.7836,-1.7033,-1.687,-1.7025,-1.6386,-1.5824,-1.5506,-1.5748,-1.5831,-1.5514,-1.5431,-1.5347,-1.5257,-1.5173,-1.5082,-1.4915,-1.4741,-1.4566,-1.4398,-1.4321,-1.4243,-1.4088,-1.4088,-1.4088,-1.4088,-1.4088,-1.3743,-1.3398,-1.3253,-1.2558,-1.1332,-1.0376,-0.9515,-0.874,-0.8032,-0.7588,-0.7139,-0.5808,-0.483,-0.421,-0.3499,-0.2604,-0.1974,-0.1615,-0.0897,0.0,0.0628,0.0987,0.1257,0.1356,0.1463,0.1769,0.1901,0.2328,0.2558,0.3095,0.341,0.3621,0.3922,0.4323,0.5729,0.6833,0.7437,0.7739,0.7839,0.7939,0.7839,0.7839,0.8038,0.8038,0.8038,0.8038,0.8038,0.8237,0.8432,-2.6589,-2.6452,-2.5734,-2.5816,-2.6164,-2.4992,-2.4409,-2.412,-2.3632,-2.2863,-2.2153,-2.198,-2.197,-2.1807,-2.1502,-2.1359,-2.1205,-2.1215,-2.0964,-2.0731,-2.0644,-2.0489,-2.0489,-2.0411,-2.0098,-1.9539,-1.946,-1.9054,-1.8727,-1.8479,-1.8399,-1.8559,-1.8479,-1.8318,-1.8559,-1.8479,-1.8318,-1.8399,-1.8238,-1.8318,-1.8399,-1.8069,-1.7836,-1.7917,-1.7269,-1.655,-1.6229,-1.6386,-1.655,-1.5748,-1.5506,-1.5257,-1.509,-1.509,-1.4915,-1.4741,-1.4482,-1.4398,-1.4321,-1.4166,-1.4088,-1.4088,-1.4088,-1.4088,-1.4088,-1.4088,-1.4082,-1.3913,-1.407,-1.3449,-1.2363,-1.0971,-0.9593,-0.8815,-0.8556,-0.812,-0.7319,-0.6432,-0.5453,-0.4565,-0.3678,-0.2782,-0.2334,-0.2244,-0.2155,-0.0628,-0.0,0.0538,0.0992,0.1274,0.1388,0.1513,0.1641,0.1677,0.1696,0.1816,0.1917,0.2119,0.2318,0.2919,0.4926,0.6032,0.6836,0.7338,0.7637,0.7637,0.7537,0.764,0.7839,0.8038,0.8038,0.8038,0.8038,0.8233,0.8432,-2.6521,-2.6452,-2.6314,-2.6314,-2.6452,-2.6094,-2.5581,-2.5004,-2.4648,-2.3762,-2.2972,-2.2918,-2.2531,-2.1883,-2.1578,-2.1205,-2.1205,-2.1138,-2.0906,-2.0819,-2.0644,-2.0644,-2.0576,-2.0576,-2.0489,-2.0255,-2.0323,-2.0167,-2.0001,-1.9844,-2.001,-1.9923,-1.9766,-2.001,-1.9923,-1.9766,-2.0001,-1.9932,-1.9371,-1.9371,-1.952,-1.8718,-1.8407,-1.8816,-1.8167,-1.7674,-1.7521,-1.7594,-1.7594,-1.7107,-1.6139,-1.5333,-1.5166,-1.4824,-1.4566,-1.4489,-1.4328,-1.4166,-1.4166,-1.4166,-1.4088,-1.4088,-1.4088,-1.4088,-1.4088,-1.4088,-1.4088,-1.4088,-1.4102,-1.3587,-1.2425,-1.0885,-0.9758,-0.8965,-0.8636,-0.848,-0.8212,-0.7408,-0.634,-0.5542,-0.4565,-0.3676,-0.2782,-0.2694,-0.2334,-0.1346,-0.0628,0.009,0.0633,0.1098,0.1214,0.1334,0.1268,0.1392,0.1604,0.1617,0.1617,0.1617,0.1615,0.2016,0.3925,0.5129,0.5932,0.6734,0.7437,0.7338,0.7036,0.754,0.7739,0.7839,0.8038,0.8038,0.8038,0.8233,0.8428,-2.6521,-2.6521,-2.6521,-2.6521,-2.6521,-2.6452,-2.6025,-2.5382,-2.5193,-2.4539,-2.3705,-2.366,-2.3383,-2.282,-2.2155,-2.1787,-2.1558,-2.1031,-2.0741,-2.0741,-2.0654,-2.0566,-2.0576,-2.0576,-2.0576,-2.0576,-2.0566,-2.0576,-2.0576,-2.0576,-2.0489,-2.0576,-2.0576,-2.0489,-2.0576,-2.0576,-2.0566,-2.0489,-2.0167,-2.0167,-2.0323,-1.9756,-1.9045,-1.9371,-1.9134,-1.8966,-1.8078,-1.8407,-1.8327,-1.7836,-1.6944,-1.6057,-1.5484,-1.4901,-1.4482,-1.4243,-1.4166,-1.4088,-1.4088,-1.4088,-1.4088,-1.4088,-1.4088,-1.4088,-1.4088,-1.4088,-1.4088,-1.4088,-1.3997,-1.3646,-1.251,-1.1397,-1.0265,-0.9401,-0.8807,-0.8656,-0.848,-0.7676,-0.6962,-0.6163,-0.5099,-0.43,-0.3676,-0.3321,-0.2515,-0.1705,-0.1436,-0.0718,0.0091,0.0551,0.0844,0.0958,0.0982,0.1099,0.1509,0.1617,0.1617,0.1617,0.1616,0.2118,0.3323,0.4227,0.4929,0.5629,0.6331,0.6634,0.6434,0.7036,0.754,0.7839,0.7939,0.7939,0.8137,0.8333,0.8528,-2.6521,-2.6521,-2.6521,-2.6521,-2.6521,-2.6452,-2.6164,-2.5594,-2.5453,-2.5122,-2.4362,-2.423,-2.4146,-2.3861,-2.301,-2.251,-2.1983,-2.1165,-2.0654,-2.0654,-2.0654,-2.0576,-2.0576,-2.0576,-2.0576,-2.0576,-2.0576,-2.0576,-2.0576,-2.0576,-2.0576,-2.0576,-2.0576,-2.0576,-2.0576,-2.0576,-2.0576,-2.0566,-2.0489,-2.0489,-2.0566,-2.0401,-2.0089,-1.9854,-2.001,-1.9844,-1.9045,-1.9125,-1.9204,-1.839,-1.806,-1.7415,-1.6519,-1.5387,-1.4573,-1.425,-1.4166,-1.4088,-1.4088,-1.4088,-1.4088,-1.4088,-1.4088,-1.4088,-1.4088,-1.4088,-1.4088,-1.4088,-1.3997,-1.3828,-1.296,-1.21,-1.1063,-1.0106,-0.9248,-0.8828,-0.8476,-0.7856,-0.7411,-0.6874,-0.5985,-0.5188,-0.43,-0.3676,-0.2871,-0.2155,-0.1974,-0.1532,-0.0728,-0.0092,0.0189,0.0482,0.0494,0.1001,0.1412,0.1617,0.1617,0.1617,0.1617,0.2019,0.2722,0.3024,0.3626,0.4425,0.4926,0.5327,0.5729,0.6232,0.6833,0.7534,0.7939,0.8038,0.8237,0.8432,0.863,-2.6521,-2.6521,-2.6521,-2.6521,-2.6521,-2.6521,-2.6383,-2.6314,-2.6233,-2.5807,-2.5139,-2.4968,-2.4602,-2.4143,-2.3486,-2.2745,-2.1918,-2.1088,-2.0644,-2.0644,-2.0576,-2.0576,-2.0576,-2.0576,-2.0576,-2.0576,-2.0576,-2.0576,-2.0576,-2.0576,-2.0576,-2.0576,-2.0576,-2.0576,-2.0576,-2.0576,-2.0576,-2.0576,-2.0576,-2.0576,-2.0576,-2.0566,-2.0566,-2.0255,-2.0489,-2.0323,-2.0245,-2.0245,-2.0323,-2.0079,-1.945,-1.8886,-1.8069,-1.6601,-1.5462,-1.4734,-1.4489,-1.4496,-1.425,-1.4166,-1.4088,-1.4088,-1.4088,-1.4088,-1.4088,-1.4088,-1.4088,-1.4088,-1.4088,-1.3997,-1.3822,-1.2875,-1.1821,-1.0778,-0.9927,-0.9345,-0.8828,-0.8388,-0.7944,-0.7319,-0.6697,-0.6074,-0.5188,-0.43,-0.3497,-0.2781,-0.2333,-0.1993,-0.1377,-0.0935,-0.0668,-0.0292,0.0,0.0702,0.1414,0.1516,0.1617,0.1617,0.1617,0.1617,0.2019,0.1818,0.2321,0.3224,0.3823,0.4325,0.4826,0.5329,0.5932,0.6534,0.7235,0.7939,0.8134,0.823,0.8733,-2.6521,-2.6521,-2.6521,-2.6521,-2.6521,-2.6521,-2.6521,-2.6521,-2.6452,-2.6308,-2.6027,-2.58,-2.5636,-2.5153,-2.4364,-2.3254,-2.1993,-2.1461,-2.1021,-2.0722,-2.0576,-2.0576,-2.0576,-2.0576,-2.0576,-2.0576,-2.0576,-2.0576,-2.0576,-2.0576,-2.0576,-2.0576,-2.0576,-2.0576,-2.0576,-2.0576,-2.0576,-2.0576,-2.0576,-2.0576,-2.0576,-2.0576,-2.0576,-2.0576,-2.0576,-2.0576,-2.0576,-2.0576,-2.0566,-2.0489,-2.0167,-1.9687,-1.8966,-1.8149,-1.6919,-1.6034,-1.5628,-1.5311,-1.4908,-1.4741,-1.458,-1.4166,-1.4088,-1.4088,-1.4088,-1.4088,-1.4088,-1.4088,-1.4088,-1.4088,-1.3997,-1.3222,-1.2431,-1.1649,-1.0707,-0.9854,-0.934,-0.8915,-0.8384,-0.7852,-0.7231,-0.6609,-0.6077,-0.5188,-0.43,-0.3497,-0.2871,-0.2365,-0.2034,-0.1883,-0.1535,-0.098,-0.0499,0.0,0.0909,0.1415,0.1415,0.1415,0.1617,0.1617,0.1617,0.1617,0.1717,0.2221,0.2822,0.3323,0.3725,0.4227,0.4828,0.5532,0.6334,0.7036,0.7531,0.8028,0.8531,-2.6521,-2.6521,-2.6521,-2.6521,-2.6521,-2.6521,-2.6465,-2.6465,-2.6465,-2.6427,-2.6346,-2.6302,-2.6308,-2.6136,-2.5123,-2.3829,-2.2274,-2.2199,-2.1614,-2.1021,-2.0944,-2.0867,-2.0644,-2.0576,-2.0576,-2.0576,-2.0576,-2.0576,-2.0576,-2.0576,-2.0576,-2.0576,-2.0576,-2.0576,-2.0576,-2.0576,-2.0576,-2.0576,-2.0576,-2.0576,-2.0576,-2.0576,-2.0576,-2.0576,-2.0576,-2.0576,-2.0576,-2.0576,-2.0576,-2.0576,-2.0489,-2.0245,-1.9687,-1.9362,-1.8789,-1.7811,-1.7326,-1.6519,-1.5959,-1.5643,-1.5311,-1.458,-1.4412,-1.4334,-1.4088,-1.4088,-1.4088,-1.4088,-1.4088,-1.4088,-1.3997,-1.3483,-1.296,-1.2357,-1.1316,-1.0289,-0.9772,-0.9345,-0.8911,-0.838,-0.776,-0.7228,-0.6697,-0.6163,-0.5277,-0.4123,-0.3497,-0.2929,-0.2697,-0.2732,-0.24,-0.1572,-0.0998,-0.0603,0.0101,0.1212,0.1212,0.1111,0.1414,0.1617,0.1617,0.1617,0.1717,0.1818,0.1818,0.2321,0.2622,0.3123,0.3925,0.4628,0.5432,0.6232,0.703,0.7627,0.8226,-2.6521,-2.6521,-2.6521,-2.6521,-2.6521,-2.6521,-2.6396,-2.627,-2.6396,-2.6296,-2.6002,-2.5975,-2.6094,-2.5931,-2.5229,-2.4409,-2.3683,-2.3095,-2.236,-2.1614,-2.1538,-2.1155,-2.0712,-2.0566,-2.0576,-2.0576,-2.0576,-2.0576,-2.0576,-2.0576,-2.0576,-2.0576,-2.0576,-2.0576,-2.0576,-2.0576,-2.0576,-2.0576,-2.0576,-2.0576,-2.0576,-2.0576,-2.0576,-2.0576,-2.0576,-2.0576,-2.0576,-2.0576,-2.0576,-2.0576,-2.0576,-2.0566,-2.0489,-2.0401,-2.0323,-1.9441,-1.8301,-1.6846,-1.6601,-1.6527,-1.6124,-1.5394,-1.5151,-1.4824,-1.4334,-1.4088,-1.4088,-1.4088,-1.4088,-1.4088,-1.4088,-1.3997,-1.3483,-1.296,-1.2357,-1.1235,-1.0463,-0.9777,-0.9257,-0.8911,-0.838,-0.776,-0.7228,-0.6786,-0.6251,-0.5099,-0.4143,-0.3677,-0.3192,-0.3242,-0.3095,-0.2179,-0.1801,-0.1409,-0.0908,0.0202,0.0707,0.0606,0.101,0.1415,0.1617,0.1617,0.1617,0.1617,0.1617,0.1617,0.2019,0.2521,0.3123,0.3624,0.4327,0.5429,0.6628,0.7325,0.7826,-2.6589,-2.6521,-2.6521,-2.6521,-2.6521,-2.6521,-2.6408,-2.627,-2.6396,-2.6296,-2.599,-2.6057,-2.6025,-2.5779,-2.5358,-2.4791,-2.4192,-2.3756,-2.2947,-2.2059,-2.1756,-2.1395,-2.0799,-2.0576,-2.0576,-2.0576,-2.0576,-2.0576,-2.0576,-2.0576,-2.0576,-2.0576,-2.0576,-2.0576,-2.0576,-2.0576,-2.0576,-2.0576,-2.0576,-2.0576,-2.0576,-2.0576,-2.0576,-2.0576,-2.0576,-2.0576,-2.0576,-2.0576,-2.0576,-2.0576,-2.0576,-2.0576,-2.0576,-2.0566,-2.0411,-2.002,-1.9283,-1.8292,-1.7616,-1.756,-1.6935,-1.5966,-1.5553,-1.5137,-1.4412,-1.4088,-1.4088,-1.4088,-1.4088,-1.4088,-1.4088,-1.4088,-1.3913,-1.3568,-1.3052,-1.2448,-1.1413,-1.0294,-0.9689,-0.9257,-0.8911,-0.838,-0.7848,-0.7316,-0.6877,-0.6174,-0.507,-0.4256,-0.3801,-0.3509,-0.3261,-0.2807,-0.2517,-0.232,-0.1816,-0.1009,-0.0202,0.0,0.0505,0.0909,0.1516,0.1617,0.1516,0.1516,0.1617,0.1617,0.1617,0.1919,0.2321,0.2722,0.3123,0.4325,0.5527,0.6728,0.7428,-2.6973,-2.6726,-2.6589,-2.6521,-2.6521,-2.6521,-2.6327,-2.6131,-2.6408,-2.6227,-2.5877,-2.5906,-2.5828,-2.5606,-2.5523,-2.5158,-2.4492,-2.4409,-2.3599,-2.2713,-2.2048,-2.168,-2.1088,-2.0867,-2.0576,-2.0566,-2.0576,-2.0576,-2.0576,-2.0576,-2.0576,-2.0576,-2.0576,-2.0576,-2.0576,-2.0576,-2.0576,-2.0576,-2.0576,-2.0576,-2.0576,-2.0576,-2.0576,-2.0576,-2.0576,-2.0576,-2.0576,-2.0576,-2.0576,-2.0576,-2.0576,-2.0576,-2.0576,-2.0489,-2.0411,-2.0098,-1.9775,-1.9335,-1.8744,-1.8435,-1.7755,-1.6796,-1.547,-1.4887,-1.4328,-1.4088,-1.4088,-1.4088,-1.4088,-1.4088,-1.4088,-1.4088,-1.4004,-1.3828,-1.3483,-1.3137,-1.2619,-1.1499,-1.0381,-0.9689,-0.9257,-0.8911,-0.838,-0.7848,-0.7415,-0.6982,-0.6093,-0.512,-0.4411,-0.3854,-0.3397,-0.3128,-0.2927,-0.2826,-0.2522,-0.1917,-0.1211,-0.0606,-0.0101,0.0404,0.0909,0.1212,0.1212,0.1313,0.1414,0.1617,0.1617,0.1617,0.1617,0.2019,0.2622,0.3324,0.4425,0.5727,0.7027,-2.7986,-2.7351,-2.6769,-2.6521,-2.6521,-2.6521,-2.6258,-2.598,-2.6327,-2.6045,-2.5542,-2.5533,-2.5511,-2.5453,-2.5453,-2.5382,-2.517,-2.5241,-2.4492,-2.3818,-2.3243,-2.2499,-2.1756,-2.1165,-2.0722,-2.0722,-2.0644,-2.0576,-2.0576,-2.0576,-2.0576,-2.0576,-2.0576,-2.0576,-2.0576,-2.0576,-2.0576,-2.0576,-2.0576,-2.0576,-2.0576,-2.0576,-2.0576,-2.0576,-2.0576,-2.0576,-2.0576,-2.0576,-2.0576,-2.0576,-2.0576,-2.0576,-2.0566,-2.0489,-2.0411,-2.0255,-2.002,-1.9659,-1.9395,-1.9265,-1.8958,-1.7767,-1.6185,-1.4727,-1.4412,-1.4166,-1.4088,-1.4088,-1.4088,-1.4088,-1.4088,-1.4088,-1.4088,-1.4004,-1.3828,-1.3568,-1.3137,-1.2619,-1.1499,-1.0294,-0.9777,-0.9515,-0.9082,-0.864,-0.8028,-0.7598,-0.7063,-0.6101,-0.4938,-0.4279,-0.3709,-0.3331,-0.323,-0.313,-0.3029,-0.2523,-0.1917,-0.1412,-0.1009,-0.0303,0.0303,0.0505,0.0606,0.101,0.101,0.1313,0.1617,0.1516,0.1516,0.1617,0.2019,0.2723,0.3825,0.5227,0.6426,-2.8441,-2.8051,-2.7417,-2.6918,-2.6521,-2.6521,-2.6245,-2.598,-2.6201,-2.6025,-2.5475,-2.5429,-2.537,-2.5312,-2.5382,-2.5382,-2.5312,-2.5312,-2.4791,-2.4264,-2.3683,-2.3243,-2.2499,-2.1842,-2.1395,-2.1242,-2.0944,-2.0576,-2.0576,-2.0644,-2.0644,-2.0576,-2.0644,-2.0576,-2.0576,-2.0644,-2.0634,-2.0644,-2.0644,-2.0644,-2.0576,-2.0576,-2.0576,-2.0576,-2.0576,-2.0576,-2.0576,-2.0576,-2.0576,-2.0576,-2.0576,-2.0576,-2.0566,-2.0489,-2.042,-2.0255,-2.002,-1.9844,-1.9756,-1.9775,-1.9566,-1.8282,-1.6468,-1.4977,-1.4908,-1.4496,-1.4166,-1.4088,-1.4166,-1.425,-1.4173,-1.4088,-1.4088,-1.4088,-1.3997,-1.3828,-1.3568,-1.3137,-1.2619,-1.1327,-1.0809,-1.0381,-0.9946,-0.9428,-0.8819,-0.8228,-0.7734,-0.7111,-0.5963,-0.4891,-0.432,-0.3833,-0.3632,-0.3331,-0.323,-0.2826,-0.2522,-0.2118,-0.1714,-0.1109,-0.0504,-0.0403,-0.0202,0.0202,0.0606,0.0808,0.101,0.1313,0.1516,0.1617,0.1717,0.2119,0.3425,0.4728,0.5824,-2.917,-2.8762,-2.8312,-2.7617,-2.685,-2.6782,-2.6508,-2.6245,-2.6383,-2.6107,-2.5606,-2.5382,-2.5312,-2.5312,-2.5312,-2.5312,-2.5312,-2.5241,-2.4945,-2.4564,-2.4192,-2.3829,-2.3243,-2.266,-2.2134,-2.1983,-2.1385,-2.1011,-2.1021,-2.0934,-2.1021,-2.1021,-2.0944,-2.0867,-2.0644,-2.0867,-2.0837,-2.071,-2.1145,-2.1308,-2.1395,-2.1395,-2.1165,-2.1165,-2.1318,-2.1021,-2.0944,-2.0867,-2.0867,-2.0722,-2.0576,-2.0576,-2.0566,-2.0489,-2.0333,-2.0177,-1.9942,-1.9872,-1.996,-1.9608,-1.9423,-1.8318,-1.7098,-1.6124,-1.5643,-1.5235,-1.5151,-1.4985,-1.4824,-1.4496,-1.4496,-1.4328,-1.4166,-1.4088,-1.4088,-1.3913,-1.3828,-1.3568,-1.3045,-1.2357,-1.1929,-1.1332,-1.0604,-1.0027,-0.937,-0.8705,-0.7991,-0.7525,-0.7006,-0.6009,-0.5122,-0.4634,-0.4234,-0.3731,-0.3229,-0.3027,-0.2826,-0.2725,-0.2321,-0.1917,-0.1513,-0.1311,-0.0907,-0.0403,-0.0101,0.0101,0.0404,0.0808,0.1212,0.1516,0.1717,0.1918,0.2522,0.3726,0.4926,-3.0115,-2.9623,-2.9484,-2.8712,-2.7604,-2.7484,-2.7149,-2.6782,-2.6905,-2.6483,-2.5618,-2.5394,-2.5312,-2.5312,-2.5312,-2.5312,-2.5312,-2.5312,-2.5241,-2.5016,-2.4564,-2.4192,-2.3829,-2.339,-2.2968,-2.2809,-2.2253,-2.18,-2.1766,-2.1766,-2.1766,-2.1756,-2.1756,-2.1471,-2.0799,-2.1385,-2.1349,-2.0979,-2.22,-2.2563,-2.2885,-2.2788,-2.2285,-2.2059,-2.2285,-2.1983,-2.1461,-2.1538,-2.1461,-2.0944,-2.0867,-2.0789,-2.0644,-2.0489,-2.0411,-2.0489,-2.0098,-2.002,-2.0177,-1.9131,-1.8735,-1.8541,-1.7658,-1.7017,-1.6772,-1.6445,-1.6288,-1.5876,-1.5816,-1.5401,-1.5068,-1.4657,-1.4412,-1.4088,-1.4088,-1.4088,-1.3997,-1.3913,-1.3476,-1.3215,-1.2875,-1.2295,-1.1424,-1.0656,-0.9894,-0.9136,-0.8376,-0.7952,-0.7783,-0.7123,-0.6229,-0.5532,-0.5033,-0.4232,-0.3731,-0.3331,-0.313,-0.313,-0.2927,-0.2522,-0.222,-0.2017,-0.1613,-0.1109,-0.0807,-0.0706,-0.0202,0.0404,0.0808,0.1212,0.1516,0.1818,0.2221,0.2823,0.4128,-3.0507,-3.0251,-2.9808,-2.9359,-2.8839,-2.8376,-2.7868,-2.7284,-2.6756,-2.6151,-2.5523,-2.5312,-2.5312,-2.5312,-2.5312,-2.5312,-2.5312,-2.5312,-2.5312,-2.5241,-2.4933,-2.4933,-2.4647,-2.4166,-2.3728,-2.3514,-2.3018,-2.2584,-2.2585,-2.2574,-2.2574,-2.2574,-2.2574,-2.2134,-2.1842,-2.2134,-2.2371,-2.2328,-2.2872,-2.3375,-2.4237,-2.3579,-2.2957,-2.2649,-2.2947,-2.2723,-2.2134,-2.2435,-2.2134,-2.1461,-2.1308,-2.1088,-2.0722,-2.0498,-2.0498,-2.042,-2.0186,-2.0108,-2.0098,-1.9668,-1.959,-1.9116,-1.855,-1.7908,-1.7585,-1.6545,-1.648,-1.6698,-1.6828,-1.6327,-1.5492,-1.5235,-1.4908,-1.425,-1.4088,-1.4088,-1.4088,-1.4088,-1.3913,-1.3822,-1.3568,-1.3182,-1.2406,-1.1557,-1.0794,-1.0104,-0.9324,-0.8956,-0.8795,-0.8117,-0.7325,-0.6628,-0.6032,-0.5033,-0.4332,-0.3831,-0.3331,-0.313,-0.313,-0.3029,-0.2826,-0.2624,-0.2522,-0.2219,-0.1816,-0.1513,-0.0908,-0.0303,0.0303,0.0808,0.1212,0.1616,0.2019,0.2624,0.363,-3.0642,-3.0582,-3.0129,-2.9946,-2.9808,-2.9156,-2.857,-2.7934,-2.696,-2.6151,-2.5664,-2.5453,-2.5312,-2.5312,-2.5312,-2.5312,-2.5312,-2.5312,-2.5312,-2.5312,-2.5312,-2.5241,-2.504,-2.4766,-2.4599,-2.4313,-2.3834,-2.3385,-2.3379,-2.339,-2.3379,-2.3452,-2.361,-2.339,-2.3084,-2.3158,-2.3176,-2.3143,-2.347,-2.4319,-2.4676,-2.4376,-2.3683,-2.3537,-2.361,-2.3548,-2.3254,-2.3032,-2.2883,-2.2199,-2.1756,-2.1461,-2.0867,-2.0566,-2.0576,-2.042,-2.0342,-2.0264,-2.0177,-2.0255,-2.0089,-1.9775,-1.9204,-1.8798,-1.8479,-1.7785,-1.7543,-1.7674,-1.775,-1.7441,-1.6762,-1.6417,-1.5477,-1.4824,-1.458,-1.458,-1.4173,-1.4173,-1.4166,-1.4082,-1.4044,-1.3681,-1.3291,-1.2587,-1.1729,-1.1104,-1.0368,-1.0091,-0.9694,-0.9011,-0.8322,-0.7627,-0.693,-0.6032,-0.5033,-0.4334,-0.3833,-0.3331,-0.323,-0.3331,-0.313,-0.2928,-0.313,-0.323,-0.2725,-0.2219,-0.1714,-0.1109,-0.0202,0.0505,0.111,0.1514,0.1817,0.2624,0.3531,-3.0539,-3.0553,-3.0568,-3.0582,-3.0447,-2.9808,-2.9233,-2.8661,-2.755,-2.6701,-2.6233,-2.5652,-2.5523,-2.5382,-2.5382,-2.5312,-2.5312,-2.5312,-2.5312,-2.5312,-2.5312,-2.5312,-2.5312,-2.517,-2.5099,-2.4945,-2.4624,-2.4158,-2.412,-2.412,-2.412,-2.4264,-2.4647,-2.442,-2.4181,-2.4024,-2.3883,-2.3921,-2.435,-2.4921,-2.5123,-2.5147,-2.4636,-2.4492,-2.4492,-2.4276,-2.3986,-2.3756,-2.3231,-2.2638,-2.1973,-2.1461,-2.1011,-2.0634,-2.0644,-2.0566,-2.0566,-2.0411,-2.0342,-2.0498,-2.0264,-1.9942,-1.9794,-1.9627,-1.9213,-1.8789,-1.863,-1.8559,-1.8523,-1.8682,-1.8646,-1.7506,-1.6378,-1.5884,-1.5477,-1.5075,-1.4503,-1.425,-1.425,-1.4186,-1.4148,-1.3978,-1.3806,-1.3203,-1.2615,-1.2183,-1.1515,-1.0701,-1.0293,-0.9616,-0.8928,-0.8425,-0.7627,-0.6927,-0.6032,-0.5231,-0.4433,-0.3932,-0.3632,-0.3632,-0.343,-0.323,-0.323,-0.323,-0.323,-0.2826,-0.2321,-0.1513,-0.0605,0.0101,0.0706,0.1715,0.2221,0.2826,0.363,-2.99,-2.9943,-3.0379,-3.0642,-3.0507,-2.9898,-2.9275,-2.8739,-2.7894,-2.7242,-2.6769,-2.662,-2.6208,-2.5943,-2.5955,-2.5664,-2.5453,-2.5312,-2.5312,-2.5312,-2.5312,-2.5312,-2.5312,-2.5312,-2.5312,-2.5241,-2.5016,-2.4862,-2.4933,-2.4933,-2.4862,-2.5016,-2.5158,-2.5075,-2.5004,-2.4945,-2.472,-2.4696,-2.5052,-2.5217,-2.5312,-2.5312,-2.5075,-2.5087,-2.5087,-2.4802,-2.4719,-2.4647,-2.4192,-2.3599,-2.3379,-2.2861,-2.1538,-2.1461,-2.1318,-2.0644,-2.0566,-2.0576,-2.0489,-2.0411,-2.0255,-1.9951,-1.9794,-1.9557,-1.9381,-1.9292,-1.9292,-1.9134,-1.8975,-1.9047,-1.8834,-1.7959,-1.7107,-1.6698,-1.6214,-1.5643,-1.5068,-1.458,-1.451,-1.428,-1.4242,-1.4502,-1.4308,-1.3989,-1.3485,-1.316,-1.2582,-1.1843,-1.0984,-1.0306,-0.9525,-0.8924,-0.8425,-0.7726,-0.7226,-0.6526,-0.5529,-0.4732,-0.4431,-0.4031,-0.3632,-0.3432,-0.323,-0.323,-0.323,-0.313,-0.2928,-0.2118,-0.1311,-0.0605,0.0101,0.1412,0.2623,0.3228,0.3731,-2.9261,-2.9334,-2.9943,-3.0335,-3.0433,-2.9713,-2.9275,-2.8944,-2.817,-2.759,-2.7281,-2.704,-2.6799,-2.6476,-2.6252,-2.6013,-2.5664,-2.5382,-2.5312,-2.5312,-2.5312,-2.5312,-2.5312,-2.5312,-2.5312,-2.5312,-2.5312,-2.517,-2.5312,-2.5312,-2.5241,-2.5241,-2.5312,-2.5312,-2.5241,-2.5241,-2.5241,-2.5229,-2.5312,-2.5312,-2.5312,-2.5312,-2.5312,-2.5312,-2.5312,-2.5312,-2.5312,-2.5312,-2.4862,-2.4264,-2.412,-2.3537,-2.2424,-2.2209,-2.222,-2.1614,-2.1318,-2.1242,-2.1088,-2.0634,-2.0333,-2.0098,-1.9794,-1.9636,-1.9469,-1.9381,-1.9292,-1.9213,-1.9222,-1.9152,-1.8816,-1.8407,-1.7836,-1.735,-1.678,-1.6288,-1.5718,-1.5068,-1.4754,-1.446,-1.4549,-1.4903,-1.491,-1.4657,-1.4346,-1.3903,-1.3482,-1.2915,-1.1955,-1.0984,-1.0207,-0.9422,-0.9023,-0.8528,-0.8024,-0.7521,-0.6625,-0.5829,-0.5527,-0.5029,-0.4131,-0.3732,-0.3732,-0.3533,-0.323,-0.313,-0.313,-0.2826,-0.2219,-0.1412,-0.0403,0.0907,0.2218,0.3429,0.3932,-2.8608,-2.8666,-2.9291,-2.9914,-3.0346,-2.9484,-2.9275,-2.9415,-2.8365,-2.7881,-2.7775,-2.7403,-2.7219,-2.7061,-2.6748,-2.6414,-2.6151,-2.5734,-2.5523,-2.5382,-2.53,-2.5312,-2.5312,-2.5312,-2.5312,-2.5312,-2.5312,-2.5312,-2.5312,-2.5312,-2.5312,-2.5312,-2.5312,-2.5312,-2.5312,-2.5312,-2.5312,-2.5312,-2.5312,-2.5312,-2.5312,-2.5312,-2.5312,-2.5312,-2.5312,-2.5312,-2.5312,-2.5158,-2.4933,-2.4492,-2.412,-2.3902,-2.339,-2.299,-2.299,-2.2585,-2.1983,-2.169,-2.1385,-2.0867,-2.0489,-2.0255,-2.002,-1.9794,-1.9548,-1.9381,-1.9292,-1.9292,-1.9301,-1.9222,-1.8975,-1.8895,-1.8567,-1.8167,-1.7755,-1.7188,-1.6535,-1.5732,-1.4942,-1.4776,-1.4823,-1.5164,-1.5332,-1.5155,-1.5012,-1.4651,-1.4388,-1.3896,-1.3119,-1.2052,-1.1082,-1.0207,-0.9809,-0.9414,-0.8722,-0.8223,-0.7624,-0.7024,-0.6625,-0.6027,-0.5129,-0.4732,-0.4334,-0.3833,-0.323,-0.323,-0.313,-0.2927,-0.2522,-0.1714,-0.0706,0.0403,0.1713,0.3024,0.4031,-2.7955,-2.8016,-2.8857,-2.9477,-2.9737,-2.9344,-2.9289,-2.954,-2.878,-2.8406,-2.8341,-2.8249,-2.7933,-2.7604,-2.7432,-2.7108,-2.6688,-2.6289,-2.6013,-2.5804,-2.5581,-2.537,-2.5312,-2.5312,-2.5312,-2.5312,-2.5312,-2.5312,-2.5312,-2.5312,-2.5312,-2.5312,-2.5312,-2.5312,-2.5312,-2.5312,-2.5312,-2.5312,-2.5312,-2.5312,-2.5312,-2.5312,-2.5312,-2.5312,-2.5312,-2.5312,-2.5312,-2.5241,-2.5158,-2.5004,-2.5004,-2.4564,-2.3891,-2.3722,-2.3427,-2.2979,-2.2424,-2.2059,-2.1603,-2.1088,-2.0489,-2.0186,-2.0029,-1.9803,-1.9557,-1.939,-1.9301,-1.9292,-1.9292,-1.9292,-1.9292,-1.9292,-1.9222,-1.8975,-1.8576,-1.7925,-1.7286,-1.6301,-1.5282,-1.5253,-1.5194,-1.5357,-1.5618,-1.5657,-1.5615,-1.554,-1.5445,-1.5153,-1.4388,-1.3511,-1.2538,-1.1668,-1.0979,-1.0391,-0.9608,-0.8924,-0.8425,-0.8024,-0.7723,-0.6924,-0.6226,-0.5331,-0.4533,-0.3732,-0.323,-0.323,-0.323,-0.313,-0.2624,-0.1917,-0.131,-0.0302,0.0705,0.2015,0.3425,-2.7316,-2.7378,-2.784,-2.8582,-2.9199,-2.8733,-2.885,-2.9198,-2.8844,-2.8587,-2.8587,-2.8587,-2.8441,-2.8061,-2.7934,-2.7709,-2.731,-2.6769,-2.6427,-2.6082,-2.5873,-2.5511,-2.5453,-2.5312,-2.5312,-2.5312,-2.5312,-2.5312,-2.5312,-2.5312,-2.5312,-2.5312,-2.5312,-2.5312,-2.5312,-2.5312,-2.5312,-2.5312,-2.5312,-2.5312,-2.5312,-2.5312,-2.5312,-2.5312,-2.5312,-2.5312,-2.5312,-2.5312,-2.5312,-2.5312,-2.5241,-2.5158,-2.4731,-2.4574,-2.4357,-2.3863,-2.3169,-2.236,-2.1983,-2.1308,-2.0489,-2.0264,-2.0029,-1.9794,-1.9715,-1.9539,-1.9292,-1.9292,-1.9292,-1.9292,-1.9292,-1.9292,-1.9292,-1.9134,-1.8523,-1.7895,-1.7211,-1.6346,-1.6024,-1.6081,-1.586,-1.5451,-1.5671,-1.5785,-1.573,-1.573,-1.573,-1.573,-1.5159,-1.4777,-1.38,-1.2926,-1.2145,-1.1365,-1.0587,-0.9809,-0.9225,-0.8924,-0.8623,-0.8024,-0.7126,-0.5732,-0.4533,-0.4133,-0.3632,-0.323,-0.323,-0.323,-0.2927,-0.2321,-0.1714,-0.121,-0.0101,0.1008,0.2215,-2.6808,-2.6814,-2.6805,-2.7583,-2.8663,-2.8146,-2.8242,-2.8856,-2.8753,-2.8651,-2.8587,-2.8587,-2.8587,-2.8392,-2.8183,-2.7987,-2.7709,-2.731,-2.6837,-2.6564,-2.6302,-2.5943,-2.5594,-2.5394,-2.5312,-2.5312,-2.5312,-2.5312,-2.5312,-2.5312,-2.5312,-2.5312,-2.5312,-2.5312,-2.5312,-2.5312,-2.5312,-2.5312,-2.5312,-2.5312,-2.5312,-2.5312,-2.5312,-2.5312,-2.5312,-2.5312,-2.5312,-2.5312,-2.5312,-2.5312,-2.5312,-2.5241,-2.517,-2.5052,-2.5111,-2.4647,-2.3548,-2.3032,-2.2585,-2.1385,-2.0867,-2.0489,-2.0098,-1.9863,-1.9784,-1.9618,-1.9371,-1.9292,-1.9292,-1.9292,-1.9292,-1.9292,-1.9292,-1.9268,-1.8664,-1.8186,-1.7481,-1.6877,-1.6991,-1.7078,-1.6479,-1.5865,-1.5691,-1.5805,-1.5825,-1.5825,-1.5825,-1.5825,-1.573,-1.5445,-1.4867,-1.3992,-1.3216,-1.2339,-1.137,-1.069,-1.001,-0.9426,-0.9126,-0.8722,-0.8124,-0.6828,-0.5729,-0.5033,-0.4533,-0.3932,-0.3432,-0.3432,-0.3027,-0.2522,-0.2219,-0.1714,-0.1009,0.0101,0.1008,-2.6794,-2.6785,-2.6776,-2.7145,-2.7669,-2.7927,-2.8209,-2.8436,-2.8829,-2.8844,-2.857,-2.856,-2.8587,-2.8573,-2.8522,-2.8392,-2.8249,-2.7842,-2.7709,-2.751,-2.6769,-2.6289,-2.5943,-2.5676,-2.5382,-2.5312,-2.5312,-2.5312,-2.5312,-2.5312,-2.5312,-2.5312,-2.5312,-2.5312,-2.5312,-2.5312,-2.5312,-2.5312,-2.5312,-2.5312,-2.5312,-2.5312,-2.5312,-2.5312,-2.5312,-2.5312,-2.5312,-2.5312,-2.5312,-2.5312,-2.5312,-2.5312,-2.5312,-2.5312,-2.5312,-2.5016,-2.3913,-2.339,-2.2723,-2.1527,-2.0944,-2.0644,-2.0323,-1.9863,-1.9706,-1.9539,-1.9381,-1.9292,-1.9292,-1.9292,-1.9292,-1.9292,-1.9301,-1.9457,-1.9138,-1.8936,-1.8481,-1.8374,-1.8483,-1.7931,-1.7169,-1.6528,-1.5954,-1.6021,-1.5927,-1.5927,-1.5825,-1.5825,-1.5825,-1.5737,-1.5737,-1.4962,-1.4184,-1.2829,-1.1565,-1.1365,-1.0788,-1.0207,-0.9525,-0.9126,-0.8623,-0.8021,-0.7123,-0.6229,-0.5331,-0.4634,-0.4234,-0.3732,-0.3128,-0.2725,-0.2522,-0.2118,-0.1412,-0.0807,0.0101]}]]